Select your language:
Crown of King Zvonimir race, Solin CRO   Hier könnte ihre Werbung stehen!  
  Categoria:   anno:   Nazione:   Percorso:

Classifica tutti i tempi per questa corsa:

Miwok 100k Trail race

Distanza: 60km, 100km, Maggiori dettagli sulla corsa.
Parte della classifica: No (1996-2026) Multiple Finishers
 
4001 a 6764 di 6764 risultati della ricerca.
Pos. Prestazione Data Distanza Nome Naz. Anno Pos. M/F Pos. sesso Cat. Pos. Cat.
4001 13:45:48 h   06.05.2017 100km  Castillo, Raymond USA  1997 157 M 130 M20 4
4002 13:45:49 h   03.05.2008 100km  Bond, Doug USA  1963 191 M 138 M45 24
4003 13:45:50 h   03.05.1997 100km  Kilgariff, Geri USA  1958 61 F 18 W35 2
4004 13:45:52 h   05.05.2012 100km  Palilla, Matt USA  1981 105 M 84 M30 22
4005 13:45:53 h   01.05.2010 100km  Brown, Amy Leigh USA  1969 183 F 50 W40 8
4006 13:45:54 h   03.05.1997 100km  Murphy, Bonnelle USA  1947 62 F 19 W50 2
4007 13:45:56 h   04.05.2019 100km  Hutajulu, David USA  1981 128 M 103 M35 28
4008 13:45:58 h   04.05.2019 100km  Keene, Aaron USA  1980 129 M 104 M35 29
4009 13:45:59 h   03.05.2014 100km  Barekman, Lori USA  1961 164 F 27 W50 4
4010 13:46:00 h   06.05.2023 100km  Khatchatoorian, Bridget USA  1983 127 F 34 W40 10
4011 13:46:01 h   07.05.2011 100km  Phan, Van VIE  1971 191 F 44 W40 11
4012 13:46:06 h   05.05.1996 100km  Derenzo, Stephen USA  1942 38 M 33 M50 9
4013 13:46:06 h   04.05.2024 100km  Bernosky, Stefanie USA  1982 102 F 23 W40 6
4014 13:46:08 h   30.04.2005 100km  Lively, Mark USA  1958 164 M 120 M45 25
4015 13:46:08 h   03.05.2025 100km  Fogerty, Patrick USA  1992 132 M 104 M30 30
4016 13:46:09 h   06.05.2017 100km  Law, Todd USA  1967 158 M 131 M50 19
4017 13:46:09 h   04.05.2019 100km  Rogers, Rebekah USA  1978 130 F 26 W40 9
4018 13:46:15 h   04.05.2019 100km  Amital, Chuck USA  1958 131 M 105 M60 2
4019 13:46:17 h   06.05.2000 100km  Davidson, Peggy USA  1956 105 F 24 W40 6
4020 13:46:17 h   06.05.2017 100km  Amital, Chuck USA  1958 159 M 132 M55 4
4021 13:46:19 h   03.05.1997 100km  Stevenson, Jeff USA  1945 63 M 44 M50 10
4022 13:46:23 h   03.05.2025 100km  Michalek, Lukas USA  1992 133 M 105 M30 31
4023 13:46:30 h   03.05.2025 100km  Moskovitz, Jeremy USA  1991 134 M 106 M30 32
4024 13:46:33 h   04.05.2002 100km  Muller, Chris USA  1969 128 M 100 M30 9
4025 13:46:34 h   04.05.2002 100km  Henson, Lisa USA  1961 129 F 29 W40 8
4026 13:46:41 h   05.05.2012 100km  Martinez, Pedro USA  1986 106 M 85 M20 8
4027 13:46:46 h   05.05.2018 100km  Herron, David USA  1984 138 M 120 M30 12
4028 13:46:47 h   07.05.2016 100km  Danner, Alex USA  1957 155 M 133 M55 5
4029 13:46:49 h   05.05.2018 100km  Frey, Dustin USA  1986 139 M 121 M30 13
4030 13:46:51 h   03.05.2025 100km  Guillaume, Clement USA  1992 135 M 107 M30 33
4031 13:46:52 h   07.05.2016 100km  Binder, David USA  1968 156 M 134 M45 22
4032 13:46:53 h   30.04.2005 100km  Burnett, Joanne USA  1963 165 F 45 W40 11
4033 13:46:53 h   30.04.2005 100km  Lobsitz, Eva USA  1961 166 F 45 W40 11
4034 13:46:58 h   02.05.1998 100km  Crouse, Ken USA  1955 74 M 58 M40 12
4035 13:46:59 h   03.05.1997 100km  Solorio, Robert USA  1947 64 M 45 M50 11
4036 13:47:00 h   02.05.2015 100km  Bostrom, Leif USA  1979 153 M 124 M35 28
4037 13:47:00 h   02.05.2015 100km  Krawczyk, Matt USA  1970 154 M 124 M45 24
4038 13:47:00 h   02.05.2015 100km  MacIntyre, Scott USA  1977 155 M 124 M35 28
4039 13:47:00 h   06.05.2023 100km  Rudy, Margaret USA  1992 128 F 35 W30 7
4040 13:47:00 h   06.05.2023 100km  Bernosky, Stefanie USA  1982 129 F 35 W40 11
4041 13:47:00 h   06.05.2023 100km  Greene, Justin USA  1974 130 M 94 M45 15
4042 13:47:00 h   06.05.2023 100km  Beveroth, Christopher USA  1984 131 M 94 M35 19
4043 13:47:00 h   02.05.2026 100km  Dockery, Sean USA  1978 185 M 131 M45 18
4044 13:47:02 h   02.05.2009 100km  Takahashi, Ernest USA  1945 162 M 123 M60 3
4045 13:47:08 h   07.05.2016 100km  S., Jerry USA  1973 157 M 135 M40 29
4046 13:47:10 h   02.05.1998 100km  Elam, Linda USA  1945 75 F 17 W50 2
4047 13:47:14 h   03.05.2014 100km  Gothelf, Adam USA  1980 165 M 138 M30 25
4048 13:47:15 h   05.05.2001 100km  Davidson, Peggy USA  1956 108 F 24 W45 5
4049 13:47:18 h   01.05.2010 100km  Mark, John USA  1952 184 M 134 M55 7
4050 13:47:20 h   07.05.2016 100km  Mosley, Layna USA  1971 158 F 23 W45 7
4051 13:47:21 h   05.05.2018 100km  Welsh, Valerie USA  1983 140 F 19 W35 4
4052 13:47:22 h   02.05.2009 100km  Guest, Laura USA  1985 163 F 40 W20 5
4053 13:47:22 h   02.05.2009 100km  Henson, Lisa USA  1961 164 F 40 W45 12
4054 13:47:25 h   04.05.2019 100km  Stringham, Jennifer USA  1982 132 F 27 W35 6
4055 13:47:26 h   03.05.2008 100km  Novak, Benjamin USA  1975 192 M 139 M30 16
4056 13:47:31 h   01.05.2010 100km  White, Rich USA  1980 185 M 135 M30 19
4057 13:47:34 h   07.05.2011 100km  Bieber, David USA  1958 192 M 148 M50 18
4058 13:47:34 h   01.05.2004 100km  Overhoff, Mark USA  1961 127 M 98 M40 23
4059 13:47:37 h   07.05.2016 100km  Nauert, Ronnie USA  1972 159 M 136 M40 30
4060 13:47:41 h   03.05.2014 100km  Mulinyawe, Josam USA  1977 166 M 139 M35 23
4061 13:47:42 h   03.05.2025 100km  Yanda, Alan USA  1973 136 M 108 M50 6
4062 13:47:43 h   03.05.2014 100km  Hershey, Kendra USA  1971 167 F 28 W40 7
4063 13:47:47 h   02.05.2026 100km  Harary, Alex USA  1980 186 M 132 M45 19
4064 13:47:49 h   03.05.2014 100km  Nederlof, Trevor USA  1989 168 M 140 M20 10
4065 13:47:55 h   05.05.2001 100km  Sorensen, Lorraine USA  1950 109 F 25 W50 4
4066 13:47:58 h   07.05.2016 100km  Alfaro, Juan Antonio PAN  1980 160 M 137 M35 31
4067 13:48:00 h   02.05.2015 100km  Bourgault, West USA  1977 156 M 127 M35 30
4068 13:48:00 h   06.05.2023 100km  Ward, Michael USA  1988 132 M 96 M35 20
4069 13:48:02 h   30.04.2005 100km  Zawadzki, Mark USA  1970 167 M 121 M35 18
4070 13:48:13 h   03.05.1997 100km  Thibeault, Suzi USA  1947 65 F 20 W50 3
4071 13:48:14 h   03.05.1997 100km  Dickinson, Robert USA  1955 66 M 46 M40 13
4072 13:48:16 h   04.05.2002 100km  Gillis, Cheri USA  1952 130 F 30 W50 4
4073 13:48:16 h   01.05.2004 100km  Metcalfe, Mark USA  1969 128 M 99 M35 11
4074 13:48:21 h   02.05.2009 100km  James, Mike USA  1971 165 M 124 M35 22
4075 13:48:23 h   03.05.2014 100km  Zerbe, John USA  1968 169 M 141 M45 36
4076 13:48:24 h   03.05.2014 100km  Drewell, Robert USA  1973 170 M 142 M40 34
4077 13:48:24 h   05.05.2018 100km  Odell, David USA  1967 141 M 122 M50 17
4078 13:48:24 h   05.05.2018 100km  Odell, Deanna USA  1966 142 F 20 W50 3
4079 13:48:25 h   06.05.2006 100km  Bennett, Edward USA  1959 153 M 116 M45 21
4080 13:48:25 h   06.05.2006 100km  Czysz, Clea USA  1972 154 F 38 W30 7
4081 13:48:30 h   05.05.2018 100km  Dunne, Ian USA  1972 143 M 123 M45 33
4082 13:48:35 h   01.05.2004 100km  Huss, Michael USA  1958 129 M 100 M45 26
4083 13:48:35 h   30.04.2005 100km  Ridley, John USA  1955 168 M 122 M50 20
4084 13:48:35 h   30.04.2005 100km  Kocka, Bruce USA  1946 169 M 122 M55 12
4085 13:48:36 h   02.05.2009 100km  Pearson, David USA  1965 166 M 125 M40 36
4086 13:48:38 h   06.05.2006 100km  Beeston, Penny USA  1960 155 F 39 W45 10
4087 13:48:38 h   07.05.2016 100km  Winthrop, Charlotte USA  1986 161 F 24 W30 2
4088 13:48:39 h   06.05.2006 100km  Dewald, Stephen USA  1968 156 M 117 M35 25
4089 13:48:39 h   06.05.2017 100km  Brooks, Katie USA  1989 160 F 28 W20 3
4090 13:48:43 h   07.05.2022 100km  Bowden, Upton USA  1970 107 M 81 M50 12
4091 13:48:47 h   02.05.2026 100km  Bousleiman, Salim USA  1968 187 M 133 M55 4
4092 13:48:48 h   03.05.2003 100km  Wilhelm, Michael USA  1952 115 M 89 M50 16
4093 13:48:48 h   07.05.2016 100km  Gaston, Rick USA  1971 162 M 138 M45 23
4094 13:48:51 h   05.05.2018 100km  O'Farrell, Jeremy USA  1976 144 M 124 M40 23
4095 13:48:52 h   05.05.2018 100km  O'Farrell, Jitka USA  1977 145 F 21 W40 4
4096 13:49:00 h   02.05.2009 100km  McFadden, Linda USA  1962 167 F 42 W45 13
4097 13:49:00 h   02.05.2015 100km  Ungerleider, Julie USA  1968 157 F 30 W45 5
4098 13:49:01 h   30.04.2005 100km  Davis, Jason USA  1970 170 M 124 M35 19
4099 13:49:03 h   05.05.2018 100km  Kuperstein, Char USA  1982 146 F 22 W35 5
4100 13:49:05 h   07.05.2022 100km  Thompson, Brad USA  1976 108 M 82 M45 14
4101 13:49:07 h   05.05.2018 100km  Cheechov, Ron USA  1965 147 M 125 M50 18
4102 13:49:13 h   07.05.2016 100km  Capraro, Nick USA  1965 163 M 139 M50 18
4103 13:49:18 h   04.05.2024 100km  Sen, Niloy USA  1980 103 M 80 M40 16
4104 13:49:19 h   03.05.2025 100km  Carroll, Donal USA  1966 137 M 109 M55 4
4105 13:49:23 h   03.05.2014 100km  McCain, Lina USA  1966 171 F 29 W45 5
4106 13:49:23 h   03.05.2014 100km  Graetsch-Vasquez, Claudia USA  1972 172 F 29 W40 8
4107 13:49:24 h   30.04.2005 100km  Corbett-McNeely, Catra USA  1964 171 F 47 W40 13
4108 13:49:24 h   07.05.2016 100km  Trigg, Jeff CAN  1969 164 M 140 M45 24
4109 13:49:25 h   02.05.2009 100km  Davidson, Peggy USA  1956 168 F 43 W50 1
4110 13:49:25 h   02.05.2009 100km  Starr, Molly USA  1978 169 F 43 W30 10
4111 13:49:25 h   04.05.2024 100km  O'Dea, Raymond USA  1967 104 M 81 M55 6
4112 13:49:29 h   02.05.2026 100km  Matsuoka, Shogo JPN  1980 188 M 134 M45 20
4113 13:49:30 h   05.05.2018 100km  Barchas, Denise USA  1977 148 F 23 W40 5
4114 13:49:32 h   03.05.2014 100km  Wenter, Benjamin USA  1980 173 M 143 M30 26
4115 13:49:36 h   03.05.2003 100km  Mulvey, Cheryl USA  1960 116 F 27 W40 7
4116 13:49:37 h   07.05.2011 100km  Williams, David USA  1953 193 M 149 M55 9
4117 13:49:39 h   07.05.2016 100km  Amital, Chuck USA  1958 165 M 141 M55 6
4118 13:49:44 h   03.05.2014 100km  Giumarra, Nicole USA  1977 174 F 31 W35 7
4119 13:49:44 h   03.05.2014 100km  Giumarra, Jeff USA  1976 175 M 144 M35 24
4120 13:49:45 h   04.05.2002 100km  Winne, Jim USA  1947 131 M 101 M55 8
4121 13:49:54 h   01.05.2004 100km  Moret, Kirt USA  1954 130 M 101 M50 17
4122 13:49:56 h   03.05.2008 100km  Miller, Christine USA  1959 193 F 54 W45 14
4123 13:50:00 h   02.05.2015 100km  Kirk, Jenni USA  1979 158 F 31 W35 8
4124 13:50:00 h   06.05.2023 100km  Dina, Matthew USA  1977 133 M 97 M45 16
4125 13:50:01 h   07.05.2011 100km  Carr, Bill USA  1974 194 M 150 M35 33
4126 13:50:10 h   03.05.2003 100km  Braga-Levaggi, Ana USA  1960 117 F 28 W40 8
4127 13:50:11 h   07.05.2016 100km  Isenberg, Rebekah USA  1980 166 F 25 W35 5
4128 13:50:11 h   02.05.2026 100km  Vaca, Ana ECU  1994 189 F 55 W30 16
4129 13:50:24 h   04.05.2019 100km  Yasaka, Emi USA  1977 133 F 28 W40 10
4130 13:50:25 h   03.05.2025 100km  de Ruyter, Matthew USA  1993 138 M 110 M30 34
4131 13:50:26 h   04.05.2024 100km  Salvaro, Martino ITA  1980 105 M 82 M40 17
4132 13:50:26 h   03.05.2025 100km  Ellis, Carley USA  1992 139 F 29 W30 6
4133 13:50:36 h   02.05.2026 100km  Bretan, Jonathan USA  1982 190 M 135 M40 36
4134 13:50:36 h   02.05.2026 100km  Grenier, Francois USA  1982 191 M 135 M40 36
4135 13:50:48 h   06.05.2006 100km  Golubski, Dorothy USA  1965 157 F 40 W40 13
4136 13:50:48 h   06.05.2006 100km  Giebel, Mark USA  1946 158 M 118 M60 4
4137 13:50:48 h   07.05.2022 100km  Severino, Anthony USA  1978 109 M 83 M40 17
4138 13:50:49 h   02.05.2026 100km  Kadar, Ofer USA  1973 192 M 137 M50 9
4139 13:50:50 h   05.05.2007 100km  Ankeney, Bobb USA  1953 136 M 100 M50 12
4140 13:50:59 h   02.05.2009 100km  Walker, Marissa USA  1967 170 F 45 W40 8
4141 13:51:00 h   02.05.2015 100km  Guruswamy, Kowsik USA  1971 159 M 128 M40 20
4142 13:51:00 h   06.05.2023 100km  Kurz, Kevin USA  1984 134 M 98 M35 21
4143 13:51:00 h   06.05.2023 100km  Olmer, Barbara GER  1975 135 F 37 W45 4
4144 13:51:02 h   03.05.2008 100km  Nassi, Mark USA  1967 194 M 140 M40 41
4145 13:51:08 h   03.05.2003 100km  Cross, Fenton USA  1944 118 M 90 M55 6
4146 13:51:09 h   05.05.2012 100km  Bannister, Christopher USA  1981 107 M 86 M30 23
4147 13:51:09 h   06.05.2017 100km  Baikie, Michael IRL  1970 161 M 133 M45 24
4148 13:51:09 h   05.05.2018 100km  Yerkes, Todd USA  1968 149 M 126 M50 19
4149 13:51:11 h   06.05.2017 100km  Stricklan, Michael USA  1983 162 M 134 M30 20
4150 13:51:14 h   05.05.1996 100km  Solorio, Robert USA  1947 39 M 34 M45 8
4151 13:51:15 h   04.05.2024 100km  King Smith, Mosi USA  1982 106 M 83 M40 18
4152 13:51:21 h   06.05.2017 100km  Avila, Moises USA  1979 163 M 135 M35 34
4153 13:51:21 h   04.05.2024 100km  Fiandaca, Sam USA  1972 107 M 84 M50 3
4154 13:51:25 h   03.05.2025 100km  Weinsheimer, Michael USA  1974 140 M 111 M50 7
4155 13:51:27 h   05.05.2018 100km  Fox, Jenny USA  1979 150 F 24 W35 6
4156 13:51:31 h   03.05.2003 100km  Nygren, Trudy USA  1962 119 F 29 W40 9
4157 13:51:31 h   05.05.2018 100km  Withey, Angie USA  1977 151 F 25 W40 6
4158 13:51:32 h   03.05.2003 100km  Hull, Helen USA  1958 120 F 30 W45 6
4159 13:51:33 h   05.05.2018 100km  Loftus, John USA  1957 152 M 127 M60 1
4160 13:51:36 h   05.05.2018 100km  Bennett, Rogelio PAN  1963 153 M 128 M55 6
4161 13:51:36 h   07.05.2022 100km  Cleveland, Josh USA  1985 110 M 84 M35 19
4162 13:51:37 h   04.05.2002 100km  Blakemore, John USA  1944 132 M 102 M55 9
4163 13:51:39 h   05.05.2018 100km  Pfeffer, Wayne USA  1977 154 M 129 M40 24
4164 13:51:39 h   05.05.2018 100km  Pinola, Michael USA  1976 155 M 129 M40 24
4165 13:51:45 h   04.05.2002 100km  Gilon, Yitzhak USA  1950 133 M 103 M50 16
4166 13:51:46 h   03.05.2014 100km  Balle, Jesper USA  1975 176 M 145 M35 25
4167 13:51:46 h   03.05.2025 100km  Buchman, Elizabeth USA  1992 141 F 30 W30 7
4168 13:51:48 h   01.05.2004 100km  Sauld, David USA  1972 131 M 102 M30 13
4169 13:51:49 h   03.05.2008 100km  Savage, Charles USA  1947 195 M 141 M60 4
4170 13:51:57 h   04.05.2019 100km  Shi, Fuqiang USA  1969 134 M 106 M50 12
4171 13:52:00 h   02.05.2015 100km  Duda, John USA  1973 160 M 129 M40 21
4172 13:52:00 h   02.05.2015 100km  Trent, Katie USA  1992 161 F 32 W20 5
4173 13:52:00 h   06.05.2023 100km  Mukkamala, Himagiri USA  1973 136 M 99 M50 11
4174 13:52:00 h   06.05.2023 100km  Parsons, Keith USA  1973 137 M 99 M50 11
4175 13:52:00 h   06.05.2023 100km  McGrath, Ruth USA  1973 138 F 38 W50 3
4176 13:52:06 h   04.05.2019 100km  Bacon, William USA  1986 135 M 107 M30 15
4177 13:52:07 h   05.05.2007 100km  Petersen, Steven USA  1954 137 M 101 M50 13
4178 13:52:14 h   01.05.2004 100km  Harrold, Steven USA  1947 132 M 103 M55 6
4179 13:52:14 h   01.05.2004 100km  Savage, Mike USA  1959 133 M 103 M45 27
4180 13:52:14 h   01.05.2004 100km  Hernandez, Michael USA  1953 134 M 103 M50 18
4181 13:52:15 h   05.05.2018 100km  Chick, Joseph USA  1976 156 M 131 M40 26
4182 13:52:22 h   05.05.2012 100km  Messman, David USA  1960 108 M 87 M50 7
4183 13:52:22 h   04.05.2019 100km  Kochavi, Shiran USA  1969 136 M 108 M50 13
4184 13:52:23 h   07.05.2016 100km  Massler, Jacob USA  1981 167 M 142 M35 32
4185 13:52:23 h   02.05.2026 100km  Estes, Wes USA  1981 193 M 138 M45 21
4186 13:52:27 h   07.05.2016 100km  Krawczyk, Matt USA  1970 168 M 143 M45 25
4187 13:52:29 h   01.05.2004 100km  Gosney, Eldrith USA  1941 135 F 30 W60 1
4188 13:52:33 h   07.05.2011 100km  Richwine, Gary USA  1949 195 M 151 M60 5
4189 13:52:36 h   01.05.1999 100km  Rowe, Robert USA  1955 90 M 67 M40 14
4190 13:52:38 h   07.05.2016 100km  Hutchins, Karrie USA  1983 169 F 26 W30 3
4191 13:52:44 h   03.05.2003 100km  Mork, Joanie USA  1953 121 F 31 W50 3
4192 13:52:44 h   07.05.2016 100km  Liston, David USA  1956 170 M 144 M60 2
4193 13:52:46 h   02.05.2009 100km  Muradyan, Benjamin USA  1987 171 M 126 M20 4
4194 13:52:46 h   02.05.2009 100km  Peoples, Michael USA  1963 172 M 126 M45 24
4195 13:52:48 h   03.05.2008 100km  Denison, David USA  1961 196 M 142 M45 25
4196 13:52:49 h   05.05.2012 100km  Dorman, Mark USA  1971 109 M 88 M40 20
4197 13:52:52 h   01.05.2010 100km  Roninger, Jerald USA  1945 186 M 136 M65 1
4198 13:52:57 h   04.05.2024 100km  Sadzik, Tomasz USA  1979 108 M 85 M45 12
4199 13:53:00 h   06.05.2023 100km  O'Dea, Raymond USA  1967 139 M 101 M55 5
4200 13:53:00 h   06.05.2023 100km  Patent, Jason USA  1968 140 M 101 M55 5
4201 13:53:00 h   06.05.2023 100km  Lopez, Javier USA  1975 141 M 101 M45 17
4202 13:53:00 h   06.05.2023 100km  Hernandez, Froilan USA  1975 142 M 101 M45 17
4203 13:53:06 h   03.05.2008 100km  Lauer, Kurt USA  1961 197 M 143 M45 26
4204 13:53:09 h   01.05.2004 100km  Kronkhyte, Robert USA  1956 136 M 106 M45 28
4205 13:53:11 h   04.05.2024 100km  Derr, Bryan USA  1986 109 M 86 M35 28
4206 13:53:21 h   05.05.2018 100km  Felker, Timothy USA  1970 157 M 132 M45 34
4207 13:53:26 h   04.05.2002 100km  Jackson, Mario USA  1972 134 M 104 M30 10
4208 13:53:35 h   06.05.2006 100km  Chapman, Tom USA  1959 159 M 119 M45 22
4209 13:53:40 h   30.04.2005 100km  Sox-Harris, Alex USA  1963 172 M 125 M40 24
4210 13:53:45 h   05.05.2001 100km  Hodges, Eric (Rick) USA  1949 110 M 85 M50 13
4211 13:53:46 h   06.05.2017 100km  Glaeser, Cory USA  1977 164 M 136 M40 29
4212 13:53:58 h   02.05.2009 100km  Ure, Tina USA  1959 173 F 46 W50 2
4213 13:54:00 h   02.05.2015 100km  Henry, Loren USA  1960 162 M 130 M55 4
4214 13:54:00 h   02.05.2015 100km  Lake, Rodney USA  1972 163 M 130 M40 22
4215 13:54:00 h   02.05.2015 100km  Mitchell, Andrew USA  1967 164 M 130 M45 25
4216 13:54:04 h   07.05.2011 100km  Bonnett, Karen USA  1956 196 F 45 W55 2
4217 13:54:04 h   07.05.2011 100km  Natraj, Nattu USA  1963 197 M 152 M45 28
4218 13:54:04 h   03.05.2025 100km  Sakamoto, Noa USA  1986 142 M 112 M35 21
4219 13:54:08 h   07.05.2022 100km  Jensen, Thomas USA  1972 111 M 85 M50 13
4220 13:54:09 h   03.05.2008 100km  Quarles, Georganna USA  1954 198 F 55 W50 5
4221 13:54:11 h   04.05.2002 100km  Gallagher, Thomas USA  1957 135 M 105 M45 26
4222 13:54:13 h   03.05.2003 100km  Gnass, Jon USA  1955 122 M 91 M45 23
4223 13:54:14 h   03.05.2003 100km  Gnass, Karen USA  1962 123 F 32 W40 10
4224 13:54:28 h   04.05.2024 100km  Wintrob, Gordon USA  1990 110 M 87 M30 16
4225 13:54:28 h   03.05.2025 100km  Li, Yiran USA  1993 143 M 113 M30 35
4226 13:54:33 h   03.05.2025 100km  Murillo, Rebecca USA  1991 144 F 31 W30 8
4227 13:54:34 h   07.05.2011 100km  Stypula, Elaine USA  1965 198 F 46 W45 8
4228 13:54:36 h   05.05.2007 100km  Karadi, Kiran USA  1974 138 M 102 M30 12
4229 13:54:38 h   06.05.2006 100km  Negoro, Yukihiko JPN  1960 160 M 120 M45 23
4230 13:54:39 h   03.05.2014 100km  Grimm, Mike USA  1961 177 M 146 M50 9
4231 13:54:45 h   07.05.2011 100km  Dykhouse, Mark USA  1953 199 M 153 M55 10
4232 13:54:46 h   03.05.2014 100km  Tenyenhuis, Gabriel USA  1968 178 M 147 M45 37
4233 13:55:00 h   06.05.2023 100km  Miao, Lynn USA  1995 143 F 39 W20 5
4234 13:55:13 h   04.05.2019 100km  Dina, Matthew USA  1977 137 M 109 M40 24
4235 13:55:17 h   03.05.2025 100km  Schmidt, Kathryn USA  1966 145 F 32 W55 1
4236 13:55:19 h   01.05.2010 100km  Magill, Jim USA  1946 187 M 137 M60 3
4237 13:55:19 h   05.05.2012 100km  Natraj, Nattu USA  1963 110 M 89 M45 14
4238 13:55:22 h   04.05.2024 100km  Woodward, Todd USA  1977 111 M 88 M45 13
4239 13:55:26 h   07.05.2016 100km  Rotundo, Cesare USA  1965 171 M 145 M50 19
4240 13:55:29 h   03.05.2014 100km  Michal, Kenneth USA  1970 179 M 148 M40 35
4241 13:55:37 h   06.05.2017 100km  Ingoldsby, Chris USA  1965 165 M 137 M50 20
4242 13:55:47 h   03.05.2014 100km  Honrado, Ingrid USA  1975 180 F 32 W35 8
4243 13:55:50 h   07.05.2022 100km  Efta, Caleb USA  1990 112 M 86 M30 13
4244 13:55:54 h   03.05.2014 100km  Proctor, Chad USA  1985 181 M 149 M20 11
4245 13:55:56 h   06.05.2017 100km  Behrend, Annie USA  1985 166 F 29 W30 3
4246 13:56:00 h   03.05.2008 100km  Huerta, Lisa USA  1961 199 F 56 W45 15
4247 13:56:03 h   05.05.2018 100km  Lakhan, Pargol CAN  1981 158 F 26 W35 7
4248 13:56:07 h   07.05.2022 100km  Scheftner, Michael USA  1982 113 M 87 M40 18
4249 13:56:08 h   04.05.2024 100km  Starostka, Andy USA  1967 112 M 89 M55 7
4250 13:56:10 h   01.05.2010 100km  Pierotti, Angela CAN  1977 188 F 51 W30 7
4251 13:56:10 h   03.05.2014 100km  Burgess, Dustin USA  1981 182 M 150 M30 27
4252 13:56:10 h   03.05.2025 100km  Wagner, Justin USA  1988 146 M 114 M35 22
4253 13:56:13 h   06.05.2006 100km  Kent, Carol USA  1958 161 F 41 W45 11
4254 13:56:19 h   30.04.2005 100km  Hart, Ron USA  1965 173 M 126 M40 25
4255 13:56:20 h   05.05.2018 100km  Reichert, Bryan USA  1969 159 M 133 M45 35
4256 13:56:22 h   03.05.2003 100km  Stotts, John USA  1947 124 M 92 M55 7
4257 13:56:22 h   04.05.2024 100km  Coxe, Chuck USA  1973 113 M 90 M50 4
4258 13:56:29 h   02.05.2026 100km  Omodt, Elizabeth USA  1977 194 F 56 W45 5
4259 13:56:30 h   06.05.2006 100km  Morris, Karalee USA  1978 162 F 42 W20 3
4260 13:56:30 h   06.05.2006 100km  Little, Darnelle USA  1963 163 F 42 W40 14
4261 13:56:32 h   02.05.2026 100km  Wood, Caroline USA  1993 195 F 57 W30 17
4262 13:56:33 h   01.05.2004 100km  Stark, Philip USA  1960 137 M 107 M40 24
4263 13:56:37 h   02.05.2009 100km  Barstad, James USA  1964 174 M 128 M45 25
4264 13:56:39 h   02.05.2026 100km  Li Puma, Lance USA  1993 196 M 139 M30 21
4265 13:56:40 h   01.05.1999 100km  DeVita, Victoria USA  1953 91 F 24 W45 6
4266 13:56:40 h   01.05.1999 100km  Yarnall, Lynn USA  1950 92 F 24 W45 6
4267 13:56:48 h   03.05.2008 100km  Settle, Matthew USA  1971 200 M 144 M35 31
4268 13:56:48 h   07.05.2022 100km  Hildreth, Brian USA  1970 114 M 88 M50 14
4269 13:56:49 h   04.05.2019 100km  Szymoniak, Brett USA  1983 138 M 110 M35 30
4270 13:56:49 h   07.05.2022 100km  Brunken, David USA  1965 115 M 89 M55 4
4271 13:56:53 h   06.05.2006 100km  Carluccio, Judy USA  1966 164 F 44 W40 15
4272 13:56:54 h   03.05.2014 100km  Oles, Chris USA  1973 183 M 151 M40 36
4273 13:57:00 h   02.05.2015 100km  Kuperstein, Char USA  1982 165 F 33 W30 5
4274 13:57:00 h   02.05.2015 100km  O'Donnell, Brendan USA  1979 166 M 133 M35 31
4275 13:57:09 h   07.05.2011 100km  Koester, John USA  1949 200 M 154 M60 6
4276 13:57:14 h   05.05.2007 100km  Botella, Mariela USA  1966 139 F 37 W40 15
4277 13:57:14 h   03.05.2014 100km  Kysar-Carey, Jeanne USA  1965 184 F 33 W45 6
4278 13:57:14 h   04.05.2019 100km  Howell, Scott USA  1977 139 M 111 M40 25
4279 13:57:19 h   04.05.2019 100km  Amlung, Jonathon USA  1970 140 M 112 M45 17
4280 13:57:19 h   02.05.2026 100km  Conrad Viano, John USA  1991 197 M 140 M35 31
4281 13:57:30 h   04.05.2019 100km  Bretan, Jonathan USA  1982 141 M 113 M35 31
4282 13:57:32 h   02.05.2026 100km  Hunt, Joshua USA  1980 198 M 141 M45 22
4283 13:57:40 h   04.05.2019 100km  Heininger, Jennifer USA  1977 142 F 29 W40 11
4284 13:57:47 h   03.05.2014 100km  Trent, Katie USA  1992 185 F 34 W20 2
4285 13:57:51 h   05.05.2001 100km  Rhodes, Lee USA  1933 111 M 86 M65 1
4286 13:57:53 h   04.05.2019 100km  Cole, Jill USA  1970 143 F 30 W45 7
4287 13:57:55 h   03.05.2014 100km  Grundy, Brandon USA  1976 186 M 152 M35 26
4288 13:57:55 h   04.05.2019 100km  French-Owen, Calvin USA  1989 144 M 114 M30 16
4289 13:58:00 h   02.05.2015 100km  Woody, Shaun USA  1977 167 M 134 M35 32
4290 13:58:05 h   05.05.2001 100km  Lemus, Maria ESA  1964 112 F 26 W35 9
4291 13:58:10 h   03.05.2008 100km  Denson, Marco USA  1965 201 M 145 M40 42
4292 13:58:10 h   03.05.2025 100km  Lawrence, Scott USA  1963 147 M 115 M60 4
4293 13:58:18 h   04.05.2019 100km  Lancaster, Robert USA  1967 145 M 115 M50 14
4294 13:58:20 h   06.05.2006 100km  McFadden, Linda USA  1962 165 F 45 W40 16
4295 13:58:21 h   03.05.2025 100km  Cornea, Ana USA  1984 148 F 33 W40 4
4296 13:58:24 h   05.05.2001 100km  Mork, Joanie USA  1953 113 F 27 W45 6
4297 13:58:25 h   05.05.2018 100km  Welwood, Karen CAN  1972 160 F 27 W45 3
4298 13:58:29 h   07.05.2016 100km  MacLean, Carl USA  1996 172 M 146 M20 9
4299 13:58:31 h   03.05.2003 100km  Kogutek, Michael USA  1949 125 M 93 M50 17
4300 13:58:36 h   03.05.2003 100km  Lehigh, Brett USA  1960 126 M 94 M40 22
4301 13:58:39 h   03.05.1997 100km  Jones, Richard USA  1938 67 M 47 M55 1
4302 13:58:43 h   30.04.2005 100km  Kronkhyte, Robert USA  1956 174 M 127 M45 26
4303 13:58:43 h   03.05.2025 100km  Edwards, Challen USA  1966 149 F 34 W55 2
4304 13:58:49 h   01.05.2010 100km  Dill, Franz USA  1975 189 M 138 M35 30
4305 13:58:50 h   02.05.2026 100km  Zheng, Jinhua USA  1982 199 F 58 W40 8
4306 13:58:53 h   05.05.2018 100km  Yu, Haiming USA  1970 161 M 134 M45 36
4307 13:58:53 h   02.05.2026 100km  Creed, James USA  1993 200 M 142 M30 22
4308 13:58:54 h   05.05.2007 100km  Chu, Ling-Ru USA  1974 140 F 38 W30 6
4309 13:58:54 h   05.05.2012 100km  Hellgren, Robert Anthony USA  1979 111 M 90 M30 24
4310 13:58:58 h   03.05.2025 100km  Malzbender, Kristina USA  1993 150 F 35 W30 9
4311 13:59:00 h   02.05.2015 100km  Briggs, Jocelyn CAN  1976 168 F 34 W35 9
4312 13:59:00 h   02.05.2015 100km  MacKenzie, Keegan CAN  1983 169 F 34 W30 6
4313 13:59:01 h   05.05.2018 100km  Lutz, Matthew USA  1985 162 M 135 M30 14
4314 13:59:02 h   06.05.2017 100km  Griffith, Aaron CAN  1973 167 M 138 M40 30
4315 13:59:05 h   01.05.2004 100km  Lundell, Don Charles USA  1962 138 M 108 M40 25
4316 13:59:05 h   01.05.2004 100km  Robinson, Gillian USA  1966 139 F 31 W35 1
4317 13:59:05 h   06.05.2017 100km  Say, Philip USA  1967 168 M 139 M50 21
4318 13:59:07 h   05.05.2012 100km  Everett-Nielsen, Pam USA  1960 112 F 22 W50 2
4319 13:59:08 h   01.05.2004 100km  Stevenson, Jeff USA  1945 140 M 109 M55 7
4320 13:59:09 h   06.05.2006 100km  Brettler, Jeff USA  1961 166 M 121 M45 24
4321 13:59:12 h   06.05.2006 100km  Douglas, Deanna USA  1970 167 F 46 W35 8
4322 13:59:12 h   06.05.2006 100km  Douglas, Steven USA  1965 168 M 122 M40 27
4323 13:59:13 h   03.05.2025 100km  Chalifour, Annie CAN  1984 151 F 36 W40 5
4324 13:59:17 h   03.05.2025 100km  Cho, Linus USA  2000 152 F 37 W20 5
4325 13:59:17 h   02.05.2026 100km  Forehand, Christina USA  1984 201 F 59 W40 9
4326 13:59:22 h   03.05.2025 100km  Hawkins, Matt USA  1973 153 M 116 M50 8
4327 13:59:25 h   07.05.2022 100km  Verrilli, Gregory USA  1976 116 M 90 M45 15
4328 13:59:32 h   05.05.2007 100km  Morris, Paul USA  1956 141 M 103 M50 14
4329 13:59:32 h   02.05.2009 100km  Uehisa Jurek, Jenny USA  1976 175 F 47 W30 11
4330 13:59:33 h   05.05.1996 100km  Howard, Ron USA  1951 40 M 35 M45 9
4331 13:59:35 h   30.04.2005 100km  Braga-Levaggi, Ana USA  1960 175 F 48 W45 10
4332 13:59:37 h   02.05.2009 100km  Long, Chad USA  1973 176 M 129 M35 23
4333 13:59:40 h   06.05.2017 100km  Lopez, Javier USA  1975 169 M 140 M40 31
4334 13:59:45 h   02.05.2009 100km  Schurr, David USA  1960 177 M 130 M45 26
4335 13:59:47 h   02.05.2026 100km  D'Aguiar, Marcus USA  1997 202 M 143 M20 16
4336 13:59:54 h   07.05.2011 100km  Gustavsson, Peter USA  1966 201 M 155 M45 29
4337 13:59:56 h   05.05.2001 100km  Donaldson, Mark USA  1963 114 M 87 M35 7
4338 13:59:57 h   01.05.2010 100km  Palmer, Michael USA  1953 190 M 139 M55 8
4339 14:00:00 h   02.05.2015 100km  Wiskowski, David USA  1977 170 M 135 M35 33
4340 14:00:08 h   01.05.2010 100km  Summers, Philip USA  1961 191 M 140 M45 25
4341 14:00:09 h   07.05.2016 100km  Easa, David USA  1975 173 M 147 M40 31
4342 14:00:19 h   05.05.2001 100km  Little, Bobbi Jo USA  1969 115 F 28 W30 5
4343 14:00:20 h   06.05.2017 100km  Mulholand, Brian USA  1982 170 M 141 M35 35
4344 14:00:21 h   03.05.2014 100km  Nichols, John USA  1965 187 M 153 M45 38
4345 14:00:29 h   05.05.2001 100km  Irvin, Kristina USA  1958 116 F 29 W40 5
4346 14:00:33 h   02.05.2009 100km  Denson, Marco USA  1965 178 M 131 M40 37
4347 14:00:39 h   07.05.2011 100km  Velasquez, Luis USA  1970 202 M 156 M40 39
4348 14:00:41 h   02.05.2026 100km  Erdene, Sant-Amar USA  1988 203 M 144 M35 32
4349 14:00:44 h   03.05.2014 100km  Barnes, Desiree USA  1982 188 F 35 W30 7
4350 14:00:45 h   03.05.2008 100km  Ankeney, Bobb USA  1953 202 M 146 M55 8
4351 14:00:46 h   03.05.2008 100km  Andrews, Laurie USA  1968 203 F 57 W40 15
4352 14:00:53 h   02.05.2026 100km  Martin, Nicholas USA  1982 204 M 145 M40 38
4353 14:00:55 h   02.05.2026 100km  Hardington, Sebastian USA  1993 205 M 146 M30 23
4354 14:00:56 h   07.05.2022 100km  Owensby, Amanda USA  1995 117 F 27 W20 1
4355 14:01:00 h   05.05.2001 100km  Weisser, Susan USA  1957 117 F 30 W40 6
4356 14:01:00 h   06.05.2023 100km  Churchill, Mary USA  1975 144 F 40 W45 5
4357 14:01:00 h   06.05.2023 100km  Chen-Luftig, Lucia USA  1971 145 F 40 W50 4
4358 14:01:00 h   06.05.2023 100km  Ohm, Johanna USA  1991 146 F 40 W30 8
4359 14:01:15 h   30.04.2005 100km  Stotts, John USA  1947 176 M 128 M55 13
4360 14:01:16 h   01.05.2010 100km  Sellner, Joseph USA  1973 192 M 141 M35 31
4361 14:01:18 h   01.05.2010 100km  McKiernan, John USA  1958 193 M 142 M50 18
4362 14:01:22 h   05.05.2001 100km  Kocher, Wayne USA  1937 118 M 88 M60 3
4363 14:01:24 h   07.05.2011 100km  Cacciapaglia, Edward USA  1954 203 M 157 M55 11
4364 14:01:27 h   05.05.2018 100km  Stokes, Sean USA  1969 163 M 136 M45 37
4365 14:01:31 h   03.05.2014 100km  Larsen, Tim USA  1972 189 M 154 M40 37
4366 14:01:31 h   04.05.2024 100km  Whalen, Matt USA  1978 114 M 91 M45 14
4367 14:01:32 h   03.05.1997 100km  Essick, Tracie USA  1961 68 F 21 W35 3
4368 14:01:32 h   03.05.1997 100km  Goodwin, David USA  1948 69 M 48 M45 14
4369 14:01:36 h   03.05.2008 100km  D'Onofrio, Kathy USA  1964 204 F 58 W40 16
4370 14:01:37 h   05.05.2012 100km  Milsom, David USA  1970 113 M 91 M40 21
4371 14:01:39 h   01.05.2004 100km  Stranc-Bliss, Lisa USA  1968 141 F 32 W35 2
4372 14:01:39 h   01.05.2004 100km  Bliss, David USA  1962 142 M 110 M40 26
4373 14:01:40 h   01.05.2004 100km  Emery, Jack USA  1947 143 M 111 M55 8
4374 14:01:45 h   01.05.2010 100km  Larsen, Tim USA  1972 194 M 143 M35 32
4375 14:01:52 h   02.05.2026 100km  Stewart, Andrew USA  1982 206 M 147 M40 39
4376 14:02:00 h   02.05.2015 100km  Kawaharada, John USA  1968 171 M 136 M45 26
4377 14:02:00 h   06.05.2023 100km  Larsen, Tyler USA  1998 147 M 105 M20 6
4378 14:02:00 h   06.05.2023 100km  Grenier, Francois USA  1982 148 M 105 M40 20
4379 14:02:04 h   04.05.2024 100km  Hadidian, Abigail USA  1995 115 F 24 W20 6
4380 14:02:07 h   01.05.1999 100km  Hahn, Rebecca USA  1956 93 F 26 W40 5
4381 14:02:13 h   01.05.2010 100km  Johnson, Peter USA  1971 195 M 144 M35 33
4382 14:02:18 h   07.05.2022 100km  Gerking, Tyler USA  1975 118 M 91 M45 16
4383 14:02:24 h   05.05.2018 100km  Gaylord, Karrie USA  1977 164 F 28 W40 7
4384 14:02:25 h   05.05.2007 100km  Sullivan, James USA  1951 142 M 104 M55 10
4385 14:02:25 h   02.05.2026 100km  Olivares, Adrian USA  1985 207 M 148 M40 40
4386 14:02:36 h   05.05.2012 100km  Chock, Everitt USA  1964 114 M 92 M45 15
4387 14:02:37 h   05.05.2018 100km  Clark, Wendy USA  1970 165 F 29 W45 4
4388 14:02:41 h   02.05.2026 100km  Pottebaum, Kate USA  1997 208 F 60 W20 6
4389 14:02:42 h   07.05.2016 100km  Bernosky, Stefanie USA  1982 174 F 27 W30 4
4390 14:02:48 h   05.05.1996 100km  Hayes, Terri USA  1943 41 F 6 W50 2
4391 14:02:50 h   07.05.2011 100km  Hays, Christopher USA  1972 204 M 158 M35 34
4392 14:02:54 h   02.05.2026 100km  Brester, Sonja USA  1983 209 F 61 W40 10
4393 14:03:01 h   05.05.2012 100km  Petretto, Stephen USA  1979 115 M 93 M30 25
4394 14:03:02 h   06.05.2006 100km  Palmer, Michael USA  1953 169 M 123 M50 14
4395 14:03:19 h   05.05.2012 100km  Yamagata, Kuni USA  1953 116 M 94 M55 3
4396 14:03:28 h   05.05.2012 100km  Onate, William USA  1975 117 M 95 M35 14
4397 14:03:30 h   06.05.2000 100km  Kapiloff, Elizabeth USA  1960 106 F 25 W40 7
4398 14:03:34 h   03.05.1997 100km  Nowakowski, Joe USA  1953 70 M 49 M40 14
4399 14:03:35 h   05.05.2018 100km  Andersen, Erik USA  1982 166 M 137 M35 27
4400 14:03:36 h   02.05.2026 100km  Chen, Aaron USA  2000 210 M 149 M20 17
4401 14:03:37 h   04.05.2019 100km  Shebert, Rachel USA  1995 146 F 31 W20 2
4402 14:03:40 h   05.05.2001 100km  Lundell, Don Charles USA  1962 119 M 89 M35 8
4403 14:03:40 h   05.05.2001 100km  Robinson, Gillian USA  1966 120 F 31 W35 10
4404 14:03:41 h   07.05.2016 100km  Losada, Antonio USA  1960 175 M 148 M55 7
4405 14:03:41 h   04.05.2019 100km  Thornton, Jake USA  1990 147 M 116 M20 7
4406 14:03:51 h   07.05.2016 100km  Bulkoski, Ryan USA  1984 176 M 149 M30 24
4407 14:03:57 h   07.05.2022 100km  Feng, Yi USA  1956 119 M 92 M65 1
4408 14:03:58 h   07.05.2011 100km  Hennessey, Carolyn USA  1966 205 F 47 W45 9
4409 14:03:58 h   03.05.2003 100km  Milburn, David USA  1953 127 M 95 M50 18
4410 14:03:58 h   05.05.2018 100km  Chu, Khoa USA  1988 167 M 138 M30 15
4411 14:04:00 h   06.05.2023 100km  Latham, Carolyn USA  1987 149 F 43 W35 8
4412 14:04:02 h   05.05.2018 100km  Bobovski, Kate USA  1976 168 F 30 W40 8
4413 14:04:04 h   07.05.2011 100km  Slagel, Craig CAN  1972 206 M 159 M35 35
4414 14:04:07 h   07.05.2022 100km  Cross, Lisa USA  1962 120 F 28 W60 1
4415 14:04:31 h   05.05.2018 100km  Dawes, Jaime USA  1978 169 F 31 W40 9
4416 14:04:32 h   06.05.2000 100km  Gill Iii, J. Russell USA  1963 107 M 82 M35 12
4417 14:04:32 h   03.05.2014 100km  Boyle, Daniel USA  1963 190 M 155 M50 10
4418 14:04:32 h   03.05.2025 100km  Muhlner, Gregory USA  1971 154 M 117 M50 9
4419 14:04:33 h   07.05.2016 100km  McKune, John USA  1975 177 M 150 M40 32
4420 14:04:37 h   03.05.2014 100km  Wong, Linda CAN  1976 191 F 36 W35 9
4421 14:04:41 h   01.05.1999 100km  Weisser, Susan USA  1957 94 F 27 W40 6
4422 14:04:43 h   04.05.2019 100km  Crispino, Anne USA  1957 148 F 32 W60 1
4423 14:04:48 h   03.05.2014 100km  Liebeskind, John USA  1961 192 M 156 M50 11
4424 14:04:48 h   05.05.2018 100km  Meyer, John USA  1970 170 M 139 M45 38
4425 14:04:51 h   06.05.2017 100km  Lancaster, Robert USA  1967 171 M 142 M50 22
4426 14:04:51 h   02.05.2026 100km  Bennett, Jennifer USA  1980 211 F 62 W45 6
4427 14:05:00 h   02.05.2015 100km  Danner, Alex USA  1957 172 M 137 M55 5
4428 14:05:00 h   02.05.2015 100km  Laws, Mark USA  1965 173 M 137 M50 18
4429 14:05:00 h   06.05.2023 100km  Molakides, Mike USA  1969 150 M 107 M50 13
4430 14:05:02 h   03.05.2003 100km  Ambrozewicz, Bogdan USA  1953 128 M 96 M50 19
4431 14:05:06 h   02.05.2026 100km  Platt, Daniel USA  1979 212 M 150 M45 23
4432 14:05:08 h   03.05.2025 100km  Brown, Susan CAN  1984 155 F 38 W40 6
4433 14:05:13 h   03.05.2003 100km  Metcalfe, Mark USA  1969 129 M 97 M30 10
4434 14:05:13 h   03.05.2003 100km  O'Rourke, Eddie USA  1947 130 M 97 M55 8
4435 14:05:13 h   30.04.2005 100km  Petersen, Steven USA  1954 177 M 129 M50 21
4436 14:05:19 h   05.05.2018 100km  Hildreth, Brian USA  1970 171 M 140 M45 39
4437 14:05:25 h   03.05.2014 100km  Saxe, Neal USA  1967 193 M 157 M45 39
4438 14:05:28 h   02.05.2009 100km  Finestone, Paula USA  1968 179 F 48 W40 9
4439 14:05:28 h   02.05.2009 100km  Mulvey, Cheryl USA  1960 180 F 48 W45 14
4440 14:05:30 h   04.05.2002 100km  Sherman, Elena USA  1953 136 F 31 W45 6
4441 14:05:30 h   03.05.2014 100km  Hendell, Tom USA  1975 194 M 158 M35 27
4442 14:05:32 h   02.05.2009 100km  Martin, Kyong USA  1955 181 F 50 W50 3
4443 14:05:41 h   07.05.2016 100km  Cardenas, Suzanne USA  1975 178 F 28 W40 6
4444 14:05:42 h   07.05.2016 100km  Adair, Stacy USA  1977 179 F 29 W35 6
4445 14:05:47 h   07.05.2022 100km  Znotins, Brian CAN  1973 121 M 93 M45 17
4446 14:05:52 h   06.05.2000 100km  Scanlon, Robert USA  1947 108 M 83 M50 14
4447 14:05:53 h   01.05.1999 100km  Kahdeman, Jan USA  1957 95 F 28 W40 7
4448 14:06:00 h   05.05.2012 100km  Lourme, Jerome FRA  1961 118 M 96 M50 8
4449 14:06:00 h   02.05.2015 100km  Beraznik, Stan USA  1968 174 M 139 M45 27
4450 14:06:00 h   02.05.2015 100km  Severson, Shawn USA  1972 175 F 36 W40 7
4451 14:06:00 h   02.05.2015 100km  Ward-Waller, Chelsea USA  1990 176 F 36 W20 6
4452 14:06:00 h   06.05.2023 100km  Guthrie, Forbes USA  1973 151 M 108 M50 14
4453 14:06:00 h   06.05.2023 100km  Charpentier, Connor USA  1999 152 M 108 M20 7
4454 14:06:00 h   06.05.2023 100km  Watson, Doone CAN  1957 153 F 44 W65 1
4455 14:06:00 h   06.05.2023 100km  McPherson, Jeff USA  1975 154 M 108 M45 19
4456 14:06:00 h   06.05.2023 100km  Goh, Eujin USA  1977 155 M 108 M45 19
4457 14:06:00 h   06.05.2023 100km  Lam, David USA  1984 156 M 108 M35 22
4458 14:06:03 h   03.05.2014 100km  Jimenez, Jesse USA  1973 195 M 159 M40 38
4459 14:06:14 h   05.05.2018 100km  Wroblewski, Thomas GER  1958 172 M 141 M60 2
4460 14:06:16 h   07.05.2011 100km  Billingslea, Everett USA  1961 207 M 160 M50 19
4461 14:06:16 h   07.05.2011 100km  Murphy, Damien USA  1971 208 M 160 M40 40
4462 14:06:22 h   07.05.2022 100km  Jia, Haiyan USA  1968 122 M 94 M50 15
4463 14:06:23 h   06.05.2017 100km  Metcalfe, Julia USA  1987 172 F 30 W30 4
4464 14:06:24 h   07.05.2016 100km  Howland, Jeri USA  1956 180 F 30 W60 1
4465 14:06:29 h   02.05.2026 100km  Torliatt, Brian USA  1974 213 M 151 M50 10
4466 14:06:38 h   07.05.2011 100km  Bringer, Danny USA  1969 209 M 162 M40 41
4467 14:06:42 h   07.05.2016 100km  Ramirez, Israel USA  1974 181 M 151 M40 33
4468 14:06:42 h   03.05.2025 100km  Buckley, Moriah USA  1978 156 F 39 W45 5
4469 14:06:42 h   03.05.2025 100km  Butler, Dakota USA  1982 157 M 118 M40 27
4470 14:06:43 h   07.05.2016 100km  Couteau, Pierre-Yves USA  1966 182 M 152 M50 20
4471 14:06:45 h   01.05.2010 100km  Lauzon, Brian GBR  1960 196 M 145 M50 19
4472 14:06:46 h   02.05.2026 100km  Bisineer, Maya USA  1975 214 F 63 W50 4
4473 14:06:49 h   01.05.2010 100km  Casado, Martin USA  1973 197 M 146 M35 34
4474 14:06:52 h   02.05.2026 100km  Mellert, Megan USA  1987 215 F 64 W35 21
4475 14:06:56 h   03.05.2025 100km  Becic, Joe USA  1993 158 M 119 M30 36
4476 14:07:00 h   06.05.2000 100km  Hodges, Elizabeth USA  1950 109 F 26 W50 4
4477 14:07:00 h   02.05.2015 100km  Utke, Shane USA  1973 177 M 140 M40 23
4478 14:07:01 h   05.05.2012 100km  Burgmann, Roland USA  1963 119 M 97 M45 16
4479 14:07:02 h   01.05.2004 100km  Guenther, Karen USA  1959 144 F 33 W45 8
4480 14:07:05 h   06.05.2000 100km  Hodges, Eric (Rick) USA  1949 110 M 84 M50 15
4481 14:07:09 h   04.05.2024 100km  Grant, Sean USA  1986 116 M 92 M35 29
4482 14:07:11 h   07.05.2011 100km  Jones, Charley USA  1971 210 M 163 M40 42
4483 14:07:13 h   01.05.1999 100km  Wilson, Charles (Chuck) USA  1948 96 M 68 M50 13
4484 14:07:17 h   03.05.2025 100km  Krone, Andrew USA  1978 159 M 120 M45 11
4485 14:07:19 h   02.05.2009 100km  Whipple, Jason USA  1968 182 M 132 M40 38
4486 14:07:24 h   03.05.2025 100km  Beltz, Matthew USA  1983 160 M 121 M40 28
4487 14:07:26 h   01.05.2010 100km  Dickinson, Robert USA  1955 198 M 147 M55 9
4488 14:07:27 h   01.05.1999 100km  Kocher, Wayne USA  1937 97 M 69 M60 3
4489 14:07:27 h   01.05.1999 100km  Elam, Linda USA  1945 98 F 29 W50 3
4490 14:07:32 h   05.05.2018 100km  O'Connor, Elliot USA  1985 173 M 142 M30 16
4491 14:07:34 h   30.04.2005 100km  Kerse, Jim NZL  1948 178 M 130 M55 14
4492 14:07:34 h   30.04.2005 100km  Metcalfe, Mark USA  1969 179 M 130 M35 20
4493 14:07:35 h   05.05.2018 100km  Foley, Heather USA  1982 174 F 32 W35 8
4494 14:07:39 h   04.05.2024 100km  Hernandez, Froilan USA  1975 117 M 93 M45 15
4495 14:07:55 h   06.05.2006 100km  Kratochvil, Charles USA  1953 170 M 124 M50 15
4496 14:07:57 h   02.05.1998 100km  Forshaw, George CAN  1949 76 M 59 M45 16
4497 14:08:00 h   02.05.2015 100km  Keene, Aaron USA  1980 178 M 141 M35 34
4498 14:08:00 h   02.05.2015 100km  Ramirez, Israel USA  1974 179 M 141 M40 24
4499 14:08:00 h   02.05.2015 100km  Tanttila, Amelia USA  1967 180 F 38 W45 6
4500 14:08:02 h   04.05.2019 100km  Gould, Chris USA  1976 149 M 117 M40 26
4501 14:08:03 h   05.05.2018 100km  Knox, Molly USA  1973 175 F 33 W45 5
4502 14:08:04 h   06.05.2006 100km  Relyea, Noel USA  1945 171 F 47 W60 1
4503 14:08:05 h   03.05.2025 100km  Gnoza, Stephen USA  1985 161 M 122 M40 29
4504 14:08:06 h   07.05.2022 100km  Adlong, Daniel USA  1980 123 M 95 M40 19
4505 14:08:08 h   06.05.2006 100km  Shone, Marcy USA  1951 172 F 48 W55 1
4506 14:08:18 h   05.05.1996 100km  Schmidt, Lee USA  1939 42 M 36 M55 5
4507 14:08:19 h   05.05.2012 100km  Gaston, Adam USA  1973 120 M 98 M35 15
4508 14:08:19 h   05.05.2012 100km  Williams, David USA  1953 121 M 98 M55 4
4509 14:08:26 h   02.05.2009 100km  Matuszak, Chris USA  1984 183 M 133 M20 5
4510 14:08:28 h   06.05.2006 100km  Lobsitz, Eva USA  1961 173 F 49 W45 12
4511 14:08:30 h   05.05.2012 100km  MacIntyre, Scott USA  1977 122 M 100 M35 16
4512 14:08:37 h   07.05.2016 100km  Gregory, Giles USA  1968 183 M 153 M45 26
4513 14:08:38 h   04.05.2019 100km  Lawlor, Kevin USA  1967 150 M 118 M50 15
4514 14:08:42 h   03.05.2003 100km  Grossi, Thomas USA  1944 131 M 99 M55 9
4515 14:08:43 h   02.05.2026 100km  Wegner, Scott USA  1986 216 M 152 M40 41
4516 14:08:48 h   06.05.2006 100km  Roninger, Jerald USA  1945 174 M 125 M60 5
4517 14:08:48 h   01.05.2004 100km  Kratochvil, Charles USA  1953 145 M 112 M50 19
4518 14:08:51 h   02.05.2009 100km  Herzog, Joe USA  1968 184 M 134 M40 39
4519 14:08:55 h   03.05.2014 100km  Dube, Erik USA  1974 196 M 160 M40 39
4520 14:08:57 h   04.05.2024 100km  Erdenemunkh, Munkhjin USA  1983 118 M 94 M40 19
4521 14:09:00 h   06.05.2023 100km  Waddell, Michelle USA  1990 157 F 45 W30 9
4522 14:09:00 h   06.05.2023 100km  Brackett, Jennifer USA  1992 158 F 45 W30 9
4523 14:09:01 h   04.05.2019 100km  Nevils, Tatum USA  1980 151 F 33 W35 7
4524 14:09:06 h   01.05.2010 100km  Spain, Laura USA  1967 199 F 52 W40 9
4525 14:09:12 h   06.05.2000 100km  Lundell, Don Charles USA  1962 111 M 85 M35 13
4526 14:09:12 h   06.05.2000 100km  Robinson, Gillian USA  1966 112 F 27 W30 4
4527 14:09:15 h   07.05.2022 100km  Watson, Lauren USA  1985 124 F 29 W35 4
4528 14:09:20 h   03.05.1997 100km  Hodges, Elizabeth USA  1950 71 F 22 W45 6
4529 14:09:23 h   03.05.1997 100km  Rork, Paul USA  1947 72 M 50 M50 12
4530 14:09:23 h   04.05.2019 100km  Taylor, Thomas USA  1980 152 M 119 M35 32
4531 14:09:23 h   07.05.2022 100km  Newman, Dan USA  1968 125 M 96 M50 16
4532 14:09:23 h   03.05.2025 100km  Mann, Robert USA  1974 162 M 123 M50 10
4533 14:09:32 h   03.05.2025 100km  Dent, Sophie USA  1991 163 F 40 W30 10
4534 14:09:38 h   07.05.2022 100km  Grijalvo, Ana USA  1976 126 F 30 W45 6
4535 14:09:43 h   04.05.2024 100km  Damone, Darren USA  1977 119 M 95 M45 16
4536 14:09:47 h   07.05.2011 100km  Penuel, William R. USA  1970 211 M 164 M40 43
4537 14:09:50 h   02.05.2026 100km  Aukes, Sara USA  1981 217 F 65 W45 7
4538 14:09:51 h   06.05.2000 100km  Frederickson, Steve USA  1947 113 M 86 M50 16
4539 14:09:55 h   04.05.2002 100km  Dickinson, Robert USA  1955 137 M 106 M45 27
4540 14:09:55 h   30.04.2005 100km  Stark, Philip USA  1960 180 M 132 M45 27
4541 14:10:00 h   02.05.2015 100km  Labourdett, Lupe USA  1959 181 F 39 W55 2
4542 14:10:02 h   04.05.2024 100km  Krone, Andrew USA  1978 120 M 96 M45 17
4543 14:10:10 h   04.05.2019 100km  Riddle, Stacie USA  1979 153 F 34 W40 12
4544 14:10:10 h   04.05.2019 100km  Sherman, Daniel USA  1977 154 M 120 M40 27
4545 14:10:14 h   07.05.2016 100km  Tumbat, Gulnur USA  1975 184 F 31 W40 7
4546 14:10:16 h   05.05.2012 100km  McIlroy, Harry USA  1973 123 M 101 M35 17
4547 14:10:23 h   02.05.2026 100km  Solum, Derek USA  1972 218 M 153 M50 11
4548 14:10:27 h   02.05.2026 100km  Kingery, Nathan USA  1987 219 M 154 M35 33
4549 14:10:28 h   01.05.2004 100km  Milburn, David USA  1953 146 M 113 M50 20
4550 14:10:29 h   01.05.2004 100km  Schlee, Darrell USA  1940 147 M 114 M60 7
4551 14:10:31 h   01.05.2004 100km  Nowakowski, Joe USA  1953 148 M 115 M50 21
4552 14:10:31 h   03.05.2025 100km  Olivero, Anthony USA  1983 164 M 124 M40 30
4553 14:10:32 h   07.05.2011 100km  Marsak, Lucas USA  1979 212 M 165 M30 12
4554 14:10:38 h   03.05.2014 100km  Shafiee, Mir CAN  1969 197 M 161 M45 40
4555 14:10:39 h   03.05.2025 100km  O'Donnell, Brendan USA  1979 165 M 125 M45 12
4556 14:10:51 h   04.05.2019 100km  Takahashi, Nobuya USA  1981 155 M 121 M35 33
4557 14:10:52 h   06.05.2000 100km  Derystodder, Brook USA  1963 114 F 28 W35 5
4558 14:10:52 h   06.05.2000 100km  Derystodder, Mark USA  1956 115 M 87 M40 18
4559 14:10:53 h   07.05.2016 100km  Ashton, Dave USA  1971 185 M 154 M45 27
4560 14:10:55 h   03.05.2003 100km  Glogovac, Scott USA  1954 132 M 100 M45 24
4561 14:10:58 h   03.05.1997 100km  Spencer, Rick USA  1949 73 M 51 M45 15
4562 14:11:00 h   02.05.2015 100km  Acer, Mike USA  1961 182 M 143 M50 19
4563 14:11:02 h   05.05.2012 100km  de St. Paer, Jonathan USA  1973 124 M 102 M35 18
4564 14:11:05 h   04.05.2024 100km  Mullin, Christopher USA  1985 121 M 97 M35 30
4565 14:11:15 h   05.05.2012 100km  Horn, Andrew USA  1963 125 M 103 M45 17
4566 14:11:15 h   05.05.2012 100km  Carlton, William USA  1974 126 M 103 M35 19
4567 14:11:15 h   03.05.2025 100km  Archibald, Brandon USA  1988 166 M 126 M35 23
4568 14:11:17 h   04.05.2024 100km  Mulholand, Brian USA  1982 122 M 98 M40 20
4569 14:11:17 h   04.05.2024 100km  Weathers, Bryan USA  1980 123 M 98 M40 20
4570 14:11:29 h   06.05.2000 100km  Clement, Mark USA  1940 116 M 88 M60 2
4571 14:11:31 h   03.05.2008 100km  Antonis, Leslie USA  1962 205 F 59 W45 16
4572 14:11:37 h   07.05.2011 100km  Johnson, Russell USA  1958 213 M 166 M50 20
4573 14:11:41 h   07.05.2022 100km  Coxe, Chuck USA  1973 127 M 97 M45 18
4574 14:11:44 h   06.05.2017 100km  Smith, Amanda USA  1981 173 F 31 W35 10
4575 14:11:46 h   05.05.1996 100km  Spencer, Rick USA  1949 43 M 37 M45 10
4576 14:11:46 h   04.05.2019 100km  Ballezza, Joel USA  1981 156 M 122 M35 34
4577 14:11:48 h   03.05.2025 100km  Leone, Nicholas USA  1982 167 M 127 M40 31
4578 14:11:50 h   07.05.2011 100km  Pawa, Sukhi CAN  1962 214 M 167 M45 30
4579 14:11:50 h   04.05.2024 100km  van Horn, Kai USA  1985 124 M 100 M35 31
4580 14:11:52 h   05.05.2012 100km  Bertrand, Larry USA  1970 127 M 105 M40 22
4581 14:12:00 h   05.05.2012 100km  Otoole, Kevin USA  1979 128 M 106 M30 26
4582 14:12:00 h   02.05.2015 100km  Redl, Nicky AUS  1978 183 F 40 W35 10
4583 14:12:02 h   06.05.2000 100km  McKinley, Sara USA  1959 117 F 29 W40 8
4584 14:12:04 h   05.05.2012 100km  Pana, Roxana USA  1977 129 F 23 W35 9
4585 14:12:10 h   06.05.2000 100km  Koch, Randy USA  1957 118 M 89 M40 19
4586 14:12:10 h   06.05.2000 100km  Sung, Terri USA  1961 119 F 30 W35 6
4587 14:12:18 h   02.05.1998 100km  Howes, Cindy USA  1957 77 F 18 W40 6
4588 14:12:19 h   05.05.2007 100km  Wolford, Erin USA  1963 143 F 39 W40 16
4589 14:12:25 h   03.05.2008 100km  Collins, Jeff USA  1953 206 M 147 M55 9
4590 14:12:26 h   01.05.2004 100km  Pierce, Karen USA  1963 149 F 34 W40 15
4591 14:12:26 h   01.05.2004 100km  Warren, Nancy USA  1966 150 F 34 W35 3
4592 14:12:30 h   07.05.2022 100km  McKune, John USA  1975 128 M 98 M45 19
4593 14:12:34 h   04.05.2002 100km  Spencer, Rick USA  1949 138 M 107 M50 17
4594 14:12:38 h   03.05.2014 100km  Campos, Sandra USA  1976 198 F 37 W35 10
4595 14:12:44 h   03.05.1997 100km  Despres, Renee USA  1964 74 F 23 W30 3
4596 14:12:45 h   07.05.2011 100km  Asquith, Rose USA  1959 215 F 48 W50 5
4597 14:12:57 h   05.05.2012 100km  Arrigoni, Alicia USA  1980 130 F 24 W30 7
4598 14:13:00 h   01.05.2004 100km  Patt, Steven USA  1949 151 M 116 M55 9
4599 14:13:00 h   06.05.2023 100km  Zarak, Ivan USA  1973 159 M 113 M50 15
4600 14:13:00 h   06.05.2023 100km  Patja, Kevin USA  1975 160 M 113 M45 21
4601 14:13:00 h   06.05.2023 100km  Wilson, Jacob USA  2004 161 M 113 MU20 1
4602 14:13:05 h   02.05.2009 100km  Dashow, Jason USA  1975 185 M 135 M30 14
4603 14:13:07 h   05.05.2012 100km  Smith, David USA  1966 131 M 107 M45 18
4604 14:13:08 h   03.05.2008 100km  Stevenson, Jeff USA  1945 207 M 148 M60 5
4605 14:13:08 h   05.05.2012 100km  Richard, Marian USA  1960 132 F 25 W50 3
4606 14:13:13 h   05.05.2018 100km  Oswald, Vicky USA  1964 176 F 34 W50 4
4607 14:13:25 h   05.05.2018 100km  Garcia Cruz, Tono MEX  1982 177 M 143 M35 28
4608 14:13:25 h   04.05.2019 100km  Metcalfe, Julia USA  1987 157 F 35 W30 5
4609 14:13:26 h   07.05.2011 100km  Gaylord, Randall USA  1957 216 M 168 M50 21
4610 14:13:30 h   06.05.2000 100km  Parker, Trina USA  1960 120 F 31 W40 9
4611 14:13:30 h   06.05.2000 100km  Bright, Gordon USA  1952 121 M 90 M45 20
4612 14:13:31 h   03.05.2008 100km  Hanke, Karen USA  1962 208 F 60 W45 17
4613 14:13:31 h   03.05.2025 100km  Ward, Mary IRL  1974 168 F 41 W50 5
4614 14:13:32 h   03.05.2014 100km  Yates, Scott USA  1975 199 M 162 M35 28
4615 14:13:34 h   06.05.2017 100km  Pfeil, Terri USA  1966 174 F 32 W50 3
4616 14:13:38 h   06.05.2017 100km  Cole, Jill USA  1970 175 F 33 W45 6
4617 14:13:38 h   06.05.2017 100km  Burke, Daniel USA  1959 176 M 143 M55 5
4618 14:13:38 h   04.05.2019 100km  Felker, Timothy USA  1970 158 M 123 M45 18
4619 14:13:40 h   02.05.2026 100km  Hernandez, Froilan USA  1975 220 M 155 M50 12
4620 14:13:41 h   05.05.2018 100km  Graham, Nick USA  1973 178 M 144 M45 40
4621 14:13:42 h   04.05.2024 100km  Stevens, Bryan USA  1978 125 M 101 M45 18
4622 14:13:44 h   04.05.2019 100km  Zerbe, John USA  1968 159 M 124 M50 16
4623 14:13:44 h   03.05.2025 100km  Gramajo, Carmen USA  1987 169 F 42 W35 9
4624 14:13:45 h   03.05.2003 100km  Easterbrook, Jon USA  1953 133 M 101 M50 20
4625 14:13:48 h   03.05.2008 100km  Liao, Elijah USA  1972 209 M 149 M35 32
4626 14:13:49 h   07.05.2016 100km  Law, Todd USA  1967 186 M 155 M45 28
4627 14:13:50 h   06.05.2017 100km  Kennah, Morgan CAN  1982 177 F 34 W35 11
4628 14:13:50 h   04.05.2019 100km  Gothelf, Adam USA  1980 160 M 125 M35 35
4629 14:13:57 h   05.05.2012 100km  Truscott, Elke USA  1964 133 F 26 W45 2
4630 14:14:00 h   02.05.2015 100km  Beesing, Drew USA  1981 184 M 144 M30 26
4631 14:14:00 h   02.05.2015 100km  Itano, Stephen USA  1959 185 M 144 M55 6
4632 14:14:00 h   02.05.2015 100km  Zeier, John USA  1952 186 M 144 M60 2
4633 14:14:01 h   07.05.2022 100km  Lancaster, Robert USA  1967 129 M 99 M55 5
4634 14:14:06 h   05.05.2007 100km  Hanke, Karen USA  1962 144 F 40 W45 11
4635 14:14:07 h   05.05.1996 100km  Curtis, Margaret USA  1940 44 F 7 W55 1
4636 14:14:09 h   07.05.2022 100km  Denson, Marco USA  1965 130 M 100 M55 6
4637 14:14:14 h   07.05.2022 100km  Tran, Nhut USA  1981 131 M 101 M40 20
4638 14:14:15 h   01.05.1999 100km  Harmer, Burgess USA  1942 99 M 70 M55 7
4639 14:14:23 h   07.05.2011 100km  Cheng, Jack USA  1971 217 M 169 M40 44
4640 14:14:26 h   30.04.2005 100km  Elkassed, Farouk USA  1949 181 M 133 M55 15
4641 14:14:33 h   03.05.2025 100km  Brink, Mason USA  1990 170 M 128 M35 24
4642 14:14:38 h   07.05.2016 100km  Christianson, Katie USA  1970 187 F 32 W45 8
4643 14:14:39 h   07.05.2016 100km  Crispino, Anne USA  1957 188 F 33 W55 2
4644 14:14:39 h   07.05.2022 100km  Bush, Lorena USA  1978 132 F 31 W40 9
4645 14:14:43 h   06.05.2017 100km  Wehrheim, Joe USA  1971 178 M 144 M45 25
4646 14:14:47 h   07.05.2016 100km  McGrath, Heather USA  1975 189 F 34 W40 8
4647 14:14:48 h   03.05.2014 100km  Hays, Christopher USA  1972 200 M 163 M40 40
4648 14:14:50 h   04.05.2024 100km  Klotzbach, Kris USA  1979 126 F 25 W45 2
4649 14:14:52 h   02.05.2026 100km  Krack, Bradley USA  1980 221 M 156 M45 24
4650 14:14:55 h   07.05.2011 100km  Alavi, David USA  1962 218 M 170 M45 31
4651 14:14:58 h   03.05.2014 100km  Kernasovskiy, Sarah USA  1986 201 F 38 W20 3
4652 14:14:58 h   03.05.2014 100km  Kernasovskiy, Dmitriy USA  1983 202 M 164 M30 28
4653 14:14:59 h   02.05.2009 100km  Koshida, Hideyoshi JPN  1973 186 M 136 M35 24
4654 14:15:00 h   02.05.2015 100km  Ronces, Bethy USA  1964 187 F 41 W50 4
4655 14:15:00 h   06.05.2023 100km  Hamilton, Paula USA  1962 162 F 47 W60 1
4656 14:15:00 h   06.05.2023 100km  Williams, Hank USA  1979 163 M 116 M40 21
4657 14:15:00 h   06.05.2023 100km  Young, Richard USA  1965 164 M 116 M55 7
4658 14:15:00 h   06.05.2023 100km  Kupfer, Lindsey USA  1987 165 F 47 W35 9
4659 14:15:09 h   05.05.2012 100km  Ramey, Cameron USA  1987 134 M 108 M20 9
4660 14:15:15 h   01.05.2004 100km  Bennett, William USA  1950 152 M 117 M50 22
4661 14:15:18 h   04.05.2024 100km  Coli, Madeleine USA  2000 127 F 26 W20 7
4662 14:15:21 h   07.05.2022 100km  Kawai, Tatsuya JPN  1976 133 M 102 M45 20
4663 14:15:23 h   03.05.2008 100km  Johnson, Peter USA  1971 210 M 150 M35 33
4664 14:15:24 h   06.05.2017 100km  Pancake, Mark USA  1971 179 M 145 M45 26
4665 14:15:26 h   03.05.2008 100km  Spain, Laura USA  1967 211 F 61 W40 17
4666 14:15:27 h   07.05.2022 100km  Diaz, Anabela USA  1978 134 F 32 W40 10
4667 14:15:32 h   01.05.2004 100km  Modic, Deanna USA  1970 153 F 36 W30 3
4668 14:15:32 h   01.05.2004 100km  Douglas, Steven USA  1965 154 M 118 M35 12
4669 14:15:38 h   07.05.2022 100km  Toben, Tim USA  1958 135 M 103 M60 3
4670 14:15:53 h   05.05.2018 100km  Carata, Cristian USA  1959 179 M 145 M55 7
4671 14:15:54 h   03.05.2025 100km  Stewart, Andrew USA  1982 171 M 129 M40 32
4672 14:15:55 h   01.05.2010 100km  Pardue, Nettie USA  1975 200 F 53 W35 17
4673 14:15:56 h   01.05.2010 100km  Velo, Erin USA  1982 201 F 54 W20 7
4674 14:16:00 h   02.05.2015 100km  Drewell, Robert USA  1973 188 M 147 M40 25
4675 14:16:00 h   02.05.2015 100km  Gao, Wei USA  1975 189 M 147 M40 25
4676 14:16:00 h   02.05.2015 100km  Zerbe, John USA  1968 190 M 147 M45 28
4677 14:16:00 h   07.05.2016 100km  Nassi, Mark USA  1967 190 M 156 M45 29
4678 14:16:00 h   06.05.2023 100km  Ren, Xiaoxia USA  1975 166 F 49 W45 6
4679 14:16:00 h   06.05.2023 100km  Nazarewicz, Rafal USA  1974 167 M 118 M45 22
4680 14:16:00 h   06.05.2023 100km  Lyon, Edward USA  1980 168 M 118 M40 22
4681 14:16:05 h   03.05.2008 100km  Harju, Roy USA  1968 212 M 151 M40 43
4682 14:16:09 h   03.05.2025 100km  Bowen, Kristin USA  1980 172 F 43 W45 6
4683 14:16:19 h   06.05.2017 100km  Thomas, Laron USA  1982 180 M 146 M35 36
4684 14:16:30 h   03.05.2008 100km  Ross, Sandra USA  1962 213 F 62 W45 18
4685 14:16:38 h   07.05.2016 100km  Royal, Emily USA  1987 191 F 35 W20 3
4686 14:16:44 h   05.05.2007 100km  Bartelheim, Sharon USA  1959 145 F 41 W45 12
4687 14:16:45 h   01.05.1999 100km  Hoodman, Michael USA  1954 100 M 71 M45 15
4688 14:16:45 h   05.05.2012 100km  Lindberg, Gary USA  1968 135 M 109 M40 23
4689 14:16:48 h   05.05.2018 100km  Churchill, Mary USA  1975 180 F 35 W40 10
4690 14:16:50 h   05.05.2018 100km  Bretan, Jonathan USA  1982 181 M 146 M35 29
4691 14:16:51 h   07.05.2016 100km  Nakauchi, Laurie USA  1969 192 F 36 W45 9
4692 14:16:51 h   05.05.2018 100km  Hansen, Richard USA  1972 182 M 147 M45 41
4693 14:16:57 h   05.05.2012 100km  Husted, Dave USA  1969 136 M 110 M40 24
4694 14:17:00 h   02.05.2015 100km  Crispino, Anne USA  1957 191 F 42 W55 3
4695 14:17:03 h   04.05.2024 100km  Pearson, Cale USA  1977 128 M 102 M45 19
4696 14:17:05 h   07.05.2022 100km  Pena, Miguel USA  1971 136 M 104 M50 17
4697 14:17:06 h   03.05.2014 100km  Nassi, Mark USA  1967 203 M 165 M45 41
4698 14:17:08 h   07.05.2022 100km  Pan, Dylan USA  1978 137 M 105 M40 21
4699 14:17:11 h   07.05.2022 100km  Dole, Helen USA  1982 138 F 33 W40 11
4700 14:17:12 h   07.05.2011 100km  Falzarano, Bruce USA  1959 219 M 171 M50 22
4701 14:17:14 h   02.05.2009 100km  Nassi, Mark USA  1967 187 M 137 M40 40
4702 14:17:14 h   02.05.2009 100km  Quarles, Georganna USA  1954 188 F 51 W55 1
4703 14:17:14 h   02.05.2009 100km  Rao, Anil USA  1975 189 M 137 M30 15
4704 14:17:14 h   05.05.2018 100km  Labriet, Marc USA  1982 183 M 148 M35 30
4705 14:17:15 h   05.05.2001 100km  Miller, Martin USA  1952 121 M 90 M45 21
4706 14:17:20 h   04.05.2019 100km  Flanagan, Sean USA  1979 161 M 126 M40 28
4707 14:17:28 h   05.05.2018 100km  Evans-Orville, Keith USA  1968 184 M 149 M50 20
4708 14:17:34 h   05.05.2001 100km  Bartosik, Curtis USA  1965 122 M 91 M35 9
4709 14:17:35 h   05.05.2018 100km  Dasmann, Torrey USA  1975 185 M 150 M40 27
4710 14:17:36 h   05.05.2018 100km  Gardner, Riley USA  1987 186 M 151 M30 17
4711 14:17:39 h   02.05.2026 100km  Plaster, Tracy USA  1974 222 M 157 M50 13
4712 14:17:42 h   06.05.2017 100km  Marsh, Jay USA  1963 181 M 147 M50 23
4713 14:17:48 h   03.05.2008 100km  Davidson, Peggy USA  1956 214 F 63 W50 6
4714 14:17:53 h   06.05.2017 100km  Sipes, William USA  1974 182 M 148 M40 32
4715 14:17:54 h   05.05.2018 100km  Crispino, Anne USA  1957 187 F 36 W60 1
4716 14:17:58 h   03.05.2008 100km  Magnus, Keith USA  1980 215 M 152 M20 4
4717 14:18:00 h   02.05.2015 100km  Krajcar, Zelko SWE  1971 192 M 150 M40 27
4718 14:18:00 h   06.05.2023 100km  Diaz, Anabela USA  1978 169 F 50 W45 7
4719 14:18:01 h   04.05.2002 100km  Sewell, Garry USA  1961 139 M 108 M40 21
4720 14:18:04 h   03.05.2003 100km  Patt, Steven USA  1949 134 M 102 M50 21
4721 14:18:06 h   03.05.2008 100km  Kirby, Keith USA  1964 216 M 153 M40 44
4722 14:18:06 h   03.05.2014 100km  Pinault, Meredith USA  1977 204 F 39 W35 11
4723 14:18:08 h   03.05.2008 100km  Nicolls, Michael USA  1981 217 M 154 M20 5
4724 14:18:10 h   03.05.2025 100km  Callaghan, Blair USA  1990 173 F 44 W35 10
4725 14:18:13 h   03.05.2014 100km  Oropallo, Paul USA  1965 205 M 166 M45 42
4726 14:18:23 h   04.05.2002 100km  Spelt, Sarah USA  1958 140 F 32 W40 9
4727 14:18:31 h   05.05.1996 100km  Hahn, Rebecca USA  1956 45 F 8 W40 2
4728 14:18:32 h   04.05.2019 100km  Atha, Chris USA  1976 162 M 127 M40 29
4729 14:18:38 h   03.05.2025 100km  Honig, Meredith USA  1998 174 F 45 W20 6
4730 14:18:46 h   30.04.2005 100km  Sorensen, Lorraine USA  1950 182 F 49 W55 1
4731 14:18:52 h   05.05.2012 100km  Chitwood, Eric USA  1976 137 M 111 M35 20
4732 14:19:00 h   06.05.2023 100km  Corpuz, Nick USA  1978 170 M 120 M45 23
4733 14:19:07 h   03.05.2003 100km  McFadden, Linda USA  1962 135 F 33 W40 11
4734 14:19:14 h   06.05.2017 100km  Knott, Kelcey USA  1973 183 M 149 M40 33
4735 14:19:24 h   03.05.2014 100km  McQuaid, Shannon USA  1972 206 F 40 W40 9
4736 14:19:25 h   01.05.2010 100km  Everett-Nielsen, Pam USA  1960 202 F 55 W50 7
4737 14:19:28 h   04.05.2019 100km  Cho, Yung-Hae USA  1975 163 F 36 W40 13
4738 14:19:34 h   04.05.2019 100km  Lopez, Tyler USA  1980 164 F 37 W35 8
4739 14:19:34 h   04.05.2019 100km  Olmer, Barbara GER  1975 165 F 37 W40 14
4740 14:19:36 h   03.05.2003 100km  Copelas, Peter USA  1960 136 M 103 M40 23
4741 14:19:37 h   06.05.2006 100km  Mitchell, Joe USA  1960 175 M 126 M45 25
4742 14:19:38 h   07.05.2016 100km  Manies, Ryan USA  1984 193 M 157 M30 25
4743 14:19:39 h   04.05.2019 100km  Kenkre, Baban USA  1976 166 M 128 M40 30
4744 14:19:46 h   05.05.2001 100km  White, Carrie USA  1963 123 F 32 W35 11
4745 14:19:47 h   04.05.2019 100km  Diveronica, Matthew USA  1984 167 M 129 M35 36
4746 14:19:54 h   02.05.1998 100km  Grether, Joann USA  1957 78 F 19 W40 7
4747 14:19:58 h   06.05.2006 100km  Goh, Cindy USA  1962 176 F 50 W40 17
4748 14:20:00 h   06.05.2023 100km  Favro, Chris USA  1970 171 M 121 M50 16
4749 14:20:00 h   06.05.2023 100km  Inouye, Meggie USA  1983 172 F 51 W40 12
4750 14:20:00 h   06.05.2023 100km  Graham, Annie USA  1996 173 F 51 W20 6
4751 14:20:00 h   06.05.2023 100km  Corman, Martine USA  1988 174 F 51 W35 10
4752 14:20:06 h   07.05.2022 100km  Zuckerman, Charles USA  1968 139 M 106 M50 18
4753 14:20:08 h   03.05.2014 100km  Schwarzbauer, Alexander USA  1973 207 M 167 M40 41
4754 14:20:13 h   05.05.2012 100km  Brunken, David USA  1965 138 M 112 M45 19
4755 14:20:16 h   06.05.2017 100km  Riddle, Stacie USA  1979 184 F 35 W35 12
4756 14:20:26 h   03.05.2003 100km  Dickinson, Robert USA  1955 137 M 104 M45 25
4757 14:20:30 h   06.05.2017 100km  Woolman, Angie USA  1954 185 F 36 W60 1
4758 14:20:40 h   07.05.2016 100km  Bartsch, Isaac USA  1980 194 M 158 M35 33
4759 14:20:46 h   03.05.2003 100km  Corbett-McNeely, Catra USA  1964 138 F 34 W35 8
4760 14:20:46 h   03.05.2003 100km  McNeely, Ammon USA  1968 139 M 105 M35 10
4761 14:20:48 h   05.05.2018 100km  Downes-Allen, Kay USA  1976 188 F 37 W40 11
4762 14:20:52 h   05.05.2001 100km  Kronkhyte, Robert USA  1956 124 M 92 M45 22
4763 14:20:54 h   05.05.2001 100km  Gallagher, Thomas USA  1957 125 M 93 M40 17
4764 14:20:59 h   02.05.2026 100km  Diaz, Anabela USA  1978 223 F 66 W45 8
4765 14:21:00 h   06.05.2023 100km  Talukdar, Bipul USA  1974 175 M 122 M45 24
4766 14:21:00 h   06.05.2023 100km  Boutte, Jeff USA  1962 176 M 122 M60 2
4767 14:21:01 h   03.05.2008 100km  Heinselman, Craig USA  1957 218 M 155 M50 16
4768 14:21:02 h   05.05.2001 100km  Nowakowski, Joe USA  1953 126 M 94 M45 23
4769 14:21:02 h   05.05.2012 100km  Yu, Haiming USA  1970 139 M 113 M40 25
4770 14:21:02 h   03.05.2014 100km  Peoples, Michael USA  1963 208 M 168 M50 12
4771 14:21:04 h   03.05.2025 100km  Erickson, Anne USA  1987 175 F 46 W35 11
4772 14:21:07 h   06.05.2017 100km  Meadows, Troy USA  1980 186 M 150 M35 37
4773 14:21:08 h   07.05.2016 100km  Tomita, Brian USA  1974 195 M 159 M40 34
4774 14:21:10 h   05.05.1996 100km  Davis, Robert USA  1950 46 M 38 M45 11
4775 14:21:10 h   07.05.2016 100km  Andersen, Ashley USA  1983 196 F 37 W30 5
4776 14:21:11 h   02.05.2026 100km  Veloo, Peter USA  1983 224 M 158 M40 42
4777 14:21:12 h   03.05.2014 100km  Mockler, Gerard USA  1967 209 M 169 M45 43
4778 14:21:13 h   04.05.2019 100km  Mathers Voigt, Nina CAN  1984 168 F 39 W35 9
4779 14:21:18 h   02.05.1998 100km  Scalise, Tina USA  1955 79 F 20 W40 8
4780 14:21:19 h   07.05.2016 100km  Krajcar, Zelko SWE  1971 197 M 160 M45 30
4781 14:21:20 h   05.05.2007 100km  Robertson, Tara USA  1972 146 F 42 W35 3
4782 14:21:20 h   03.05.2014 100km  Graham, Gene USA  1958 210 M 170 M55 5
4783 14:21:26 h   01.05.2010 100km  Ladnier, Dennis USA  1963 203 M 148 M45 26
4784 14:21:28 h   07.05.2022 100km  Stephen, Laura USA  1963 140 F 34 W55 1
4785 14:21:31 h   06.05.2000 100km  LaPlant, Carol USA  1947 122 F 32 W50 5
4786 14:21:31 h   03.05.2003 100km  Johnson, Melanie USA  1954 140 F 35 W45 7
4787 14:21:33 h   04.05.2024 100km  Harary, Alex USA  1980 129 M 103 M40 22
4788 14:21:34 h   02.05.1998 100km  Jensen, Stan USA  1952 80 M 60 M45 17
4789 14:21:34 h   07.05.2022 100km  Mayo, Andrew USA  1981 141 M 107 M40 22
4790 14:21:36 h   01.05.2010 100km  Chavin, Erin USA  1972 204 F 56 W35 18
4791 14:21:38 h   02.05.2026 100km  Ulziisaikhan, Byamba USA  1988 225 M 159 M35 34
4792 14:21:39 h   01.05.2004 100km  Summerhays, Aaron USA  1971 155 M 119 M30 14
4793 14:21:39 h   01.05.2004 100km  Sewell, Garry USA  1961 156 M 119 M40 27
4794 14:21:46 h   01.05.2004 100km  Gillis, Cheri USA  1952 157 F 37 W50 3
4795 14:22:00 h   05.05.2018 100km  Grebosky, Becky USA  1967 189 F 38 W50 5
4796 14:22:00 h   06.05.2023 100km  Beltz, Matthew USA  1983 177 M 124 M40 23
4797 14:22:00 h   06.05.2023 100km  Selby, Shawn USA  1972 178 M 124 M50 17
4798 14:22:02 h   03.05.2008 100km  Covey, Matt USA  1960 219 M 156 M45 27
4799 14:22:02 h   02.05.2026 100km  Corman, Martine USA  1988 226 F 67 W35 22
4800 14:22:03 h   06.05.2017 100km  Sheefel, Sarah USA  1991 187 F 37 W20 4
4801 14:22:05 h   04.05.2024 100km  Embrey, Noah USA  1988 130 M 104 M35 32
4802 14:22:11 h   07.05.2016 100km  Johnson, Meredith USA  1981 198 F 38 W35 7
4803 14:22:20 h   03.05.2003 100km  Pratt, Jerri USA  1964 141 F 36 W35 9
4804 14:22:20 h   03.05.2003 100km  Pratt, Moe USA  1962 142 M 106 M40 24
4805 14:22:32 h   07.05.2011 100km  Spain, Laura USA  1967 220 F 49 W40 12
4806 14:22:35 h   02.05.1998 100km  Liebes, Frederick USA  1946 81 M 61 M50 11
4807 14:22:36 h   04.05.2002 100km  Nowakowski, Joe USA  1953 141 M 109 M45 28
4808 14:22:44 h   04.05.2002 100km  Welker, Max USA  1942 142 M 110 M60 8
4809 14:22:44 h   03.05.2014 100km  Barton-Robbins, Linda CAN  1978 211 F 41 W35 12
4810 14:22:45 h   05.05.2012 100km  Bhansali, Vineer USA  1966 140 M 114 M45 20
4811 14:22:53 h   05.05.2007 100km  Morris, Becky USA  1946 147 F 43 W60 1
4812 14:22:54 h   05.05.2007 100km  Mukai, Donald USA  1948 148 M 105 M55 11
4813 14:22:56 h   06.05.2006 100km  Cross, Stephen USA  1948 177 M 127 M55 9
4814 14:22:58 h   02.05.2009 100km  Swanson, Grant USA  1951 190 M 139 M55 10
4815 14:23:00 h   03.05.2014 100km  Ronces, Bethy USA  1964 212 F 42 W50 5
4816 14:23:00 h   06.05.2023 100km  Kortz, Kim USA  1964 179 F 54 W55 3
4817 14:23:01 h   03.05.2008 100km  Johnston, Jeffery USA  1964 220 M 157 M40 45
4818 14:23:09 h   03.05.2008 100km  Myers, Larry USA  1956 221 M 158 M50 17
4819 14:23:16 h   01.05.2010 100km  Quarles, Georganna USA  1954 205 F 57 W55 1
4820 14:23:17 h   01.05.2004 100km  Sox-Harris, Alex USA  1963 158 M 121 M40 28
4821 14:23:20 h   03.05.2014 100km  Falzarano, Bruce USA  1959 213 M 171 M55 6
4822 14:23:21 h   02.05.2026 100km  Mandarakas, Adrian PAN  2005 227 M 160 M20 18
4823 14:23:22 h   02.05.2009 100km  Scott, Ron CAN  1969 191 M 140 M40 41
4824 14:23:23 h   03.05.2014 100km  McQuire, Kyle USA  1984 214 M 172 M30 29
4825 14:23:24 h   02.05.2026 100km  Mandarakas, Jose PAN  1972 228 M 161 M50 14
4826 14:23:31 h   04.05.2019 100km  Evans-Orville, Keith USA  1968 169 M 130 M50 17
4827 14:23:38 h   02.05.2026 100km  Ranganathan, Vincent USA  1998 229 M 162 M20 19
4828 14:23:40 h   04.05.2024 100km  Art, Bryant USA  1994 131 M 105 M30 17
4829 14:23:51 h   06.05.2017 100km  O'Toole, Shawn CAN  1966 188 M 151 M50 24
4830 14:23:55 h   06.05.2017 100km  Sharoglazova, Maria USA  1981 189 F 38 W35 13
4831 14:23:56 h   06.05.2017 100km  Gaston, Enrique USA  1972 190 M 152 M45 27
4832 14:24:00 h   05.05.2007 100km  Wittman, David USA  1969 149 M 106 M35 25
4833 14:24:00 h   02.05.2015 100km  Montoya, Joey USA  1978 193 M 151 M35 35
4834 14:24:00 h   06.05.2023 100km  Shebert, Rachel USA  1995 180 F 55 W20 7
4835 14:24:08 h   05.05.2018 100km  Espiritu, Bryan USA  1978 190 M 152 M40 28
4836 14:24:09 h   07.05.2011 100km  Llorente, Carlin USA  1976 221 M 172 M35 36
4837 14:24:13 h   05.05.2018 100km  Phillipy, Matt USA  1972 191 M 153 M45 42
4838 14:24:14 h   01.05.2010 100km  Klang, Steve USA  1967 206 M 149 M40 27
4839 14:24:14 h   07.05.2016 100km  Christopher, C.H. USA  1974 199 M 161 M40 35
4840 14:24:17 h   04.05.2002 100km  Jensen, Roger USA  1959 143 M 111 M40 22
4841 14:24:18 h   04.05.2024 100km  Slagle, Jerad USA  1984 132 M 106 M40 23
4842 14:24:20 h   02.05.2026 100km  Langermann, Daniel USA  1988 230 M 163 M35 35
4843 14:24:26 h   06.05.2000 100km  Relyea, Noel USA  1945 123 F 33 W55 1
4844 14:24:28 h   03.05.2014 100km  Kuwaye, Scot USA  1964 215 M 173 M50 13
4845 14:24:30 h   03.05.2014 100km  Menacher, Matthew USA  1977 216 M 174 M35 29
4846 14:24:41 h   02.05.2026 100km  Philip, Ashic USA  1985 231 M 164 M40 43
4847 14:24:51 h   06.05.2017 100km  Kovach, Shalini USA  1976 191 F 39 W40 8
4848 14:24:53 h   07.05.2022 100km  Kenkre, Baban USA  1976 142 M 108 M45 21
4849 14:24:57 h   30.04.2005 100km  Stevenson, Jeff USA  1945 183 M 134 M60 5
4850 14:25:00 h   02.05.2015 100km  Dempsey, Stephanie USA  1976 194 F 43 W35 11
4851 14:25:00 h   02.05.2015 100km  Hall, Terry USA  1977 195 M 152 M35 36
4852 14:25:00 h   02.05.2015 100km  Vosburg, Scott USA  1969 196 M 152 M45 29
4853 14:25:00 h   06.05.2023 100km  Miller, Kelly USA  1971 181 F 56 W50 5
4854 14:25:00 h   06.05.2023 100km  Cho, Yung-Hae USA  1975 182 F 56 W45 8
4855 14:25:00 h   06.05.2023 100km  Zhang, Qiang CHN  1978 183 M 126 M45 25
4856 14:25:00 h   06.05.2023 100km  Macias, Jose USA  1977 184 M 126 M45 25
4857 14:25:01 h   04.05.2024 100km  Chittenden, Cy USA  2001 133 M 107 M20 4
4858 14:25:09 h   01.05.2010 100km  Welch, Kathy USA  1953 207 F 58 W55 2
4859 14:25:10 h   01.05.1999 100km  Looney, Earl USA  1948 101 M 72 M50 14
4860 14:25:11 h   04.05.2024 100km  Danaher, Sean USA  1990 134 M 108 M30 18
4861 14:25:12 h   03.05.2014 100km  Greuel, Steven USA  1956 217 M 175 M55 7
4862 14:25:21 h   01.05.1999 100km  Fisher, Barry USA  1944 102 M 73 M55 8
4863 14:25:21 h   01.05.1999 100km  Hall, Chris USA  1969 103 M 73 M30 10
4864 14:25:26 h   03.05.2008 100km  Bartelheim, Sharon USA  1959 222 F 64 W45 19
4865 14:25:26 h   03.05.2008 100km  Curley, Dennis USA  1956 223 M 159 M50 18
4866 14:25:28 h   07.05.2011 100km  Martinez, Julian USA  1962 222 M 173 M45 32
4867 14:25:30 h   03.05.2025 100km  Wolfe, Chris USA  1982 176 M 130 M40 33
4868 14:25:31 h   06.05.2006 100km  Martinez, Julian USA  1962 178 M 128 M40 28
4869 14:25:33 h   07.05.2022 100km  Eklof, Klas USA  1971 143 M 109 M50 19
4870 14:25:39 h   07.05.2011 100km  Soriano, Franco USA  1971 223 M 174 M40 45
4871 14:25:39 h   30.04.2005 100km  Savage, Charles USA  1947 184 M 135 M55 16
4872 14:25:39 h   05.05.2012 100km  Pintar, Ryan USA  1981 141 M 115 M30 27
4873 14:25:42 h   07.05.2016 100km  Robles, Valdemar USA  1991 200 M 162 M20 10
4874 14:25:43 h   07.05.2016 100km  Molakides, Mike USA  1969 201 M 163 M45 31
4875 14:25:44 h   03.05.2008 100km  Moret, Kirt USA  1954 224 M 160 M50 19
4876 14:25:50 h   06.05.2017 100km  Karr, Paul USA  1963 192 M 153 M50 25
4877 14:25:55 h   03.05.2014 100km  Borowsky, Alexander USA  1967 218 M 176 M45 44
4878 14:25:57 h   03.05.2003 100km  O'Brien, Chris USA  1963 143 M 107 M40 25
4879 14:25:57 h   03.05.2003 100km  Demoney, Lisa USA  1964 144 F 37 W35 10
4880 14:25:57 h   30.04.2005 100km  Draxler, Leon USA  1942 185 M 136 M60 6
4881 14:25:57 h   30.04.2005 100km  Loomis, Cheryl USA  1947 186 F 50 W55 2
4882 14:26:00 h   02.05.2015 100km  Bailey, Christopher USA  1964 197 M 154 M50 20
4883 14:26:00 h   04.05.2019 100km  Stark, Kimberley CAN  1973 170 F 40 W45 8
4884 14:26:02 h   07.05.2016 100km  Pufall, Matthew USA  1983 202 M 164 M30 26
4885 14:26:03 h   01.05.1999 100km  Gillis, Cheri USA  1952 104 F 30 W45 8
4886 14:26:08 h   05.05.2007 100km  McIntosh, Jim USA  1952 150 M 107 M55 12
4887 14:26:08 h   05.05.2001 100km  Engelke, Ellen USA  1957 127 F 33 W40 7
4888 14:26:25 h   03.05.2014 100km  Liu, Henry USA  1975 219 M 177 M35 30
4889 14:26:26 h   05.05.2007 100km  Ross, Sandra USA  1962 151 F 44 W45 13
4890 14:26:26 h   04.05.2019 100km  Ha, Tommy USA  1985 171 M 131 M30 17
4891 14:26:30 h   03.05.2025 100km  Turner, Tanya USA  1989 177 F 47 W35 12
4892 14:26:34 h   04.05.2002 100km  Plotkin, Oscar USA  1953 144 M 112 M45 29
4893 14:26:35 h   07.05.2011 100km  Lieberman, John USA  1970 224 M 175 M40 46
4894 14:26:36 h   05.05.2007 100km  Kratochvil, Charles USA  1953 152 M 108 M50 15
4895 14:26:37 h   05.05.2018 100km  Lambert, Graham USA  1967 192 M 154 M50 21
4896 14:26:40 h   04.05.2002 100km  Gnass, Jon USA  1955 145 M 113 M45 30
4897 14:26:40 h   04.05.2002 100km  Gnass, Karen USA  1962 146 F 33 W40 10
4898 14:26:40 h   03.05.2014 100km  Tateno, Hisayuki JPN  1971 220 M 178 M40 42
4899 14:26:41 h   03.05.2014 100km  Bounds, Barry USA  1968 221 M 179 M45 45
4900 14:26:47 h   04.05.2002 100km  Pohl, Buddy USA  1971 147 M 114 M30 11
4901 14:26:48 h   01.05.2010 100km  Benton, Katelyn USA  1986 208 F 59 W20 8
4902 14:26:49 h   04.05.2002 100km  Young, Jim USA  1941 148 M 115 M60 9
4903 14:26:49 h   06.05.2017 100km  King, Eric USA  1967 193 M 154 M50 26
4904 14:26:50 h   04.05.2019 100km  Gonzalez Gayosso, Milton MEX  1974 172 M 132 M45 19
4905 14:26:51 h   02.05.1998 100km  Relyea, Noel USA  1945 82 F 21 W50 3
4906 14:26:52 h   06.05.2017 100km  Fillari, Antonio USA  1963 194 M 155 M50 27
4907 14:26:55 h   02.05.2026 100km  Mathews, Cameron USA  1981 232 M 165 M45 25
4908 14:26:58 h   06.05.2017 100km  Magley, Lisa USA  1976 195 F 40 W40 9
4909 14:27:00 h   02.05.2015 100km  Chan, Jason USA  1976 198 M 155 M35 37
4910 14:27:00 h   02.05.2015 100km  Fujisawa, Veronica USA  1970 199 F 44 W45 7
4911 14:27:00 h   02.05.2015 100km  Newton, Jeff USA  1970 200 M 155 M45 30
4912 14:27:00 h   02.05.2015 100km  Okinishi, Henri USA  1977 201 M 155 M35 37
4913 14:27:00 h   02.05.2015 100km  Snow, Jan CAN  1959 202 F 44 W55 4
4914 14:27:01 h   05.05.2018 100km  Underwood, Tyson USA  1986 193 M 155 M30 18
4915 14:27:11 h   05.05.2007 100km  Dewees, Linda USA  1956 153 F 45 W50 3
4916 14:27:12 h   03.05.2014 100km  Lewis, Loren USA  1972 222 M 180 M40 43
4917 14:27:17 h   07.05.2022 100km  Martin, Shannon USA  1967 144 F 35 W55 2
4918 14:27:18 h   02.05.1998 100km  Riemer, Frederick USA  1947 83 M 62 M50 12
4919 14:27:20 h   03.05.2014 100km  Dahl, Tracy USA  1979 223 F 43 W35 13
4920 14:27:22 h   03.05.2014 100km  Anderson, Megan USA  1979 224 F 44 W35 14
4921 14:27:33 h   03.05.2008 100km  Gaines, Brian USA  1972 225 M 161 M35 34
4922 14:27:33 h   05.05.2012 100km  Devlyn, Lorena USA  1972 142 F 27 W40 3
4923 14:27:45 h   05.05.2007 100km  Klang, Steve USA  1967 154 M 109 M40 22
4924 14:27:45 h   07.05.2011 100km  Faber, Jeffrey USA  1962 225 M 176 M45 33
4925 14:27:56 h   03.05.2025 100km  King, Lamont USA  1973 178 M 131 M50 11
4926 14:28:00 h   02.05.2015 100km  Clark, Matthew USA  1968 203 M 158 M45 31
4927 14:28:00 h   02.05.2015 100km  Johnson, Meredith USA  1981 204 F 46 W30 7
4928 14:28:00 h   02.05.2015 100km  Vomacka, Glen USA  1975 205 M 158 M40 28
4929 14:28:04 h   04.05.2002 100km  Parks, Terry USA  1956 149 M 116 M45 31
4930 14:28:05 h   01.05.1999 100km  Koren, Patricia USA  1956 105 F 31 W40 8
4931 14:28:05 h   04.05.2002 100km  Harshburger, Dan USA  1947 150 M 117 M55 10
4932 14:28:08 h   03.05.2014 100km  Gates, Jacklyn USA  1982 225 F 45 W30 8
4933 14:28:09 h   02.05.2009 100km  Palmer, Michael USA  1953 192 M 141 M55 11
4934 14:28:09 h   03.05.2014 100km  Doyle, James USA  1969 226 M 181 M45 46
4935 14:28:10 h   05.05.2007 100km  Weiss, Xy (Chrissy) USA  1961 155 F 46 W45 14
4936 14:28:13 h   04.05.2019 100km  Mulinyawe, Josam USA  1977 173 M 133 M40 31
4937 14:28:19 h   05.05.2001 100km  Scannell, Raymond USA  1949 128 M 95 M50 14
4938 14:28:20 h   07.05.2022 100km  Guthrie, Forbes USA  1973 145 M 110 M45 22
4939 14:28:23 h   02.05.2026 100km  Lenahan, Christopher USA  1992 233 M 166 M30 24
4940 14:28:24 h   07.05.2022 100km  Pinola, Michael USA  1976 146 M 111 M45 23
4941 14:28:26 h   02.05.2026 100km  Shin, Phil USA  1970 234 M 167 M55 5
4942 14:28:32 h   07.05.2011 100km  Boyle, Diann USA  1961 226 F 50 W50 6
4943 14:28:37 h   04.05.2019 100km  Rao, Anil USA  1975 174 M 134 M40 32
4944 14:28:40 h   05.05.2018 100km  Kazitov, Maxim BLR  1975 194 M 156 M40 29
4945 14:28:43 h   05.05.2018 100km  Lueders, Eric USA  1983 195 M 157 M35 31
4946 14:28:43 h   07.05.2022 100km  Prado, Daniel USA  1989 147 M 112 M30 14
4947 14:28:51 h   05.05.2018 100km  Doyle, Brad USA  1961 196 M 158 M55 8
4948 14:28:53 h   03.05.1997 100km  Lyons, Chaennon USA  1944 75 F 24 W50 4
4949 14:28:58 h   03.05.1997 100km  Peters, Patrick USA  1945 76 M 52 M50 13
4950 14:28:58 h   04.05.2002 100km  Hanke, Karen USA  1962 151 F 34 W40 11
4951 14:29:00 h   02.05.2015 100km  Hanela, Craig USA  1975 206 M 160 M40 29
4952 14:29:00 h   02.05.2015 100km  Hendell, Tom USA  1975 207 M 160 M40 29
4953 14:29:00 h   02.05.2015 100km  Wittman, Jake USA  1988 208 M 160 M20 9
4954 14:29:00 h   02.05.2015 100km  Wittman, Jeremy USA  1983 209 M 160 M30 27
4955 14:29:00 h   06.05.2023 100km  Peabody, Karen USA  1970 185 F 58 W50 6
4956 14:29:00 h   06.05.2023 100km  Dong, Samantha USA  1978 186 F 58 W45 9
4957 14:29:08 h   04.05.2019 100km  Grund, Martin GER  1982 175 M 135 M35 37
4958 14:29:09 h   03.05.2014 100km  Williams, David USA  1953 227 M 182 M60 3
4959 14:29:18 h   05.05.2001 100km  Bodington, Tia USA  1956 129 F 34 W45 7
4960 14:29:19 h   07.05.2022 100km  Hill, Zach USA  1990 148 M 113 M30 15
4961 14:29:20 h   06.05.2006 100km  Rodgers, Jack USA  1956 179 M 129 M50 16
4962 14:29:22 h   03.05.2014 100km  Bailey, Christopher USA  1964 228 M 183 M50 14
4963 14:29:30 h   05.05.2018 100km  Cole, Jill USA  1970 197 F 39 W45 6
4964 14:29:31 h   05.05.1996 100km  Peters, Pete USA  1945 47 M 39 M50 10
4965 14:29:31 h   03.05.2025 100km  Hernandez, Froilan USA  1975 179 M 132 M50 12
4966 14:29:35 h   07.05.2022 100km  Sakelarios, Alexander USA  1995 149 M 114 M20 6
4967 14:29:42 h   07.05.2022 100km  Eaton, Christopher USA  1983 150 M 115 M35 20
4968 14:29:48 h   06.05.2017 100km  Johnson, Robert USA  1970 196 M 156 M45 28
4969 14:29:48 h   03.05.2025 100km  Haycock, Brady USA  1980 180 F 48 W45 7
4970 14:29:49 h   02.05.2009 100km  Collins-Pulick, Susan USA  1968 193 F 52 W40 10
4971 14:29:52 h   03.05.2003 100km  Nightingill, Les USA  1950 145 M 108 M50 22
4972 14:29:53 h   03.05.2008 100km  Krause, Shawn USA  1979 226 M 162 M20 6
4973 14:29:53 h   04.05.2019 100km  Mukkamala, Himagiri USA  1973 176 M 136 M45 20
4974 14:29:57 h   03.05.2025 100km  Seebass, Brody USA  1998 181 M 133 M20 8
4975 14:30:00 h   02.05.2015 100km  Blakeney, Charles USA  1962 210 M 164 M50 21
4976 14:30:00 h   02.05.2015 100km  Strack, Jonathan USA  1980 211 M 164 M35 39
4977 14:30:01 h   06.05.2017 100km  van Sickle, Heather USA  1983 197 F 41 W30 5
4978 14:30:04 h   03.05.2025 100km  Chen, Gang USA  1985 182 M 134 M40 34
4979 14:30:05 h   03.05.2003 100km  Chapon, Christine USA  1958 146 F 38 W45 8
4980 14:30:09 h   01.05.2010 100km  Gates, Jacklyn USA  1982 209 F 60 W20 9
4981 14:30:12 h   01.05.1999 100km  Apple, Rob USA  1961 106 M 75 M35 10
4982 14:30:14 h   05.05.2001 100km  Lustic, Christian USA  1948 130 M 96 M50 15
4983 14:30:14 h   07.05.2016 100km  Zerbe, John USA  1968 203 M 165 M45 32
4984 14:30:15 h   07.05.2011 100km  Kasiulis, Erick USA  1961 227 M 177 M50 23
4985 14:30:19 h   03.05.2025 100km  Kraus, Alexander USA  1992 183 M 135 M30 37
4986 14:30:23 h   07.05.2016 100km  Gregware, Mark USA  1980 204 M 166 M35 34
4987 14:30:26 h   02.05.1998 100km  Girault, Henri FRA  1936 84 M 63 M60 3
4988 14:30:26 h   04.05.2024 100km  Takahashi, Nobuya USA  1981 135 M 109 M40 24
4989 14:30:29 h   30.04.2005 100km  Morris, Becky USA  1946 187 F 51 W55 3
4990 14:30:35 h   03.05.2003 100km  Dixon-Johnson, Diane USA  1952 147 F 39 W50 4
4991 14:30:40 h   02.05.2009 100km  Jones, Charley USA  1971 194 M 142 M35 25
4992 14:30:41 h   03.05.2025 100km  Boutte, Jeff USA  1962 184 M 136 M60 5
4993 14:30:43 h   04.05.2024 100km  Kraft, Jacquelyn USA  1984 136 F 27 W40 7
4994 14:30:46 h   06.05.2006 100km  Sanders, Stephen USA  1965 180 M 130 M40 29
4995 14:30:54 h   03.05.2008 100km  Robertson, Tara USA  1972 227 F 65 W35 11
4996 14:30:55 h   04.05.2024 100km  Quinn, Edward USA  1983 137 M 110 M40 25
4997 14:31:00 h   01.05.2004 100km  Bryant, Patty USA  1959 159 F 38 W45 9
4998 14:31:00 h   01.05.2004 100km  Wieneke, Markus USA  1951 160 M 122 M50 23
4999 14:31:00 h   02.05.2015 100km  Couteau, Pierre-Yves USA  1966 212 M 166 M45 32
5000 14:31:00 h   02.05.2015 100km  Yu, Emily USA  1978 213 F 47 W35 12
5001 14:31:00 h   06.05.2023 100km  Powers, Philip USA  1984 187 M 128 M35 23
5002 14:31:02 h   06.05.2017 100km  Clark, Matthew USA  1968 198 M 157 M45 29
5003 14:31:11 h   03.05.2008 100km  Barton-Robbins, Linda CAN  1978 228 F 66 W30 8
5004 14:31:11 h   03.05.2008 100km  Donnelly, William USA  1950 229 M 163 M55 10
5005 14:31:12 h   02.05.2009 100km  Denison, David USA  1961 195 M 143 M45 27
5006 14:31:21 h   05.05.2001 100km  Yarnall, Lynn USA  1950 131 F 35 W50 5
5007 14:31:22 h   07.05.2016 100km  Hall, Terry USA  1977 205 M 167 M35 35
5008 14:31:26 h   30.04.2005 100km  Wilkinson, Kimberly USA  1959 188 F 52 W45 11
5009 14:31:34 h   06.05.2000 100km  Bramer, Julia USA  1964 124 F 34 W35 7
5010 14:31:53 h   02.05.2009 100km  Squires, Roger USA  1961 196 M 144 M45 28
5011 14:31:55 h   02.05.2026 100km  Mueller, Geoffrey USA  1971 235 M 168 M55 6
5012 14:31:59 h   02.05.2009 100km  Curley, Dennis USA  1956 197 M 145 M50 17
5013 14:31:59 h   02.05.2009 100km  Dickinson, Robert USA  1955 198 M 145 M50 17
5014 14:32:00 h   03.05.2014 100km  Mitchell, Andrew USA  1967 229 M 184 M45 47
5015 14:32:00 h   02.05.2015 100km  Cardenas, Suzanne USA  1975 214 F 48 W40 8
5016 14:32:00 h   06.05.2023 100km  Glass, Daniel USA  1970 188 M 129 M50 18
5017 14:32:00 h   06.05.2023 100km  Lebruto, Jonathan USA  1980 189 M 129 M40 24
5018 14:32:00 h   06.05.2023 100km  Bower, Erica USA  1993 190 F 60 W30 11
5019 14:32:00 h   06.05.2023 100km  Ankonina, Roni USA  1966 191 M 129 M55 8
5020 14:32:00 h   06.05.2023 100km  Castro, Andrea USA  1985 192 F 60 W35 11
5021 14:32:00 h   06.05.2023 100km  Song, Beatrice USA  1961 193 F 60 W60 2
5022 14:32:01 h   04.05.2019 100km  Newport-Berra, Mchale USA  1979 177 F 41 W40 15
5023 14:32:06 h   04.05.2019 100km  Thomsen, Scott USA  1980 178 M 137 M35 38
5024 14:32:06 h   07.05.2022 100km  Finn, Charles USA  1972 151 M 116 M50 20
5025 14:32:07 h   03.05.2014 100km  Lake, Rodney USA  1972 230 M 185 M40 44
5026 14:32:08 h   05.05.2018 100km  Weston, Michael USA  1960 198 M 159 M55 9
5027 14:32:10 h   06.05.2000 100km  China, Richard USA  1956 125 M 91 M40 20
5028 14:32:10 h   05.05.2018 100km  Martin, Bob USA  1964 199 M 160 M50 22
5029 14:32:12 h   01.05.2004 100km  Hoffmann, Lori USA  1957 161 F 39 W45 10
5030 14:32:12 h   03.05.2014 100km  Andersen, Thomas USA  1963 231 M 186 M50 15
5031 14:32:14 h   04.05.2002 100km  Moser, Michael USA  1943 152 M 118 M55 11
5032 14:32:14 h   07.05.2022 100km  Farnsworth, Samuel USA  1960 152 M 117 M60 4
5033 14:32:21 h   02.05.2009 100km  Carluccio, Judy USA  1966 199 F 53 W40 11
5034 14:32:21 h   02.05.2009 100km  Dewald, Stephen USA  1968 200 M 147 M40 42
5035 14:32:25 h   04.05.2002 100km  Gosney, Eldrith USA  1941 153 F 35 W60 1
5036 14:32:27 h   03.05.2025 100km  de Witt, Garrett USA  1987 185 M 137 M35 25
5037 14:32:29 h   05.05.2018 100km  Emis, Jon USA  1981 200 M 161 M35 32
5038 14:32:31 h   03.05.2003 100km  Werner, Lynne USA  1951 148 F 40 W50 5
5039 14:32:38 h   07.05.2022 100km  Lavender Smith, Sarah USA  1969 153 F 36 W50 4
5040 14:32:43 h   07.05.2022 100km  Ankonina, Roni USA  1966 154 M 118 M55 7
5041 14:32:44 h   01.05.2010 100km  Paquin, Deborah USA  1959 210 F 61 W50 8
5042 14:32:44 h   04.05.2024 100km  Haislip, Kris USA  1972 138 M 111 M50 5
5043 14:32:54 h   03.05.2025 100km  Church, Maura USA  1991 186 F 49 W30 11
5044 14:33:00 h   06.05.2023 100km  Pan, Dylan USA  1978 194 M 132 M45 27
5045 14:33:01 h   05.05.2001 100km  O'Neil, Jim USA  1948 132 M 97 M50 16
5046 14:33:10 h   06.05.2006 100km  Haskins, Patricia USA  1971 181 F 51 W35 9
5047 14:33:11 h   03.05.2008 100km  McGraw, Roberta USA  1961 230 F 67 W45 20
5048 14:33:20 h   07.05.2022 100km  Wheeler, Timothy USA  1983 155 M 119 M35 21
5049 14:33:22 h   01.05.2010 100km  Jones, Jeff USA  1954 211 M 150 M55 10
5050 14:33:28 h   05.05.2012 100km  Garcia, Chris USA  1962 143 M 116 M50 9
5051 14:33:28 h   07.05.2022 100km  Zhang, Qi USA  1974 156 M 120 M45 24
5052 14:33:29 h   05.05.2007 100km  Savage, Charles USA  1947 156 M 110 M60 3
5053 14:33:33 h   30.04.2005 100km  Carroll, Patricia USA  1949 189 F 53 W55 4
5054 14:33:33 h   30.04.2005 100km  Garcia, Michael USA  1947 190 M 137 M55 17
5055 14:33:34 h   01.05.2010 100km  Workman, Allison USA  1973 212 F 62 W35 19
5056 14:33:34 h   05.05.2018 100km  Heer, Tony USA  1971 201 M 162 M45 43
5057 14:33:35 h   01.05.2010 100km  Williams, Brenda CAN  1964 213 F 63 W45 9
5058 14:33:35 h   06.05.2017 100km  Cheechov, Ron USA  1965 199 M 158 M50 28
5059 14:33:37 h   05.05.2007 100km  McFadden, Linda USA  1962 157 F 47 W45 15
5060 14:33:38 h   03.05.2014 100km  Gieng, John USA  1979 232 M 187 M35 31
5061 14:33:39 h   03.05.2014 100km  Flanagan, Jerry USA  1965 233 M 188 M45 48
5062 14:33:47 h   03.05.2025 100km  Leng Lum, Ooi USA  1977 187 F 50 W45 8
5063 14:33:50 h   02.05.2009 100km  Gordon, David USA  1946 201 M 148 M60 4
5064 14:33:50 h   05.05.2012 100km  Deibler, Matt USA  1971 144 M 117 M40 26
5065 14:33:54 h   03.05.2003 100km  Barry, Jim USA  1944 149 M 109 M55 10
5066 14:34:05 h   05.05.2012 100km  Black, Andy USA  1958 145 M 118 M50 10
5067 14:34:05 h   04.05.2019 100km  Turner, Mike USA  1972 179 M 138 M45 21
5068 14:34:06 h   04.05.2002 100km  Berryman-Shafer, Jim USA  1954 154 M 119 M45 32
5069 14:34:08 h   30.04.2005 100km  Cowdrey, Robert USA  1944 191 M 138 M60 7
5070 14:34:11 h   03.05.2025 100km  Shallow, Catherine USA  1983 188 F 51 W40 7
5071 14:34:11 h   03.05.2025 100km  Hansen, Rick USA  1972 189 M 138 M50 13
5072 14:34:13 h   01.05.2004 100km  Ostrom, Stanley USA  1943 162 M 123 M60 8
5073 14:34:18 h   30.04.2005 100km  Morrison, Larry USA  1948 192 M 139 M55 18
5074 14:34:19 h   04.05.2019 100km  Willitts, Jason USA  1971 180 M 139 M45 22
5075 14:34:19 h   03.05.2025 100km  Miller, Sarah USA  1990 190 F 52 W35 13
5076 14:34:25 h   04.05.2019 100km  Anderson, John USA  1971 181 M 140 M45 23
5077 14:34:28 h   03.05.2014 100km  Metcalfe, Mark USA  1969 234 M 189 M45 49
5078 14:34:40 h   06.05.2006 100km  Ainsleigh, Gordon USA  1947 182 M 131 M55 10
5079 14:34:40 h   06.05.2006 100km  Cooper, Lori USA  1975 183 F 52 W30 8
5080 14:34:47 h   06.05.2017 100km  Schwenkenberg, Alexander USA  1979 200 M 159 M35 38
5081 14:34:51 h   01.05.2010 100km  Martin, Scott USA  1961 214 M 151 M45 27
5082 14:34:51 h   06.05.2000 100km  Hillyer, Martin USA  1938 126 M 92 M60 3
5083 14:35:00 h   01.05.2010 100km  Mitchell Sisler, Shawna USA  1979 215 F 64 W30 8
5084 14:35:00 h   02.05.2015 100km  Braninburg, Jody USA  1967 215 M 167 M45 33
5085 14:35:00 h   02.05.2015 100km  Pham, Nam USA  1989 216 M 167 M20 10
5086 14:35:00 h   02.05.2015 100km  Trent, Annie USA  1989 217 F 49 W20 7
5087 14:35:00 h   02.05.2015 100km  Yang, Victor USA  1976 218 M 167 M35 40
5088 14:35:04 h   02.05.1998 100km  Miller, Martin USA  1952 85 M 64 M45 18
5089 14:35:05 h   02.05.2009 100km  Heinselman-Craig, Lori USA  1967 202 F 54 W40 12
5090 14:35:07 h   05.05.1996 100km  Looney, Earl USA  1948 48 M 40 M45 12
5091 14:35:13 h   05.05.2018 100km  Newton, Steven USA  1978 202 M 163 M40 30
5092 14:35:17 h   05.05.2018 100km  Myers, Robert USA  1970 203 M 164 M45 44
5093 14:35:18 h   03.05.2003 100km  Mulvey, Edward USA  1958 150 M 110 M45 26
5094 14:35:21 h   01.05.2004 100km  Hanke, Karen USA  1962 163 F 40 W40 16
5095 14:35:21 h   01.05.2004 100km  Cuminale, Carol USA  1952 164 F 40 W50 4
5096 14:35:22 h   03.05.2008 100km  Leedy, Gail USA  1954 231 F 68 W50 7
5097 14:35:35 h   02.05.2009 100km  Degregory, John USA  1969 203 M 149 M40 43
5098 14:35:35 h   02.05.2009 100km  Thomson, Janet USA  1979 204 F 55 W30 12
5099 14:35:37 h   01.05.2004 100km  Easterbrook, Jon USA  1953 165 M 124 M50 24
5100 14:35:38 h   06.05.2017 100km  Zerbe, John USA  1968 201 M 160 M45 30
5101 14:35:39 h   03.05.2025 100km  Arbuckle, Jefferson USA  1976 191 M 139 M45 13
5102 14:35:44 h   03.05.2003 100km  Gilford, Martha USA  1959 151 F 41 W40 12
5103 14:35:47 h   02.05.2026 100km  Mitchell, Taylor USA  1990 236 M 169 M35 36
5104 14:35:48 h   03.05.2014 100km  Woods, Rachael USA  1974 235 F 46 W40 10
5105 14:35:49 h   07.05.2022 100km  Mourad, Abdullah USA  1984 157 M 121 M35 22
5106 14:35:50 h   02.05.2009 100km  Covarrubias, Rafael USA  1968 205 M 150 M40 44
5107 14:36:00 h   02.05.2015 100km  Haecker, Bill USA  1970 219 M 170 M45 34
5108 14:36:00 h   06.05.2023 100km  Spinosa, Rob USA  1971 195 M 133 M50 19
5109 14:36:00 h   06.05.2023 100km  Gully, Brian USA  1979 196 M 133 M40 25
5110 14:36:08 h   04.05.2024 100km  Norwood, Darrin USA  1990 139 M 112 M30 19
5111 14:36:09 h   04.05.2024 100km  Hill, Nicholas USA  1984 140 M 113 M40 26
5112 14:36:09 h   02.05.2026 100km  Macias, Jose USA  1977 237 M 170 M45 26
5113 14:36:12 h   03.05.2014 100km  Berensmeier, Paul USA  1962 236 M 190 M50 16
5114 14:36:14 h   04.05.2024 100km  Donchak, Lisa USA  1988 141 F 28 W35 5
5115 14:36:15 h   03.05.2008 100km  Degregory, John USA  1969 232 M 164 M35 35
5116 14:36:20 h   03.05.2025 100km  Macias, Jose USA  1977 192 M 140 M45 14
5117 14:36:22 h   05.05.2007 100km  Gosney, Eldrith USA  1941 158 F 48 W65 1
5118 14:36:22 h   05.05.2007 100km  Spelt, Sarah USA  1958 159 F 48 W45 16
5119 14:36:25 h   05.05.2012 100km  Apple, Rob USA  1961 146 M 119 M50 11
5120 14:36:32 h   05.05.2018 100km  Burke, Alison USA  1976 204 F 40 W40 12
5121 14:36:33 h   02.05.1998 100km  Curtis, Margaret USA  1940 86 F 22 W55 2
5122 14:36:35 h   02.05.2026 100km  Choy, Alex USA  1985 238 M 171 M40 44
5123 14:36:37 h   05.05.2018 100km  Sohn, Catherine USA  1975 205 F 41 W40 13
5124 14:36:40 h   04.05.2019 100km  Smith, Amanda USA  1981 182 F 42 W35 10
5125 14:36:43 h   07.05.2011 100km  Vomacka, Glen USA  1975 228 M 178 M35 37
5126 14:36:52 h   04.05.2019 100km  Grenier, Francois FRA  1981 183 M 141 M35 39
5127 14:36:52 h   04.05.2019 100km  Owensby, Amanda USA  1995 184 F 43 W20 3
5128 14:36:53 h   02.05.2009 100km  Corbett-McNeely, Catra USA  1964 206 F 56 W45 15
5129 14:36:53 h   04.05.2019 100km  Schultz, Amanda CAN  1980 185 F 44 W35 11
5130 14:36:54 h   07.05.2022 100km  Cheechov, Ron USA  1965 158 M 122 M55 8
5131 14:36:57 h   01.05.2004 100km  Stone, Paul USA  1961 166 M 125 M40 29
5132 14:37:00 h   03.05.2008 100km  Cole, Thomas USA  1960 233 M 165 M45 28
5133 14:37:00 h   05.05.2012 100km  Kilgore, Anne USA  1956 147 F 28 W55 1
5134 14:37:00 h   02.05.2015 100km  Sutcliffe, Kelly USA  1982 220 F 50 W30 8
5135 14:37:00 h   07.05.2022 100km  Garner, Liz USA  1982 159 F 37 W40 12
5136 14:37:02 h   07.05.2016 100km  Strasen, Martin USA  1967 206 M 168 M45 33
5137 14:37:03 h   01.05.2010 100km  Hernandez, Marla USA  1973 216 F 65 W35 20
5138 14:37:04 h   03.05.2014 100km  Soriano, Franco USA  1971 237 M 191 M40 45
5139 14:37:06 h   07.05.2016 100km  Morris, Heather USA  1974 207 F 39 W40 9
5140 14:37:09 h   04.05.2002 100km  Brownson, Christina USA  1950 155 F 36 W50 5
5141 14:37:14 h   03.05.2014 100km  Maldonado, E.J. USA  1974 238 M 192 M40 46
5142 14:37:21 h   02.05.2009 100km  Martinez, Julian USA  1962 207 M 151 M45 29
5143 14:37:23 h   07.05.2022 100km  Rao, Anil USA  1975 160 M 123 M45 25
5144 14:37:23 h   03.05.2025 100km  Watson, Lauren USA  1985 193 F 53 W40 8
5145 14:37:29 h   05.05.2007 100km  Higgins, Buzz USA  1944 160 M 111 M60 4
5146 14:37:42 h   06.05.2017 100km  Totaan, Peter USA  1973 202 M 161 M40 34
5147 14:37:47 h   05.05.2001 100km  Dennis, Peggy USA  1960 133 F 36 W40 8
5148 14:37:53 h   03.05.2008 100km  Layson, Carmela USA  1969 234 F 69 W35 12
5149 14:37:56 h   04.05.2024 100km  Hall, Kara USA  1993 142 F 29 W30 8
5150 14:37:59 h   02.05.2026 100km  Kaven, Andrew USA  1980 239 M 172 M45 27
5151 14:38:00 h   02.05.2015 100km  Ward-Waller, Jeanie USA  1982 221 F 51 W30 9
5152 14:38:00 h   06.05.2023 100km  Yin, Lola CHN  1988 197 F 63 W35 12
5153 14:38:00 h   06.05.2023 100km  Freeman, Molly USA  1976 198 F 63 W45 10
5154 14:38:00 h   06.05.2023 100km  Cannon, Jeffrey USA  1959 199 M 135 M60 3
5155 14:38:01 h   03.05.1997 100km  Chandonia, Charles USA  1941 77 M 53 M55 2
5156 14:38:04 h   07.05.2022 100km  Barkan, William USA  1983 161 M 124 M35 23
5157 14:38:05 h   03.05.1997 100km  Salmonson, P.J. USA  1947 78 F 25 W50 5
5158 14:38:06 h   02.05.2026 100km  Perez Martinez, Rebeca USA  1992 240 F 68 W30 18
5159 14:38:07 h   03.05.2014 100km  Cardenas, Suzanne USA  1975 239 F 47 W35 15
5160 14:38:08 h   03.05.2014 100km  Banaszak, Nicholas USA  1986 240 M 193 M20 12
5161 14:38:10 h   06.05.2017 100km  Kuperstein, Char USA  1982 203 F 42 W35 14
5162 14:38:12 h   06.05.2000 100km  McNamara, Diane USA  1953 127 F 35 W45 6
5163 14:38:15 h   03.05.2014 100km  Huddleston, Rod USA  1958 241 M 194 M55 8
5164 14:38:17 h   02.05.2026 100km  McBride, Graham USA  1980 241 M 173 M45 28
5165 14:38:22 h   02.05.1998 100km  O'Grady, Janice USA  1948 87 F 23 W50 4
5166 14:38:30 h   06.05.2006 100km  Lercari, William USA  1952 184 M 132 M50 17
5167 14:38:34 h   05.05.1996 100km  Elia, Barbara USA  1944 49 F 9 W50 3
5168 14:38:34 h   05.05.1996 100km  Burgess, Todd USA  1969 50 M 41 M20 4
5169 14:38:34 h   04.05.2024 100km  Heycke, Torsten USA  1958 143 M 114 M65 1
5170 14:38:35 h   05.05.2018 100km  McGill, Gretchen USA  1963 206 F 42 W55 2
5171 14:38:39 h   06.05.2017 100km  Miller, Michael USA  1962 204 M 162 M55 6
5172 14:39:00 h   06.05.2023 100km  Newman, Dan USA  1968 200 M 136 M55 9
5173 14:39:00 h   06.05.2023 100km  Wardian, Mariele USA  1983 201 F 65 W40 13
5174 14:39:00 h   06.05.2023 100km  Acer, Mike USA  1961 202 M 136 M60 4
5175 14:39:00 h   06.05.2023 100km  Klingman, Alana USA  1982 203 F 65 W40 13
5176 14:39:00 h   06.05.2023 100km  Knight, Donald USA  1981 204 M 136 M40 26
5177 14:39:01 h   06.05.2000 100km  Murphy, Bonnelle USA  1947 128 F 36 W50 6
5178 14:39:01 h   04.05.2019 100km  Burgmann, Roland USA  1963 186 M 142 M55 5
5179 14:39:04 h   07.05.2016 100km  Steele, Tim USA  1962 208 M 169 M50 21
5180 14:39:09 h   07.05.2016 100km  Weston, Michael USA  1960 209 M 170 M55 8
5181 14:39:12 h   07.05.2022 100km  Grant, Sean USA  1986 162 M 125 M35 24
5182 14:39:14 h   07.05.2016 100km  Kuperstein, Char USA  1982 210 F 40 W30 6
5183 14:39:18 h   07.05.2022 100km  Yaeger, Patrick USA  1980 163 M 126 M40 23
5184 14:39:20 h   04.05.2002 100km  Savage, Charles USA  1947 156 M 120 M55 12
5185 14:39:32 h   03.05.2014 100km  Dalal, Satpal USA  1974 242 M 195 M40 47
5186 14:39:34 h   07.05.2016 100km  Engquist, Jonathan USA  1961 211 M 171 M55 9
5187 14:39:35 h   04.05.2002 100km  Eppelman, Kelly USA  1963 157 F 37 W35 10
5188 14:39:40 h   01.05.1999 100km  Price, Kenneth USA  1942 107 M 76 M55 9
5189 14:39:41 h   07.05.2016 100km  Roy, Jack USA  1971 212 M 172 M45 34
5190 14:39:42 h   07.05.2016 100km  Roberts, David USA  1974 213 M 173 M40 36
5191 14:39:42 h   04.05.2019 100km  Marchionni, Kerri USA  1979 187 F 45 W40 16
5192 14:39:53 h   06.05.2017 100km  Selin, Alex USA  1976 205 M 163 M40 35
5193 14:39:55 h   07.05.2022 100km  Mchugh, Peter USA  1977 164 M 127 M45 26
5194 14:39:56 h   04.05.2019 100km  Severino, Anthony USA  1978 188 M 143 M40 33
5195 14:40:00 h   06.05.2017 100km  Gupta, Vishal IND  1978 206 M 164 M35 39
5196 14:40:00 h   06.05.2023 100km  Perricelli, Kimberly USA  1972 205 F 67 W50 7
5197 14:40:02 h   06.05.2017 100km  Karlen, Jon USA  1958 207 M 165 M55 7
5198 14:40:11 h   03.05.1997 100km  Cray, Terry USA  1956 79 F 26 W40 9
5199 14:40:11 h   03.05.1997 100km  Rhodes, John USA  1947 80 M 54 M50 14
5200 14:40:13 h   07.05.2016 100km  Ballesteros, Cesar USA  1984 214 M 174 M30 27
5201 14:40:15 h   04.05.2019 100km  Buchanan, Youa USA  1980 189 F 46 W35 12
5202 14:40:16 h   05.05.2018 100km  Aarsheim, Will USA  1968 207 M 165 M50 23
5203 14:40:21 h   03.05.2008 100km  Brooks, John USA  1962 235 M 166 M45 29
5204 14:40:22 h   04.05.2019 100km  Krotz, Dan USA  1971 190 M 144 M45 24
5205 14:40:26 h   06.05.2000 100km  Curtis, Margaret USA  1940 129 F 37 W60 1
5206 14:40:31 h   01.05.2010 100km  Music, Jennifer USA  1965 217 F 66 W45 10
5207 14:40:31 h   07.05.2022 100km  McMillen, Christian USA  1969 165 M 128 M50 21
5208 14:40:32 h   07.05.2016 100km  Myers, Robert USA  1970 215 M 175 M45 35
5209 14:40:34 h   05.05.2018 100km  Lucas, John USA  1969 208 M 166 M45 45
5210 14:40:39 h   04.05.2019 100km  Merrell, Jeff USA  1967 191 M 145 M50 18
5211 14:40:43 h   02.05.2026 100km  Li, Xu USA  1970 242 M 174 M55 7
5212 14:40:45 h   07.05.2022 100km  Starr, Brian USA  1980 166 M 129 M40 24
5213 14:40:52 h   05.05.2018 100km  Santos de Morais Nogueira, Ana Lucia BRA  1967 209 F 43 W50 6
5214 14:40:53 h   04.05.2019 100km  Spagnol, Remo USA  1977 192 M 146 M40 34
5215 14:40:58 h   05.05.1996 100km  Hanif-Weddle, Famida USA  1953 51 F 10 W40 3
5216 14:41:00 h   04.05.2002 100km  Scannell, Joan USA  1946 158 F 38 W55 2
5217 14:41:00 h   02.05.2015 100km  Sherman, Stuart USA  1976 222 M 171 M35 41
5218 14:41:00 h   06.05.2023 100km  Richard, Laura USA  1969 206 F 68 W50 8
5219 14:41:00 h   06.05.2023 100km  Booth, Debbie USA  1972 207 F 68 W50 8
5220 14:41:08 h   05.05.2012 100km  Peoples, Michael USA  1963 148 M 120 M45 21
5221 14:41:08 h   02.05.2026 100km  Elgin, James USA  1993 243 M 175 M30 25
5222 14:41:08 h   02.05.2026 100km  Jensen, Alexander USA  1988 244 M 175 M35 37
5223 14:41:09 h   02.05.2026 100km  Langdale, Lisa USA  1977 245 F 69 W45 9
5224 14:41:11 h   06.05.2017 100km  Martelli, Steve USA  1968 208 M 166 M45 31
5225 14:41:16 h   07.05.2016 100km  Burgess, Bill USA  1979 216 M 176 M35 36
5226 14:41:17 h   04.05.2024 100km  Shashkina, Alla USA  1983 144 F 30 W40 8
5227 14:41:20 h   01.05.2010 100km  Turney, Judy USA  1967 218 F 67 W40 10
5228 14:41:21 h   04.05.2019 100km  Xiang, Andy USA  1977 193 F 47 W40 17
5229 14:41:22 h   06.05.2006 100km  Siculan, Kathy USA  1957 185 F 53 W45 13
5230 14:41:25 h   06.05.2017 100km  Zulim, John USA  1982 209 M 167 M35 40
5231 14:41:26 h   03.05.2025 100km  Martinez, Brett USA  1984 194 M 141 M40 35
5232 14:41:28 h   06.05.2017 100km  Ronces, Bethy USA  1964 210 F 43 W50 4
5233 14:41:35 h   01.05.2010 100km  Patel, Rajeev USA  1960 219 M 152 M50 20
5234 14:41:35 h   01.05.1999 100km  Dunnells, Patricia USA  1953 108 F 32 W45 9
5235 14:41:37 h   05.05.2012 100km  Wu, Helen USA  1978 149 F 29 W30 8
5236 14:41:39 h   05.05.2012 100km  Pratt, Christopher USA  1978 150 M 121 M30 28
5237 14:41:46 h   03.05.2025 100km  Trieger, Joanna USA  1986 195 F 54 W35 14
5238 14:41:50 h   06.05.2006 100km  Covey, Matt USA  1960 186 M 133 M45 26
5239 14:41:50 h   07.05.2016 100km  Valvano, Joy USA  1962 217 F 41 W50 4
5240 14:41:53 h   04.05.2019 100km  Woolman, Andrew USA  1962 194 M 147 M55 6
5241 14:41:58 h   07.05.2016 100km  Osorio, Oscar USA  1976 218 M 177 M40 37
5242 14:42:00 h   02.05.2015 100km  Weston, Michael USA  1960 223 M 172 M55 7
5243 14:42:00 h   06.05.2023 100km  Mick, Joshua USA  1976 208 M 139 M45 28
5244 14:42:02 h   07.05.2016 100km  Kerr, Michael USA  1962 219 M 178 M50 22
5245 14:42:03 h   02.05.2026 100km  Thorsen, Kevin USA  1994 246 M 177 M30 26
5246 14:42:04 h   03.05.2025 100km  Mar, Damon USA  1984 196 M 142 M40 36
5247 14:42:12 h   03.05.2008 100km  Whitcomb, Lauree USA  1966 236 F 70 W40 18
5248 14:42:22 h   05.05.2018 100km  Stroup, Alexander USA  1974 210 M 167 M40 31
5249 14:42:26 h   07.05.2016 100km  Lackey, Roger USA  1970 220 M 179 M45 36
5250 14:42:29 h   06.05.2017 100km  Hildreth, Brian USA  1970 211 M 168 M45 32
5251 14:42:32 h   04.05.2019 100km  Cross, Lisa USA  1962 195 F 48 W55 1
5252 14:42:32 h   07.05.2022 100km  Gieng, John USA  1979 167 M 130 M40 25
5253 14:42:36 h   07.05.2016 100km  Galyon, Jeremiah USA  1980 221 M 180 M35 37
5254 14:42:37 h   07.05.2016 100km  Antonio, Marites USA  1971 222 F 42 W45 10
5255 14:42:41 h   02.05.2009 100km  Bonnett, Karen USA  1956 208 F 57 W50 4
5256 14:42:45 h   02.05.2009 100km  Griste, Jennifer USA  1963 209 F 58 W45 16
5257 14:42:50 h   07.05.2016 100km  Watson, Todd USA  1970 223 M 181 M45 37
5258 14:43:00 h   02.05.2015 100km  Thomas, Kirk USA  1952 224 M 173 M60 3
5259 14:43:03 h   06.05.2000 100km  Vertrees, Ronald USA  1937 130 M 93 M60 4
5260 14:43:03 h   01.05.2004 100km  Khachadourian, Valerie USA  1961 167 F 42 W40 17
5261 14:43:03 h   04.05.2019 100km  Garcia, Chris USA  1962 196 M 148 M55 7
5262 14:43:04 h   04.05.2024 100km  Ferguson, James USA  1985 145 M 115 M35 33
5263 14:43:08 h   03.05.2025 100km  Kato, Nami USA  1982 197 F 55 W40 9
5264 14:43:12 h   04.05.2024 100km  Arbinger, Kimberly USA  1981 146 F 31 W40 9
5265 14:43:12 h   04.05.2024 100km  Birkel, Brad USA  1978 147 M 116 M45 20
5266 14:43:13 h   07.05.2011 100km  Walker, Marissa USA  1967 229 F 51 W40 13
5267 14:43:21 h   01.05.2004 100km  Felder, Lisa USA  1946 168 F 43 W55 1
5268 14:43:23 h   02.05.2009 100km  Freedman, Aaron USA  1964 210 M 152 M45 30
5269 14:43:39 h   07.05.2022 100km  Poveda, David USA  1981 168 M 131 M40 26
5270 14:43:42 h   07.05.2022 100km  Perez, Yberth USA  1984 169 M 132 M35 25
5271 14:43:43 h   07.05.2022 100km  Daum, Maureen USA  1993 170 F 38 W20 2
5272 14:43:46 h   04.05.2024 100km  Mick, Joshua USA  1976 148 M 117 M45 21
5273 14:43:48 h   03.05.2014 100km  Reynoso, Jesus USA  1965 243 M 196 M45 50
5274 14:43:49 h   01.05.2004 100km  Johnson, Melanie USA  1954 169 F 44 W50 5
5275 14:43:50 h   02.05.1998 100km  Fambrini, Dale USA  1937 88 M 65 M60 4
5276 14:43:51 h   03.05.2025 100km  Tobits, Jennifer USA  1974 198 F 56 W50 6
5277 14:43:57 h   05.05.2007 100km  Lercari, William USA  1952 161 M 112 M55 13
5278 14:43:57 h   05.05.2018 100km  Watson, Lauren USA  1985 211 F 44 W30 8
5279 14:44:00 h   02.05.2015 100km  Bodas, Bryan USA  1968 225 M 174 M45 35
5280 14:44:00 h   02.05.2015 100km  Paulson, Marianne USA  1964 226 F 52 W50 5
5281 14:44:00 h   02.05.2015 100km  Wong, Dale USA  1970 227 M 174 M45 35
5282 14:44:05 h   07.05.2022 100km  van Horn, Hans USA  1983 171 M 133 M35 26
5283 14:44:07 h   04.05.2024 100km  Raby, Harrison USA  1993 149 M 118 M30 20
5284 14:44:08 h   07.05.2016 100km  Murphy, Damien USA  1971 224 M 182 M45 38
5285 14:44:12 h   07.05.2016 100km  Billingslea, Everett USA  1961 225 M 183 M55 10
5286 14:44:17 h   30.04.2005 100km  Cuminale, Carol USA  1952 193 F 54 W50 4
5287 14:44:21 h   30.04.2005 100km  Jebian, Wini USA  1944 194 F 55 W60 1
5288 14:44:28 h   06.05.2017 100km  Marrs, Cara USA  1970 212 F 44 W45 7
5289 14:44:40 h   05.05.2007 100km  Miller, Christine USA  1959 162 F 50 W45 17
5290 14:44:40 h   05.05.2007 100km  Patel, Rajeev USA  1960 163 M 113 M45 21
5291 14:44:41 h   07.05.2016 100km  Provencher, Matt USA  1990 226 M 184 M20 11
5292 14:44:44 h   07.05.2016 100km  Bodas, Bryan USA  1968 227 M 185 M45 39
5293 14:44:44 h   05.05.2018 100km  Dragnea, Ramona USA  1976 212 F 45 W40 14
5294 14:44:45 h   02.05.2009 100km  Connor, Dennis USA  1961 211 M 153 M45 31
5295 14:44:55 h   05.05.2018 100km  Karr, Paul USA  1963 213 M 168 M55 10
5296 14:45:00 h   02.05.2015 100km  Medeiros, Nelson USA  1975 228 M 176 M40 31
5297 14:45:00 h   02.05.2015 100km  Patja, Kevin USA  1975 229 M 176 M40 31
5298 14:45:00 h   02.05.2015 100km  Vaughan, Eric USA  1980 230 M 176 M35 42
5299 14:45:00 h   06.05.2023 100km  Soule, Brendan USA  1985 209 M 140 M35 24
5300 14:45:13 h   01.05.2010 100km  Bodas, Bryan USA  1968 220 M 153 M40 28
5301 14:45:16 h   05.05.2018 100km  Vosburg, Scott USA  1969 214 M 169 M45 46
5302 14:45:17 h   03.05.2008 100km  Barney, Andrew USA  1972 237 M 167 M35 36
5303 14:45:23 h   03.05.2014 100km  Daly, Brian USA  1973 244 M 197 M40 48
5304 14:45:23 h   04.05.2024 100km  Burke, Ron USA  1965 150 M 119 M55 8
5305 14:45:32 h   01.05.2010 100km  McFadden, Linda USA  1962 221 F 68 W45 11
5306 14:45:34 h   05.05.2018 100km  Newport-Berra, Mchale USA  1979 215 F 46 W35 9
5307 14:45:34 h   04.05.2024 100km  Yi, Rongxiang USA  1969 151 F 32 W55 1
5308 14:45:39 h   05.05.2018 100km  Steele, Aaron USA  1977 216 M 170 M40 32
5309 14:45:42 h   06.05.2006 100km  Haymes, Richard USA  1965 187 M 134 M40 30
5310 14:45:42 h   07.05.2011 100km  Choe, Kevin USA  1965 230 M 179 M45 34
5311 14:45:42 h   04.05.2024 100km  Ren, Laurent USA  1988 152 M 120 M35 34
5312 14:45:50 h   06.05.2006 100km  Pollard, Fred USA  1939 188 M 135 M65 1
5313 14:45:50 h   06.05.2006 100km  Johnson, Melanie USA  1954 189 F 54 W50 2
5314 14:45:50 h   06.05.2006 100km  Johnson, Becky USA  1971 190 F 54 W35 10
5315 14:45:50 h   05.05.2018 100km  Cliggett, Mark USA  1962 217 M 171 M55 11
5316 14:45:50 h   05.05.2018 100km  Marshall, Brian USA  1974 218 M 171 M40 33
5317 14:45:51 h   07.05.2011 100km  Stone, Francesca USA  1962 231 F 52 W45 10
5318 14:45:51 h   05.05.2018 100km  Eberle, Carey USA  1974 219 F 47 W40 15
5319 14:45:56 h   03.05.1997 100km  Jebian, Lee USA  1941 81 M 55 M55 3
5320 14:45:59 h   05.05.2007 100km  Walker, Marissa USA  1967 164 F 51 W40 17
5321 14:46:00 h   02.05.2015 100km  Donnell, Jason USA  1972 231 M 179 M40 33
5322 14:46:00 h   02.05.2015 100km  Halter, Jerret USA  1981 232 M 179 M30 28
5323 14:46:00 h   02.05.2015 100km  Pierce, Karen USA  1963 233 F 53 W50 6
5324 14:46:00 h   02.05.2015 100km  Yonek, Julie USA  1969 234 F 53 W45 8
5325 14:46:00 h   06.05.2023 100km  Bisineer, Maya USA  1975 210 F 70 W45 11
5326 14:46:00 h   06.05.2023 100km  Nolan, Breena USA  1981 211 F 70 W40 15
5327 14:46:00 h   06.05.2023 100km  Tobits, Jennifer USA  1974 212 F 70 W45 11
5328 14:46:00 h   06.05.2023 100km  Brandt, Jennifer USA  1988 213 F 70 W35 13
5329 14:46:00 h   06.05.2023 100km  Leung, Steven USA  1990 214 M 141 M30 23
5330 14:46:00 h   06.05.2023 100km  Tung, Young-John USA  1988 215 M 141 M35 25
5331 14:46:00 h   06.05.2023 100km  Star, Alaina USA  1989 216 F 70 W30 12
5332 14:46:00 h   06.05.2023 100km  Herczeg, Jonathan USA  1981 217 M 141 M40 27
5333 14:46:00 h   06.05.2023 100km  Estler, Toby USA  1965 218 M 141 M55 10
5334 14:46:00 h   06.05.2023 100km  Weber-Stover, Justin USA  1975 219 M 141 M45 29
5335 14:46:01 h   05.05.2007 100km  Lynch, James USA  1967 165 M 114 M40 23
5336 14:46:02 h   07.05.2016 100km  Malia, Gavin USA  1973 228 M 186 M40 38
5337 14:46:06 h   06.05.2006 100km  Martisko, Lester USA  1944 191 M 136 M60 6
5338 14:46:07 h   03.05.2025 100km  Lopez, Javier USA  1975 199 M 143 M50 14
5339 14:46:08 h   07.05.2016 100km  Jankowski, Tony USA  1952 229 M 187 M60 3
5340 14:46:10 h   03.05.2025 100km  Hanschka, T USA  1965 200 M 144 M60 6
5341 14:46:13 h   03.05.2025 100km  Briguglio, Kerrie-Ann USA  1970 201 F 57 W55 3
5342 14:46:16 h   04.05.2024 100km  Baker, Kathleen USA  1978 153 F 33 W45 3
5343 14:46:20 h   03.05.2025 100km  Kirchhoff, Christopher USA  1978 202 M 145 M45 15
5344 14:46:30 h   04.05.2019 100km  Scott, Genna USA  1976 197 F 49 W40 18
5345 14:46:30 h   04.05.2019 100km  Chow, Kevin USA  1975 198 M 149 M40 35
5346 14:46:33 h   07.05.2011 100km  Aji, Raja USA  1967 232 M 180 M40 47
5347 14:46:34 h   04.05.2024 100km  Kauri, Mari USA  1968 154 F 34 W55 2
5348 14:46:35 h   05.05.2012 100km  Brostella, Daniel PAN  1972 151 M 122 M40 27
5349 14:46:37 h   03.05.2003 100km  Huss, Michael USA  1958 152 M 111 M45 27
5350 14:46:37 h   03.05.2003 100km  Davidson, Peggy USA  1956 153 F 42 W45 9
5351 14:46:39 h   07.05.2011 100km  Phillips, Mike USA  1962 233 M 181 M45 35
5352 14:46:46 h   02.05.2026 100km  Huget, Jeff USA  1968 247 M 178 M55 8
5353 14:47:00 h   02.05.2015 100km  Flynn, Julie CAN  1975 235 F 55 W40 9
5354 14:47:00 h   02.05.2015 100km  Golembeski, Thomas USA  1973 236 M 181 M40 34
5355 14:47:00 h   02.05.2015 100km  Henry, Susan USA  1962 237 F 55 W50 7
5356 14:47:00 h   02.05.2015 100km  Lankford, David USA  1972 238 M 181 M40 34
5357 14:47:00 h   06.05.2023 100km  Larsen, Tim USA  1972 220 M 146 M50 20
5358 14:47:02 h   03.05.2025 100km  Goh, Eujin USA  1977 203 M 146 M45 16
5359 14:47:04 h   07.05.2022 100km  Kochavi, Shiran USA  1969 172 M 134 M50 22
5360 14:47:06 h   03.05.2014 100km  Merzon, Allison USA  1970 245 F 48 W40 11
5361 14:47:09 h   07.05.2011 100km  Leinfellner, Norbert USA  1966 234 M 182 M45 36
5362 14:47:13 h   02.05.2009 100km  Jones, Jeff USA  1954 212 M 154 M55 12
5363 14:47:17 h   06.05.2017 100km  Black, Andy USA  1958 213 M 169 M55 8
5364 14:47:18 h   05.05.2007 100km  Rodgers, Jack USA  1956 166 M 115 M50 16
5365 14:47:20 h   03.05.2008 100km  Green, Edward USA  1949 238 M 168 M55 11
5366 14:47:22 h   03.05.2014 100km  Gras, Eric USA  1980 246 M 198 M30 30
5367 14:47:31 h   07.05.2022 100km  Prejean Maddison, Masharika USA  1982 173 F 39 W40 13
5368 14:47:35 h   02.05.1998 100km  McFadden, Linda USA  1962 89 F 24 W35 2
5369 14:47:36 h   04.05.2024 100km  Hayward, Laura USA  1974 155 F 35 W50 1
5370 14:47:38 h   01.05.1999 100km  White, Bill USA  1966 109 M 77 M30 11
5371 14:47:38 h   03.05.2003 100km  Bennett, William USA  1950 154 M 112 M50 23
5372 14:47:38 h   03.05.2003 100km  Power, Greg USA  1951 155 M 112 M50 23
5373 14:47:51 h   07.05.2016 100km  Barnsdale, Neil USA  1966 230 M 188 M50 23
5374 14:47:56 h   04.05.2024 100km  Martin, Greta USA  1990 156 F 36 W30 9
5375 14:47:57 h   05.05.2018 100km  Schenkkan, Penelope USA  1983 220 F 48 W35 10
5376 14:48:00 h   02.05.2015 100km  Green, David USA  1979 239 M 183 M35 43
5377 14:48:00 h   02.05.2015 100km  Lyman, Albert USA  1960 240 M 183 M55 8
5378 14:48:00 h   02.05.2015 100km  Perrotti Lake, Carolyn USA  1987 241 F 57 W20 8
5379 14:48:00 h   06.05.2023 100km  Bendixen, Cori USA  1968 221 F 75 W55 4
5380 14:48:00 h   06.05.2023 100km  Maciel, Melanie USA  1976 222 F 75 W45 13
5381 14:48:00 h   06.05.2023 100km  Coughlin, Pamela USA  1965 223 F 75 W55 4
5382 14:48:08 h   03.05.2025 100km  Watson, Jimmy USA  1986 204 M 147 M35 26
5383 14:48:09 h   05.05.2018 100km  Baldessari, Audrey USA  1966 221 F 49 W50 7
5384 14:48:09 h   04.05.2024 100km  Santos, Brianna USA  1987 157 F 37 W35 6
5385 14:48:15 h   05.05.2012 100km  Nasif, Michael USA  1973 152 M 123 M35 21
5386 14:48:17 h   04.05.2024 100km  Sampson, Patricia USA  1972 158 F 38 W50 2
5387 14:48:20 h   03.05.2014 100km  Ihnken, Colleen USA  1964 247 F 49 W50 6
5388 14:48:21 h   03.05.2025 100km  Hult, Alexis USA  1973 205 M 148 M50 15
5389 14:48:26 h   06.05.2017 100km  Laan, Katherina USA  1978 214 F 45 W35 15
5390 14:48:46 h   07.05.2022 100km  Urken, Steven USA  1964 174 M 135 M55 9
5391 14:48:50 h   05.05.2007 100km  Kunz, Karl USA  1946 167 M 116 M60 5
5392 14:48:50 h   07.05.2022 100km  Ashlock, Taryn USA  1974 175 F 40 W45 7
5393 14:48:50 h   07.05.2022 100km  Blake, Lisa USA  1980 176 F 40 W40 14
5394 14:48:57 h   07.05.2022 100km  Lum, Ooi Leng USA  1977 177 F 42 W45 8
5395 14:49:00 h   02.05.2015 100km  Beland, Deanna USA  1969 242 F 58 W45 9
5396 14:49:00 h   02.05.2015 100km  Kercher, Kristen USA  1970 243 F 58 W45 9
5397 14:49:00 h   06.05.2023 100km  White, Robert USA  1982 224 M 147 M40 28
5398 14:49:00 h   06.05.2023 100km  Waters, Eric USA  1980 225 M 147 M40 28
5399 14:49:00 h   06.05.2023 100km  Nguyen, Elyse USA  1991 226 F 78 W30 13
5400 14:49:02 h   05.05.2012 100km  Nichols, John USA  1965 153 M 124 M45 22
5401 14:49:05 h   01.05.1999 100km  Grether, Joann USA  1957 110 F 33 W40 9
5402 14:49:05 h   01.05.1999 100km  Elia, Barbara USA  1944 111 F 33 W55 1
5403 14:49:09 h   05.05.2018 100km  Venne, Darcy CAN  1959 222 M 173 M55 12
5404 14:49:15 h   05.05.2012 100km  Gates, Jacklyn USA  1982 154 F 30 W30 9
5405 14:49:24 h   05.05.2018 100km  Khryashchev, Oleg USA  1965 223 M 174 M50 24
5406 14:49:25 h   03.05.2014 100km  Kehoe, Keather USA  1972 248 F 50 W40 12
5407 14:49:34 h   05.05.2007 100km  Rao, Anil USA  1975 168 M 117 M30 13
5408 14:49:36 h   30.04.2005 100km  Godtfredsen, Trish USA  1973 195 F 56 W30 10
5409 14:49:38 h   03.05.2025 100km  Guest, Ryan USA  1983 206 M 149 M40 37
5410 14:49:39 h   07.05.2022 100km  Hungate, Scott USA  1969 178 M 136 M50 23
5411 14:49:40 h   04.05.2019 100km  Isenberg, Rebekah USA  1980 199 F 50 W35 13
5412 14:49:40 h   02.05.2026 100km  Hodgens, Nathan USA  1993 248 M 179 M30 27
5413 14:49:43 h   06.05.2017 100km  Santos, Alejandra USA  1968 215 F 46 W45 8
5414 14:49:52 h   07.05.2016 100km  Kuwaye, Scot USA  1964 231 M 189 M50 24
5415 14:49:52 h   02.05.2026 100km  Cooperider, Cameron USA  1995 249 M 180 M30 28
5416 14:49:54 h   02.05.2026 100km  Baines, Paul USA  1983 250 M 181 M40 45
5417 14:49:55 h   02.05.2026 100km  Norwood, Darrin USA  1990 251 M 182 M35 38
5418 14:49:57 h   02.05.2026 100km  Chrisman, Seth USA  1987 252 M 183 M35 39
5419 14:50:10 h   07.05.2011 100km  Elsbernd, David USA  1954 235 M 183 M55 12
5420 14:50:14 h   04.05.2019 100km  Teragawa, Shane USA  1976 200 M 150 M40 36
5421 14:50:28 h   02.05.2009 100km  Pulick, Christopher USA  1970 213 M 155 M35 26
5422 14:50:28 h   02.05.2009 100km  Wetzel, Randy USA  1965 214 M 155 M40 45
5423 14:50:32 h   05.05.2012 100km  Ocampo Arellano, Octavio MEX  1977 155 M 125 M35 22
5424 14:50:34 h   03.05.2025 100km  Alter, Liz USA  1976 207 F 58 W45 9
5425 14:50:45 h   03.05.2003 100km  Gosney, Eldrith USA  1941 156 F 43 W60 1
5426 14:50:48 h   03.05.2014 100km  Macias, Jose USA  1977 249 M 199 M35 32
5427 14:50:50 h   01.05.2010 100km  Martinez, Julian USA  1962 222 M 154 M45 28
5428 14:50:50 h   06.05.2006 100km  Hanke, Karen USA  1962 192 F 56 W40 18
5429 14:50:50 h   06.05.2006 100km  Cuminale, Carol USA  1952 193 F 56 W50 3
5430 14:50:50 h   03.05.2003 100km  Carboni, Grant USA  1970 157 M 114 M30 11
5431 14:50:52 h   05.05.2018 100km  Cardenas, Adam Eduardo USA  1982 224 M 175 M35 33
5432 14:50:52 h   07.05.2022 100km  Eichelman, Andrew USA  1969 179 M 137 M50 24
5433 14:50:52 h   03.05.2025 100km  Pauly, Dale USA  1985 208 M 150 M40 38
5434 14:50:53 h   01.05.2010 100km  Laffan, Carl IRL  1978 223 M 155 M30 20
5435 14:50:53 h   05.05.2018 100km  Wertheimer, Jennifer USA  1978 225 F 50 W40 16
5436 14:50:54 h   03.05.2014 100km  Parker, David CAN  1978 250 M 200 M35 33
5437 14:51:00 h   07.05.2011 100km  Bowers, Tina USA  1956 236 F 53 W55 3
5438 14:51:00 h   03.05.2014 100km  Deslich, Jeffery USA  1959 251 M 201 M55 9
5439 14:51:03 h   05.05.2018 100km  Williams, Ryan USA  1979 226 M 176 M35 34
5440 14:51:04 h   06.05.2006 100km  Savage, Mike USA  1959 194 M 137 M45 27
5441 14:51:07 h   02.05.2026 100km  Haston, Kelly CAN  1970 253 F 70 W55 1
5442 14:51:08 h   05.05.2018 100km  Mayberry, Ty USA  1978 227 M 177 M40 34
5443 14:51:12 h   05.05.2012 100km  Burgess, Michaela USA  1980 156 F 31 W30 10
5444 14:51:25 h   05.05.2007 100km  Bennett, William USA  1950 169 M 118 M55 14
5445 14:51:25 h   05.05.2007 100km  Davidson, Peggy USA  1956 170 F 52 W50 4
5446 14:51:26 h   04.05.2024 100km  Kramer, Bryan USA  1979 159 M 121 M45 22
5447 14:51:28 h   04.05.2024 100km  Kramer, Kevin USA  1982 160 M 122 M40 27
5448 14:51:36 h   02.05.2009 100km  Harvey, Brian USA  1975 215 M 157 M30 16
5449 14:51:47 h   07.05.2016 100km  Sharoglazova, Maria USA  1981 232 F 43 W35 8
5450 14:51:52 h   01.05.2010 100km  Davidson, Peggy USA  1956 224 F 69 W50 9
5451 14:51:53 h   01.05.2004 100km  Rafferty, Scott USA  1955 170 M 126 M45 29
5452 14:51:55 h   04.05.2019 100km  Grove, Sean USA  1972 201 M 151 M45 25
5453 14:51:57 h   05.05.2012 100km  Payton, Brad USA  1981 157 M 126 M30 29
5454 14:52:00 h   02.05.2015 100km  Rose, Charlie USA  1969 244 M 185 M45 37
5455 14:52:00 h   02.05.2015 100km  Saffery, Clive GBR  1955 245 M 185 M60 4
5456 14:52:01 h   01.05.2004 100km  LaPlant, Carol USA  1947 171 F 45 W55 2
5457 14:52:01 h   05.05.2012 100km  Morton, Thomas USA  1977 158 M 127 M35 23
5458 14:52:02 h   01.05.1999 100km  Albin (Rondeau), Pamela USA  1956 112 F 35 W40 10
5459 14:52:19 h   07.05.2011 100km  Cruise, Colleen USA  1975 237 F 54 W35 10
5460 14:52:19 h   06.05.2017 100km  Tweedie, Bruce USA  1961 216 M 170 M55 9
5461 14:52:21 h   04.05.2002 100km  Draxler, Leon USA  1942 159 M 121 M60 10
5462 14:52:22 h   06.05.2017 100km  Keele, Bruce USA  1967 217 M 171 M50 29
5463 14:52:23 h   06.05.2017 100km  Frazer, Paul USA  1976 218 M 172 M40 36
5464 14:52:25 h   06.05.2017 100km  Velasquez, Christine USA  1972 219 F 47 W45 9
5465 14:52:27 h   06.05.2000 100km  Draxler, Leon USA  1942 131 M 94 M55 7
5466 14:52:27 h   06.05.2000 100km  Weisser, Susan USA  1957 132 F 38 W40 10
5467 14:52:30 h   01.05.2010 100km  Layson, Carmela USA  1969 225 F 70 W40 11
5468 14:52:39 h   03.05.2008 100km  Hunter, Bill USA  1965 239 M 169 M40 46
5469 14:52:40 h   05.05.2001 100km  Foley, Kelly USA  1963 134 F 37 W35 12
5470 14:52:40 h   05.05.2001 100km  China, Richard USA  1956 135 M 98 M45 24
5471 14:52:40 h   04.05.2002 100km  DeVita, Victoria USA  1953 160 F 39 W45 7
5472 14:52:44 h   05.05.2001 100km  Crompton, Kathy USA  1956 136 F 38 W45 8
5473 14:52:45 h   01.05.1999 100km  Crouse, Ken USA  1955 113 M 78 M40 15
5474 14:52:45 h   01.05.1999 100km  Scalise, Tina USA  1955 114 F 36 W40 11
5475 14:52:49 h   04.05.2024 100km  Gamble, Cole USA  2000 161 M 123 M20 5
5476 14:52:52 h   07.05.2016 100km  Meister, Bruce USA  1967 233 M 190 M45 40
5477 14:52:57 h   01.05.2004 100km  Abel, Jeffrey USA  1966 172 M 127 M35 13
5478 14:52:58 h   02.05.2026 100km  Johnson, Jessi USA  1982 254 F 71 W40 11
5479 14:53:00 h   02.05.1998 100km  Young, Jim USA  1941 90 M 66 M55 2
5480 14:53:00 h   02.05.2015 100km  Runyan, Veronica USA  1960 246 F 60 W55 5
5481 14:53:06 h   03.05.2014 100km  Konoske, Michelle USA  1964 252 F 51 W50 7
5482 14:53:27 h   02.05.2026 100km  Baxley, Dan USA  1971 255 M 184 M55 9
5483 14:53:31 h   01.05.2004 100km  Scannell, Joan USA  1946 173 F 46 W55 3
5484 14:53:32 h   03.05.2025 100km  Kolitsida, Panagiota USA  1989 209 F 59 W35 15
5485 14:53:34 h   03.05.1997 100km  Gallagher, Thomas USA  1957 82 M 56 M40 15
5486 14:53:34 h   05.05.2012 100km  Kroner, Arno FRA  1965 159 M 128 M45 23
5487 14:53:35 h   03.05.2014 100km  Lanning, William USA  1982 253 M 202 M30 31
5488 14:53:36 h   03.05.2014 100km  Valiev, Alim USA  1969 254 M 203 M45 51
5489 14:53:41 h   04.05.2019 100km  Strachan Miller, Tizz USA  1968 202 F 51 W50 2
5490 14:53:43 h   02.05.1998 100km  China, Richard USA  1956 91 M 67 M40 13
5491 14:53:43 h   02.05.1998 100km  Carroll, Patricia USA  1949 91 F 25 W45 6
5492 14:53:43 h   02.05.1998 100km  Garcia, Michael USA  1947 91 M 67 M50 13
5493 14:53:49 h   06.05.2017 100km  Kysar-Carey, Jeanne USA  1965 220 F 48 W50 5
5494 14:53:49 h   07.05.2022 100km  Kihara, Ngugi USA  1985 180 M 138 M35 27
5495 14:54:00 h   02.05.2015 100km  Corris, Thomas USA  1953 247 M 187 M60 5
5496 14:54:00 h   02.05.2015 100km  Solomon, Sarah USA  1970 248 F 61 W45 11
5497 14:54:00 h   06.05.2023 100km  Golembeski, Thomas USA  1973 227 M 149 M50 21
5498 14:54:00 h   06.05.2023 100km  Schenkkan, Penelope USA  1983 228 F 79 W40 16
5499 14:54:00 h   06.05.2023 100km  Maier, Jennifer USA  1981 229 F 79 W40 16
5500 14:54:11 h   02.05.2026 100km  Yurchenko, Anna USA  1980 256 F 72 W45 10
5501 14:54:16 h   04.05.2024 100km  Pise, Pradeep USA  1978 162 M 124 M45 23
5502 14:54:21 h   03.05.2008 100km  Pott, Mike USA  1963 240 M 170 M45 30
5503 14:54:22 h   04.05.2024 100km  Dye, David USA  1974 163 M 125 M50 6
5504 14:54:24 h   04.05.2024 100km  Dye, Shannon USA  1979 164 F 39 W45 4
5505 14:54:35 h   01.05.2010 100km  Taylor, William USA  1976 226 M 156 M30 21
5506 14:54:35 h   04.05.2024 100km  Gandhi, Karthikeyan USA  1979 165 M 126 M45 24
5507 14:54:40 h   04.05.2024 100km  Azar, Christopher USA  1990 166 M 127 M30 21
5508 14:54:47 h   01.05.2004 100km  Wilson, Charles (Chuck) USA  1948 174 M 128 M55 10
5509 14:54:54 h   03.05.2025 100km  Cheechov, Ron USA  1965 210 M 151 M60 7
5510 14:54:55 h   05.05.2012 100km  Bennett, Rogelio PAN  1963 160 M 129 M45 24
5511 14:55:00 h   06.05.2023 100km  Louque, Amber USA  1999 230 F 81 W20 8
5512 14:55:00 h   06.05.2023 100km  Whipple, Jennifer USA  1986 231 F 81 W35 14
5513 14:55:00 h   06.05.2023 100km  Robertson, James USA  1974 232 M 150 M45 30
5514 14:55:07 h   05.05.2012 100km  Crispino, Anne USA  1957 161 F 32 W55 2
5515 14:55:14 h   03.05.2014 100km  Jones, Charley USA  1971 255 M 204 M40 49
5516 14:55:15 h   05.05.2007 100km  Gnass, Jon USA  1955 171 M 119 M50 17
5517 14:55:15 h   05.05.2007 100km  Gnass, Karen USA  1962 172 F 53 W45 18
5518 14:55:20 h   02.05.2009 100km  Carey, Ward USA  1965 216 M 158 M40 46
5519 14:55:21 h   03.05.2025 100km  Davies, Eric USA  1973 211 M 152 M50 16
5520 14:55:25 h   07.05.2022 100km  Schenkkan, Penelope USA  1983 181 F 43 W35 5
5521 14:55:25 h   02.05.2026 100km  Nelson, Ross USA  1977 257 M 185 M45 29
5522 14:55:32 h   30.04.2005 100km  Devlin, Vincent USA  1938 196 M 140 M65 1
5523 14:55:39 h   05.05.2018 100km  Teng, Hailong USA  1971 228 M 178 M45 47
5524 14:55:43 h   01.05.2010 100km  Graubins, Holly USA  1971 227 F 71 W35 21
5525 14:55:44 h   30.04.2005 100km  Hanke, Karen USA  1962 197 F 57 W40 14
5526 14:55:47 h   07.05.2016 100km  Newman, Daniel USA  1969 234 M 191 M45 41
5527 14:56:00 h   02.05.2015 100km  Grimes, Paul USA  1975 249 M 188 M40 36
5528 14:56:00 h   02.05.2015 100km  Kaiser, Nicholas GBR  1954 250 M 188 M60 6
5529 14:56:00 h   02.05.2015 100km  Thompson, Rick USA  1965 251 M 188 M50 22
5530 14:56:00 h   06.05.2023 100km  Kihara, Ngugi USA  1985 233 M 151 M35 26
5531 14:56:00 h   06.05.2023 100km  Sheefel, Sarah USA  1991 234 F 83 W30 14
5532 14:56:02 h   03.05.2003 100km  Bahramian, Katayoun USA  1973 158 F 44 W30 4
5533 14:56:02 h   03.05.2014 100km  Hamberlin, Deborah USA  1968 256 F 52 W45 7
5534 14:56:03 h   03.05.2014 100km  Wilkinson, Adam USA  1977 257 M 205 M35 34
5535 14:56:03 h   03.05.2025 100km  Vaidyanathan, Vasanth USA  1989 212 M 153 M35 27
5536 14:56:04 h   02.05.2009 100km  Savage, Charles USA  1947 217 M 159 M60 5
5537 14:56:10 h   03.05.1997 100km  Mason, Margaret USA  1946 83 F 27 W50 6
5538 14:56:13 h   03.05.2003 100km  Graboyes, Tony USA  1959 159 M 115 M40 26
5539 14:56:13 h   02.05.2026 100km  Zuniga, Mauricio USA  1994 258 M 186 M30 29
5540 14:56:17 h   06.05.2000 100km  Gillis, Cheri USA  1952 133 F 39 W45 7
5541 14:56:17 h   05.05.2018 100km  Klink, Mark USA  1968 229 M 179 M50 25
5542 14:56:21 h   02.05.1998 100km  Chambers, Craig USA  1949 94 M 69 M45 19
5543 14:56:21 h   02.05.2026 100km  Cai, Xiaoli USA  1962 259 F 73 W60 1
5544 14:56:21 h   02.05.2026 100km  Wu, Rong USA  1975 260 M 187 M50 15
5545 14:56:26 h   07.05.2016 100km  Droubi, Omar USA  1972 235 M 192 M40 39
5546 14:56:28 h   02.05.2026 100km  Lewis, Austin USA  1982 261 M 188 M40 46
5547 14:56:28 h   02.05.2026 100km  Nieman, David USA  1982 262 M 188 M40 46
5548 14:56:29 h   06.05.2017 100km  Goldstein, David USA  1968 221 M 173 M45 33
5549 14:56:37 h   06.05.2000 100km  Norwood, Sue USA  1949 134 F 40 W50 7
5550 14:56:38 h   07.05.2016 100km  Hegarty, David USA  1978 236 M 193 M35 38
5551 14:56:39 h   03.05.2014 100km  Yerkes, Todd USA  1968 258 M 206 M45 52
5552 14:56:39 h   03.05.2025 100km  Hart, Edmund USA  1979 213 M 154 M45 17
5553 14:56:39 h   02.05.2026 100km  Gersten, Cambria USA  1979 263 F 74 W45 11
5554 14:56:42 h   02.05.2026 100km  Verrilli, Gregory USA  1976 264 M 190 M50 16
5555 14:56:49 h   04.05.2019 100km  Skiles, Kevin USA  1974 203 M 152 M45 26
5556 14:56:49 h   02.05.2026 100km  Nieto, Mark USA  1986 265 M 191 M40 48
5557 14:56:50 h   03.05.2014 100km  Lilly, Miles USA  1967 259 M 207 M45 53
5558 14:56:57 h   06.05.2006 100km  Paulson, Marianne USA  1964 195 F 58 W40 19
5559 14:56:59 h   05.05.1996 100km  Jebian, Lee USA  1941 52 M 42 M55 6
5560 14:57:00 h   02.05.2015 100km  Fan, Zhenhua USA  1966 252 M 191 M45 38
5561 14:57:00 h   02.05.2015 100km  Lanoue, Brandy USA  1975 253 F 62 W40 10
5562 14:57:00 h   06.05.2023 100km  Rozales, Anthony USA  1974 235 M 152 M45 31
5563 14:57:00 h   06.05.2023 100km  Gong, Russell USA  1975 236 M 152 M45 31
5564 14:57:00 h   06.05.2023 100km  Eng, Alyson USA  1994 237 F 84 W20 9
5565 14:57:00 h   06.05.2023 100km  Quan, Lori USA  1968 238 F 84 W55 6
5566 14:57:00 h   06.05.2023 100km  Quan, Ethan USA  2000 239 M 152 M20 8
5567 14:57:04 h   06.05.2006 100km  Boyd, Andrew USA  1941 196 M 138 M65 2
5568 14:57:09 h   04.05.2024 100km  Madsen, Monica USA  1980 167 F 40 W40 10
5569 14:57:16 h   03.05.2008 100km  Higgins, Buzz USA  1944 241 M 171 M60 6
5570 14:57:19 h   02.05.2026 100km  Ochiai, Takuro JPN  1995 266 M 192 M30 30
5571 14:57:27 h   04.05.2019 100km  Galope, Joseph USA  1969 204 M 153 M50 19
5572 14:57:29 h   07.05.2016 100km  Lynch, Gregory USA  1967 237 M 194 M45 42
5573 14:57:29 h   04.05.2024 100km  Scalio, Geni USA  1971 168 F 41 W50 3
5574 14:57:33 h   30.04.2005 100km  Chu, Ling-Ru USA  1974 198 F 58 W30 11
5575 14:57:35 h   30.04.2005 100km  Graboyes, Tony USA  1959 199 M 141 M45 28
5576 14:57:35 h   04.05.2024 100km  Brasil, Dina USA  1982 169 F 42 W40 11
5577 14:57:37 h   07.05.2016 100km  Zucker, Marty USA  1960 238 M 195 M55 11
5578 14:57:37 h   04.05.2019 100km  Bukowski, Thomas USA  1988 205 M 154 M30 18
5579 14:57:37 h   07.05.2022 100km  Soles, Gillian USA  1979 182 F 44 W40 15
5580 14:57:37 h   07.05.2022 100km  McCarthy, Abby USA  1980 183 F 44 W40 15
5581 14:57:49 h   06.05.2006 100km  Petersen, Steven USA  1954 197 M 139 M50 18
5582 14:57:49 h   06.05.2017 100km  Chacon, Lucia USA  1977 222 F 49 W40 10
5583 14:57:49 h   07.05.2022 100km  Fleitz, Michael USA  1971 184 M 139 M50 25
5584 14:57:56 h   03.05.2014 100km  Macias, Robert USA  1967 260 M 208 M45 54
5585 14:57:57 h   05.05.1996 100km  Johnson, Charles USA  1943 53 M 43 M50 11
5586 14:58:00 h   02.05.2015 100km  Anderson, John USA  1971 254 M 192 M40 37
5587 14:58:00 h   02.05.2015 100km  Droubi, Omar USA  1972 255 M 192 M40 37
5588 14:58:00 h   02.05.2015 100km  Garcia Frausto, Manuel MEX  1980 256 M 192 M35 44
5589 14:58:00 h   06.05.2017 100km  Grundy, Brandon USA  1976 223 M 174 M40 37
5590 14:58:00 h   06.05.2023 100km  Mulholand, Brian USA  1982 240 M 155 M40 30
5591 14:58:05 h   07.05.2016 100km  Deshpande, Shashank USA  1964 239 M 196 M50 25
5592 14:58:07 h   05.05.2018 100km  Ungerleider, Julie USA  1968 230 F 51 W50 8
5593 14:58:10 h   07.05.2022 100km  Lan, Christy USA  1980 185 F 46 W40 17
5594 14:58:11 h   04.05.2024 100km  Bretan, Jonathan USA  1982 170 M 128 M40 28
5595 14:58:12 h   06.05.2017 100km  Bryant, Patty USA  1959 224 F 50 W55 1
5596 14:58:15 h   06.05.2017 100km  Woody, Shaun USA  1977 225 M 175 M40 38
5597 14:58:16 h   06.05.2017 100km  Burke, Alison USA  1976 226 F 51 W40 11
5598 14:58:26 h   07.05.2016 100km  Tsoutis, Ted USA  1979 240 M 197 M35 39
5599 14:58:31 h   03.05.2014 100km  Johnson, Meredith USA  1981 261 F 53 W30 9
5600 14:58:33 h   06.05.2017 100km  Crow, Audrey USA  1969 227 F 52 W45 10
5601 14:58:37 h   06.05.2017 100km  Morales, Michael USA  1969 228 M 176 M45 34
5602 14:58:48 h   04.05.2002 100km  Wilson, Charles (Chuck) USA  1948 161 M 122 M50 18
5603 14:58:48 h   04.05.2019 100km  Taylor, Jake USA  1985 206 M 155 M30 19
5604 14:58:53 h   04.05.2024 100km  Peterson, Jeremy USA  1991 171 M 129 M30 22
5605 14:58:59 h   05.05.2018 100km  Mukkamala, Himagiri USA  1973 231 M 180 M45 48
5606 14:59:00 h   06.05.2023 100km  Kosbie, Jeffrey USA  1984 241 M 156 M35 27
5607 14:59:00 h   06.05.2023 100km  Val, Calvin USA  1986 242 M 156 M35 27
5608 14:59:06 h   04.05.2024 100km  James, Jason USA  1980 172 M 130 M40 29
5609 14:59:08 h   04.05.2002 100km  Jankowski, Tony USA  1952 162 M 123 M50 19
5610 14:59:21 h   05.05.2018 100km  Grimes, Paul USA  1975 232 M 181 M40 35
5611 14:59:28 h   07.05.2016 100km  Woolman, Angie USA  1954 241 F 44 W60 2
5612 14:59:32 h   07.05.2011 100km  Stoute, Luis PAN  1960 238 M 184 M50 24
5613 14:59:38 h   07.05.2016 100km  Keane, Mick USA  1967 242 M 198 M45 43
5614 14:59:38 h   03.05.2025 100km  Richard, Laura USA  1969 214 F 60 W55 4
5615 14:59:40 h   03.05.2025 100km  Nguyen, Joshua USA  1985 215 M 155 M40 39
5616 14:59:45 h   05.05.2018 100km  von Stroh, David USA  1980 233 M 182 M35 35
5617 14:59:48 h   02.05.2026 100km  Shan, Xin USA  1970 267 F 75 W55 2
5618 14:59:49 h   01.05.2004 100km  Dellwo, Marcia USA  1958 175 F 47 W45 11
5619 14:59:49 h   01.05.2004 100km  Hoagland, Karl USA  1965 176 M 129 M35 14
5620 14:59:49 h   01.05.2004 100km  Liebes, Frederick USA  1946 177 M 129 M55 11
5621 14:59:50 h   03.05.2008 100km  Farley, Kristen USA  1962 242 F 71 W45 21
5622 14:59:50 h   04.05.2002 100km  Kaisersatt, Tom USA  1940 163 M 124 M60 11
5623 14:59:52 h   03.05.2025 100km  Anderson, Craig USA  1980 216 M 156 M45 18
5624 14:59:53 h   03.05.2025 100km  Newman, Ross USA  1986 217 M 157 M35 28
5625 14:59:55 h   05.05.2012 100km  Ure, Tina USA  1959 162 F 33 W50 4
5626 14:59:57 h   07.05.2011 100km  Sullivan, Scott USA  1959 239 M 185 M50 25
5627 15:00:00 h   02.05.2015 100km  Alfaro, Juan Antonio PAN  1980 257 M 195 M35 45
5628 15:00:00 h   02.05.2015 100km  Black, Andy USA  1958 258 M 195 M55 9
5629 15:00:00 h   02.05.2015 100km  Hesseltine, Wally USA  1943 259 M 195 M70 1
5630 15:00:10 h   05.05.2001 100km  Scanlon, Robert USA  1947 137 M 99 M50 17
5631 15:00:16 h   05.05.2018 100km  Newman, Michael USA  1976 234 M 183 M40 36
5632 15:00:24 h   07.05.2022 100km  Yu, Haiming USA  1970 186 M 140 M50 26
5633 15:00:25 h   01.05.2010 100km  Godtfredsen, Trish USA  1973 228 F 72 W35 22
5634 15:00:25 h   01.05.2010 100km  Moore, Monica USA  1974 229 F 72 W35 22
5635 15:00:30 h   05.05.2018 100km  Anderson, John USA  1971 235 M 184 M45 49
5636 15:00:30 h   07.05.2022 100km  Lanum, Phillip USA  1962 187 M 141 M60 5
5637 15:00:31 h   07.05.2022 100km  Willitts, Jason USA  1971 188 M 142 M50 27
5638 15:00:31 h   07.05.2022 100km  Walker, Tony USA  1974 189 M 142 M45 27
5639 15:00:35 h   05.05.2001 100km  LaPlant, Carol USA  1947 138 F 39 W50 6
5640 15:00:37 h   05.05.2018 100km  Darden, Shane USA  1969 236 M 185 M45 50
5641 15:00:39 h   06.05.2017 100km  Ure, Tina USA  1959 229 F 53 W55 2
5642 15:00:41 h   03.05.2025 100km  Maier, Jennifer USA  1981 218 F 61 W40 10
5643 15:00:42 h   03.05.1997 100km  Carpenter, Bob USA  1937 84 M 57 M60 3
5644 15:00:46 h   30.04.2005 100km  Musleh, Sam USA  1965 200 M 142 M40 26
5645 15:00:59 h   05.05.2018 100km  Christianson, Katie USA  1970 237 F 52 W45 7
5646 15:01:00 h   02.05.2015 100km  Geis, Matt USA  1972 260 M 198 M40 39
5647 15:01:02 h   05.05.2018 100km  Lee, Yurie USA  1980 238 F 53 W35 11
5648 15:01:03 h   07.05.2022 100km  Santilli, Sara USA  1984 190 F 47 W35 6
5649 15:01:04 h   05.05.2018 100km  Clark, Matthew USA  1968 239 M 186 M50 26
5650 15:01:04 h   04.05.2024 100km  Newport-Berra, Mchale USA  1979 173 F 43 W45 5
5651 15:01:10 h   01.05.2010 100km  Meyers, Dianne USA  1962 230 F 74 W45 12
5652 15:01:22 h   03.05.2003 100km  Florio, Joseph USA  1960 160 M 116 M40 27
5653 15:01:24 h   05.05.2012 100km  Mitchell, Andrew USA  1967 163 M 130 M45 25
5654 15:01:28 h   05.05.2018 100km  Cook, Kate USA  1976 240 F 54 W40 17
5655 15:01:34 h   05.05.2018 100km  King, Paul USA  1959 241 M 187 M55 13
5656 15:01:35 h   04.05.2024 100km  Dunne, Ian USA  1972 174 M 131 M50 7
5657 15:01:44 h   03.05.2014 100km  Christensen, Garret USA  1979 262 M 209 M35 35
5658 15:01:51 h   05.05.2018 100km  Pabst, Dana USA  1965 242 F 55 W50 9
5659 15:02:00 h   03.05.2003 100km  Crouse, Ken USA  1955 161 M 117 M45 28
5660 15:02:00 h   02.05.2015 100km  Borja, Richwood USA  1974 261 M 199 M40 40
5661 15:02:02 h   03.05.2003 100km  Nakamura, Tomassa USA  1953 162 M 118 M50 25
5662 15:02:03 h   04.05.2019 100km  Cogswell, Meghan USA  1979 207 F 52 W40 19
5663 15:02:04 h   06.05.2006 100km  Marolf, Chris SUI  1964 198 M 140 M40 31
5664 15:02:06 h   07.05.2011 100km  Connor, Dennis USA  1961 240 M 186 M50 26
5665 15:02:07 h   07.05.2022 100km  Olmer, Barbara GER  1975 191 F 48 W45 9
5666 15:02:07 h   02.05.2026 100km  Sage, Michele USA  1984 268 F 76 W40 12
5667 15:02:08 h   06.05.2017 100km  Snow, Jan CAN  1959 230 F 54 W55 3
5668 15:02:10 h   03.05.2003 100km  Lewis, Milo USA  1953 163 M 119 M50 26
5669 15:02:13 h   05.05.2012 100km  Larsen, Tim USA  1972 164 M 131 M40 28
5670 15:02:17 h   07.05.2022 100km  Giordano, Gina USA  1967 192 F 49 W55 3
5671 15:02:20 h   03.05.2025 100km  Chen, Aaron USA  2000 219 M 158 M20 9
5672 15:02:23 h   30.04.2005 100km  Cavanaugh, James USA  1942 201 M 143 M60 8
5673 15:02:23 h   04.05.2019 100km  Pearce, John USA  1967 208 M 156 M50 20
5674 15:02:27 h   07.05.2011 100km  Bernstein, Liz USA  1975 241 F 55 W35 11
5675 15:02:27 h   04.05.2024 100km  Arnold, David CAN  1982 175 M 132 M40 30
5676 15:02:38 h   04.05.2024 100km  Hardy, Rob USA  1986 176 M 133 M35 35
5677 15:02:40 h   07.05.2016 100km  Thompson, Rick USA  1965 243 M 199 M50 26
5678 15:02:41 h   03.05.2014 100km  Liao, Anna USA  1980 263 F 54 W30 10
5679 15:02:42 h   07.05.2016 100km  Alston, Allison USA  1988 244 F 45 W20 4
5680 15:02:47 h   02.05.2026 100km  Miller, Jordan USA  1990 269 M 193 M35 40
5681 15:02:49 h   06.05.2017 100km  Wertheimer, Jennifer USA  1978 231 F 55 W35 16
5682 15:02:49 h   06.05.2017 100km  Mitchell, Andrew USA  1967 232 M 177 M50 30
5683 15:02:53 h   07.05.2022 100km  Newport-Berra, Mchale USA  1979 193 F 50 W40 18
5684 15:02:56 h   04.05.2024 100km  Marshall, Kevin USA  1978 177 M 134 M45 25
5685 15:02:58 h   04.05.2002 100km  Reagan, Stephen USA  1953 164 M 125 M45 33
5686 15:02:58 h   05.05.2012 100km  Bennett, Irving PAN  1961 165 M 132 M50 12
5687 15:02:58 h   06.05.2017 100km  Flake, Christoph GER  1988 233 M 178 M20 5
5688 15:02:59 h   04.05.2019 100km  Grabowski, Marc USA  1977 209 M 157 M40 37
5689 15:03:00 h   04.05.2019 100km  MacAusland, Scott CAN  1976 210 M 158 M40 38
5690 15:03:06 h   06.05.2006 100km  Guenther, Karen USA  1959 199 F 59 W45 14
5691 15:03:06 h   03.05.2025 100km  Heiner, Anne USA  1985 220 F 62 W40 11
5692 15:03:07 h   04.05.2019 100km  Morris, Justin USA  1982 211 M 159 M35 40
5693 15:03:08 h   07.05.2022 100km  Branick-Abilla, Margaret USA  1968 194 F 51 W50 5
5694 15:03:11 h   05.05.2012 100km  Harrison, Chris USA  1964 166 M 133 M45 26
5695 15:03:12 h   04.05.2019 100km  Miyasato, Ty USA  1987 212 M 160 M30 20
5696 15:03:14 h   07.05.2022 100km  Crispino, Anne USA  1957 195 F 52 W65 1
5697 15:03:21 h   03.05.2025 100km  Diaz, Anabela USA  1978 221 F 63 W45 10
5698 15:03:29 h   05.05.2018 100km  King, Lamont USA  1973 243 M 188 M45 51
5699 15:03:30 h   05.05.2018 100km  Gibson, Scott USA  1986 244 M 189 M30 19
5700 15:03:40 h   04.05.2002 100km  Kapiloff, Elizabeth USA  1960 165 F 40 W40 12
5701 15:03:44 h   05.05.2012 100km  Rettally, Carlos PAN  1971 167 M 134 M40 29
5702 15:03:50 h   05.05.2012 100km  Williams, Christina USA  1983 168 F 34 W20 4
5703 15:03:50 h   02.05.2026 100km  Forter, Melanie USA  1983 270 F 77 W40 13
5704 15:03:53 h   03.05.2014 100km  Quarles, Georganna USA  1954 264 F 55 W60 1
5705 15:03:53 h   06.05.2017 100km  Farrell, Ian USA  1974 234 M 179 M40 39
5706 15:03:54 h   06.05.2017 100km  Imana Diaz, Monica Maria PER  1986 235 F 56 W30 6
5707 15:04:04 h   05.05.2001 100km  Agazzi, Bob USA  1951 139 M 100 M50 18
5708 15:04:10 h   05.05.2012 100km  Majd, Kam USA  1959 169 M 135 M50 13
5709 15:04:12 h   02.05.2009 100km  Moser, Leigh USA  1968 218 F 59 W40 13
5710 15:04:15 h   07.05.2016 100km  Woginrich, Mike USA  1969 245 M 200 M45 44
5711 15:04:16 h   01.05.2004 100km  Sorrell, Barbara USA  1957 178 F 48 W45 12
5712 15:04:16 h   04.05.2024 100km  Staten, Alex USA  1990 178 F 44 W30 10
5713 15:04:18 h   03.05.2025 100km  Thompson, Emily USA  1995 222 F 64 W30 12
5714 15:04:22 h   06.05.2017 100km  Shebert, Rachel USA  1995 236 F 57 W20 5
5715 15:04:23 h   06.05.2017 100km  Prochazka, Wanda CAN  1974 237 F 58 W40 12
5716 15:04:26 h   03.05.2025 100km  Borgmeier, Emilee USA  1988 223 F 65 W35 16
5717 15:04:28 h   03.05.2025 100km  Skinner, Nathaniel USA  1984 224 M 159 M40 40
5718 15:04:31 h   02.05.2026 100km  Nolan, Breena USA  1981 271 F 78 W45 12
5719 15:04:37 h   03.05.2025 100km  Wilsdon, Ashley USA  1988 225 M 160 M35 29
5720 15:04:38 h   30.04.2005 100km  Landon, Rachel USA  1968 202 F 59 W35 12
5721 15:04:39 h   03.05.2025 100km  Reid, Alex USA  1989 226 M 161 M35 30
5722 15:04:47 h   02.05.2009 100km  Buren, Roy USA  1962 219 M 160 M45 32
5723 15:05:02 h   03.05.2014 100km  Geis, Matt USA  1972 265 M 210 M40 50
5724 15:05:10 h   06.05.2017 100km  Jackson, David USA  1958 238 M 180 M55 10
5725 15:05:12 h   06.05.2017 100km  Seiberg, Jaret USA  1969 239 M 181 M45 35
5726 15:05:14 h   03.05.2014 100km  Jones, Jeff USA  1954 266 M 211 M60 4
5727 15:05:20 h   07.05.2011 100km  Cherney, Gerry USA  1974 242 M 187 M35 38
5728 15:05:21 h   02.05.2009 100km  Robertson, Joy USA  1958 220 F 60 W50 5
5729 15:05:22 h   02.05.2009 100km  Ankeney, Bobb USA  1953 221 M 161 M55 13
5730 15:05:23 h   03.05.2014 100km  Perry, Matthew USA  1964 267 M 212 M50 17
5731 15:05:27 h   04.05.2024 100km  Chipkin, Laura USA  1980 179 F 45 W40 12
5732 15:05:30 h   03.05.2014 100km  Denison, David USA  1961 268 M 213 M50 18
5733 15:05:35 h   07.05.2022 100km  Hammond, Patricia USA  1963 196 F 53 W55 4
5734 15:05:42 h   06.05.2000 100km  Engelke, Ellen USA  1957 135 F 41 W40 11
5735 15:05:42 h   04.05.2024 100km  Tamoush, Michael USA  1979 180 M 135 M45 26
5736 15:05:43 h   01.05.2010 100km  Wilhelm, Tom USA  1960 231 M 157 M50 21
5737 15:05:53 h   06.05.2017 100km  Neely, Kenneth USA  1972 240 M 182 M45 36
5738 15:05:53 h   03.05.2025 100km  Schwiebert, Camden USA  1985 227 M 162 M40 41
5739 15:05:54 h   05.05.2018 100km  Carlson, Rebecca USA  1963 245 F 56 W55 3
5740 15:05:58 h   05.05.2018 100km  Martinez, Julian USA  1962 246 M 190 M55 14
5741 15:06:01 h   04.05.2019 100km  Velasquez, Christine USA  1972 213 F 53 W45 9
5742 15:06:05 h   06.05.2006 100km  McKinzie, Deborah USA  1970 200 F 60 W35 11
5743 15:06:05 h   06.05.2006 100km  Sauld, Al USA  1946 201 M 141 M60 7
5744 15:06:08 h   04.05.2019 100km  Clark, Ronn USA  1967 214 M 161 M50 21
5745 15:06:08 h   04.05.2019 100km  Davison, Heather USA  1975 215 F 54 W40 20
5746 15:06:12 h   04.05.2019 100km  Becotte, Pascal CAN  1970 216 M 162 M45 27
5747 15:06:13 h   04.05.2019 100km  Seo, Nobuka JPN  1965 217 F 55 W50 3
5748 15:06:18 h   01.05.2010 100km  Muilenburg, Michael USA  1969 232 M 158 M40 29
5749 15:06:27 h   04.05.2024 100km  Macias, Jose USA  1977 181 M 136 M45 27
5750 15:06:28 h   06.05.2017 100km  Keane, Mick USA  1967 241 M 183 M50 31
5751 15:06:33 h   03.05.2014 100km  Alfred, Peggy USA  1959 269 F 56 W55 1
5752 15:06:33 h   03.05.2014 100km  Thompson, Rick USA  1965 270 M 214 M45 55
5753 15:06:40 h   02.05.2026 100km  Foss von Ahnen, Thea USA  1990 272 F 79 W35 23
5754 15:06:44 h   06.05.2017 100km  Weston, Michael USA  1960 242 M 184 M55 11
5755 15:06:47 h   07.05.2022 100km  Butler, Dakota USA  1982 197 M 144 M40 27
5756 15:06:48 h   07.05.2022 100km  Chaffin, Emily USA  1981 198 F 54 W40 19
5757 15:06:52 h   07.05.2016 100km  Popiel, Matthew USA  1982 246 M 201 M30 28
5758 15:06:53 h   03.05.1997 100km  Curley, Dennis USA  1956 85 M 58 M40 16
5759 15:06:54 h   03.05.2025 100km  Kortz, Kim USA  1964 228 F 66 W60 1
5760 15:06:57 h   07.05.2011 100km  Magill, Jim USA  1946 243 M 188 M65 1
5761 15:06:57 h   04.05.2019 100km  Overby, Brett USA  1971 218 M 163 M45 28
5762 15:07:00 h   04.05.2019 100km  Ware, Matthew USA  1980 219 M 164 M35 41
5763 15:07:01 h   07.05.2022 100km  Todd, Alexa USA  1983 199 F 55 W35 7
5764 15:07:08 h   02.05.1998 100km  Houston, Michael USA  1943 95 M 70 M55 3
5765 15:07:08 h   02.05.1998 100km  Elia, Barbara USA  1944 95 F 26 W50 5
5766 15:07:11 h   05.05.2018 100km  Frank-Huff, Melissa USA  1974 247 F 57 W40 18
5767 15:07:14 h   04.05.2019 100km  Booth, Debbie USA  1972 220 F 56 W45 10
5768 15:07:19 h   05.05.2018 100km  Schummer, Sherri USA  1980 248 F 58 W35 12
5769 15:07:28 h   04.05.2019 100km  Espalin, Jason USA  1979 221 M 165 M40 39
5770 15:07:34 h   05.05.2001 100km  Bialla, Vito USA  1948 140 M 101 M50 19
5771 15:07:37 h   05.05.2007 100km  Cuminale, Carol USA  1952 173 F 54 W55 2
5772 15:07:38 h   02.05.2009 100km  Collins, Jeff USA  1953 222 M 162 M55 14
5773 15:07:39 h   04.05.2019 100km  Parks, John USA  1964 222 M 166 M55 8
5774 15:07:41 h   04.05.2019 100km  Miller, Michael USA  1961 223 M 167 M55 9
5775 15:07:43 h   01.05.2010 100km  Mulholland, Juliet USA  1969 233 F 75 W40 12
5776 15:07:43 h   04.05.2019 100km  Espalin, Tanya USA  1981 224 F 57 W35 14
5777 15:07:48 h   05.05.2018 100km  Moratilla, Roberto USA  1978 249 M 191 M40 37
5778 15:07:52 h   05.05.2007 100km  Aman, Katie USA  1971 174 F 55 W35 4
5779 15:07:53 h   03.05.2025 100km  Dugan, Sara USA  1991 229 F 67 W30 13
5780 15:07:55 h   05.05.2012 100km  Beaty, Patricia USA  1967 170 F 35 W45 3
5781 15:07:58 h   07.05.2016 100km  Franklin, Leith USA  1975 247 M 202 M40 40
5782 15:08:00 h   02.05.2015 100km  Bazeley, Noriko USA  1958 262 F 63 W55 6
5783 15:08:00 h   02.05.2015 100km  Carlson, Samantha USA  1983 263 F 63 W30 10
5784 15:08:10 h   06.05.2006 100km  Santilhano, Michele RSA  1970 202 F 61 W35 12
5785 15:08:13 h   05.05.1996 100km  Grether, Tom USA  1951 54 M 44 M45 13
5786 15:08:14 h   07.05.2011 100km  Jones, Jeff USA  1954 244 M 189 M55 13
5787 15:08:16 h   03.05.2008 100km  Harvey, Brian USA  1975 243 M 172 M30 17
5788 15:08:24 h   01.05.2010 100km  Liao, Elijah USA  1972 234 M 159 M35 35
5789 15:08:26 h   03.05.2003 100km  Taylor, Robert K. USA  1962 164 M 120 M40 28
5790 15:08:28 h   03.05.2003 100km  Nowakowski, Joe USA  1953 165 M 121 M50 27
5791 15:08:42 h   05.05.2007 100km  Childers, Jill USA  1964 175 F 56 W40 18
5792 15:08:43 h   05.05.2007 100km  Hicks, Eric USA  1955 176 M 120 M50 18
5793 15:08:47 h   03.05.2025 100km  Vitkov, Victor USA  1989 230 M 163 M35 31
5794 15:08:50 h   03.05.2014 100km  Mensonides, Annette USA  1970 271 F 57 W40 13
5795 15:08:52 h   03.05.2014 100km  Brenner, Kellen USA  1983 272 M 215 M30 32
5796 15:08:52 h   04.05.2019 100km  Miller, Jennifer USA  1977 225 F 58 W40 21
5797 15:08:53 h   04.05.2019 100km  Myers, Robert USA  1970 226 M 168 M45 29
5798 15:08:55 h   02.05.2009 100km  Ladnier, Dennis USA  1963 223 M 163 M45 33
5799 15:08:55 h   06.05.2006 100km  Hart, Ron USA  1965 203 M 142 M40 32
5800 15:08:56 h   01.05.2004 100km  Pelsor, Thomas USA  1944 179 M 131 M60 9
5801 15:08:59 h   03.05.2014 100km  Seaman, Brian USA  1981 273 M 216 M30 33
5802 15:09:00 h   02.05.2015 100km  Schmid, Hans USA  1940 264 M 200 M75 1
5803 15:09:06 h   02.05.2026 100km  Bon, Eleanor USA  2000 273 F 80 W20 7
5804 15:09:12 h   05.05.2018 100km  Hildebrand, Anne USA  1987 250 F 59 W30 9
5805 15:09:14 h   06.05.2017 100km  Barrios, Noe USA  1956 243 M 185 M60 3
5806 15:09:17 h   05.05.2012 100km  Huang, Kai USA  1968 171 M 136 M40 30
5807 15:09:21 h   07.05.2016 100km  Newton, Robert USA  1988 248 M 203 M20 12
5808 15:09:21 h   05.05.2018 100km  Gutman, Ed USA  1983 251 M 192 M35 36
5809 15:09:32 h   03.05.2014 100km  Robertson, Steven CAN  1968 274 M 217 M45 56
5810 15:09:40 h   06.05.2000 100km  Wilson, Charles (Chuck) USA  1948 136 M 95 M50 17
5811 15:09:44 h   01.05.2010 100km  Swab, Kenneth USA  1951 235 M 160 M55 11
5812 15:09:45 h   30.04.2005 100km  Giebel, Mark USA  1946 203 M 144 M55 19
5813 15:09:47 h   07.05.2016 100km  Curtis, Roger USA  1961 249 M 204 M55 12
5814 15:09:48 h   07.05.2022 100km  Metcalfe, Julia USA  1987 200 F 56 W35 8
5815 15:10:00 h   02.05.2015 100km  Wilson, Jay USA  1966 265 M 201 M45 39
5816 15:10:11 h   07.05.2022 100km  Williams, Ryan USA  1979 201 M 145 M40 28
5817 15:10:14 h   05.05.2012 100km  Labourdett, Lupe USA  1959 172 F 36 W50 5
5818 15:10:16 h   05.05.2018 100km  Pearce, John USA  1967 252 M 193 M50 27
5819 15:10:18 h   02.05.1998 100km  Grether, Tom USA  1951 97 M 71 M45 20
5820 15:10:19 h   04.05.2024 100km  Tetreault, Myron CAN  1967 182 M 137 M55 9
5821 15:10:21 h   07.05.2022 100km  Mathe, Josh USA  1978 202 M 146 M40 29
5822 15:10:21 h   07.05.2022 100km  Urban, Taylor USA  1978 203 M 146 M40 29
5823 15:10:23 h   01.05.2004 100km  Dickinson, Robert USA  1955 180 M 132 M45 30
5824 15:10:24 h   03.05.2014 100km  Wong, Dale USA  1970 275 M 218 M40 51
5825 15:10:29 h   02.05.2026 100km  Breen, Verity AUS  1966 274 F 81 W60 2
5826 15:10:31 h   02.05.2026 100km  Brown, Derek USA  1980 275 M 194 M45 30
5827 15:10:32 h   05.05.2018 100km  Wronski, David USA  1985 253 M 194 M30 20
5828 15:10:34 h   07.05.2016 100km  Pynappel, Roger USA  1959 250 M 205 M55 13
5829 15:10:35 h   01.05.2004 100km  Benjamin, Ben USA  1947 181 M 133 M55 12
5830 15:10:39 h   07.05.2022 100km  Burke, Scott USA  1985 204 M 148 M35 28
5831 15:10:47 h   04.05.2024 100km  Church, Maura USA  1991 183 F 46 W30 11
5832 15:10:49 h   03.05.2014 100km  Blank, Gil USA  1964 276 M 219 M50 19
5833 15:10:53 h   03.05.1997 100km  Hanif-Weddle, Famida USA  1953 86 F 28 W40 10
5834 15:11:00 h   02.05.2015 100km  Davies, Eric USA  1973 266 M 202 M40 41
5835 15:11:00 h   02.05.2015 100km  King, Lamont USA  1973 267 M 202 M40 41
5836 15:11:00 h   02.05.2015 100km  Norquist, Craig USA  1966 268 M 202 M45 40
5837 15:11:00 h   02.05.2015 100km  Norquist, Laura USA  1967 269 F 65 W45 12
5838 15:11:00 h   02.05.2015 100km  Rathmell, Lon USA  1968 270 M 202 M45 40
5839 15:11:05 h   03.05.2008 100km  Hargett, John USA  1957 244 M 173 M50 20
5840 15:11:08 h   06.05.2017 100km  Neville, Jason USA  1975 244 M 186 M40 40
5841 15:11:08 h   06.05.2017 100km  Topping, Chelsey CAN  1982 245 F 59 W35 17
5842 15:11:09 h   05.05.2012 100km  Michalak, Melanie USA  1984 173 F 37 W20 5
5843 15:11:12 h   06.05.2017 100km  Parker, David CAN  1978 246 M 187 M35 41
5844 15:11:12 h   04.05.2019 100km  Ungerleider, Julie USA  1968 227 F 59 W50 4
5845 15:11:14 h   02.05.2026 100km  Debski, Katie USA  1977 276 F 82 W45 13
5846 15:11:15 h   04.05.2002 100km  Derystodder, Brook USA  1963 166 F 41 W35 11
5847 15:11:16 h   04.05.2002 100km  Derystodder, Mark USA  1956 167 M 126 M45 34
5848 15:11:20 h   07.05.2011 100km  Ankeney, Bobb USA  1953 245 M 190 M55 14
5849 15:11:20 h   07.05.2011 100km  Eggen, James USA  1967 246 M 190 M40 48
5850 15:11:20 h   05.05.2012 100km  Savage, Charles USA  1947 174 M 137 M65 1
5851 15:11:23 h   03.05.2014 100km  McIntosh, Sarah USA  1963 277 F 58 W50 8
5852 15:11:24 h   05.05.2018 100km  Strack, Jonathan USA  1980 254 M 195 M35 37
5853 15:11:37 h   02.05.2026 100km  Truong, Susan USA  1969 277 F 83 W55 3
5854 15:11:39 h   06.05.2017 100km  Malone, Candie USA  1974 247 F 60 W40 13
5855 15:11:40 h   04.05.2019 100km  Oflahrity, Rory USA  1978 228 M 169 M40 40
5856 15:11:40 h   03.05.2025 100km  Bartomeli, Alicia USA  1981 231 F 68 W40 12
5857 15:11:42 h   04.05.2002 100km  Leitch, William CAN  1944 168 M 127 M55 13
5858 15:11:52 h   03.05.2014 100km  Wilson, Kyria USA  1978 278 F 59 W35 16
5859 15:11:54 h   04.05.2024 100km  Ravenscroft, Todd USA  1975 184 M 138 M45 28
5860 15:11:55 h   06.05.2017 100km  Burton, Ian USA  1984 248 M 188 M30 21
5861 15:11:59 h   01.05.1999 100km  Gade, Gary USA  1959 115 M 79 M40 16
5862 15:11:59 h   07.05.2016 100km  Mitchell, Andrew USA  1967 251 M 206 M45 45
5863 15:12:04 h   07.05.2022 100km  Shaw, Erin USA  1981 205 F 57 W40 20
5864 15:12:04 h   07.05.2022 100km  Banaszynski, Kelsey USA  1987 206 F 57 W35 9
5865 15:12:12 h   07.05.2022 100km  Karkkainen, Kimmo USA  1988 207 M 149 M30 16
5866 15:12:33 h   07.05.2011 100km  Mowbray, Dennis USA  1952 247 M 192 M55 15
5867 15:12:35 h   04.05.2024 100km  Riddle, Stacie USA  1979 185 F 47 W45 6
5868 15:12:39 h   02.05.2009 100km  Higgins, Buzz USA  1944 224 M 164 M65 1
5869 15:12:40 h   04.05.2019 100km  Honey, Ashley USA  1979 229 M 170 M40 41
5870 15:12:47 h   05.05.2012 100km  Farries, Nancy CAN  1966 175 F 38 W45 4
5871 15:12:50 h   03.05.2014 100km  Haston, Kelly CAN  1970 279 F 60 W40 14
5872 15:12:50 h   05.05.2018 100km  Ong, Jenny USA  1982 255 F 60 W35 13
5873 15:12:50 h   05.05.2018 100km  Sanders, Eric USA  1961 256 M 196 M55 15
5874 15:12:51 h   03.05.2025 100km  Miller, Jordan USA  1990 232 M 164 M35 32
5875 15:12:56 h   05.05.2001 100km  Burgess, Todd USA  1969 141 M 102 M30 13
5876 15:12:59 h   04.05.2019 100km  Beard, Marcy USA  1969 230 F 60 W50 5
5877 15:12:59 h   04.05.2024 100km  Jacox, Mike USA  1982 186 M 139 M40 31
5878 15:13:00 h   02.05.2015 100km  Fialco, Fred USA  1973 271 M 206 M40 43
5879 15:13:00 h   02.05.2015 100km  Greer, Sarah USA  1983 272 F 66 W30 11
5880 15:13:04 h   04.05.2024 100km  Jacox, Jenny USA  1981 187 F 48 W40 13
5881 15:13:05 h   03.05.2008 100km  Harper, Tom USA  1949 245 M 174 M55 12
5882 15:13:11 h   07.05.2016 100km  Perez, Veronica USA  1968 252 F 46 W45 11
5883 15:13:17 h   05.05.2018 100km  Coughlin, Pamela USA  1965 257 F 61 W50 10
5884 15:13:18 h   07.05.2022 100km  Busceme, Carmen USA  1976 208 F 59 W45 10
5885 15:13:21 h   04.05.2019 100km  Underwood, Tyson USA  1986 231 M 171 M30 21
5886 15:13:29 h   03.05.2014 100km  Green, Jason USA  1975 280 M 220 M35 36
5887 15:13:36 h   04.05.2024 100km  Martin, Rodney USA  1970 188 M 140 M50 8
5888 15:13:37 h   06.05.2006 100km  Giebel, Patty USA  1946 204 F 62 W60 2
5889 15:13:42 h   03.05.2014 100km  Oliphant, James USA  1963 281 M 221 M50 20
5890 15:13:42 h   03.05.2025 100km  Lin, Alex USA  1983 233 M 165 M40 42
5891 15:13:48 h   02.05.2026 100km  Steele, Tim USA  1962 278 M 195 M60 2
5892 15:13:49 h   06.05.2017 100km  Harju, Roy USA  1968 249 M 189 M45 37
5893 15:13:50 h   04.05.2019 100km  McClean, Jennifer USA  1979 232 F 61 W40 22
5894 15:13:50 h   03.05.2025 100km  Halloran, Patrick USA  1996 234 M 166 M20 10
5895 15:14:01 h   06.05.2017 100km  Bohi, Mike USA  1971 250 M 190 M45 38
5896 15:14:02 h   05.05.2018 100km  Eichenlaub, Ryan USA  1986 258 M 197 M30 21
5897 15:14:06 h   05.05.2012 100km  Wharton, Julia Sophia USA  1970 176 F 39 W40 4
5898 15:14:09 h   03.05.2014 100km  Davis, Hugh USA  1968 282 M 222 M45 57
5899 15:14:14 h   01.05.2004 100km  Martisko, Lester USA  1944 182 M 134 M60 10
5900 15:14:15 h   04.05.2019 100km  Mandrell, Jeff USA  1985 233 M 172 M30 22
5901 15:14:15 h   03.05.2025 100km  Accornero, Matthew USA  1981 235 M 167 M40 43
5902 15:14:20 h   05.05.2001 100km  Collins, Jeff USA  1953 142 M 103 M45 25
5903 15:14:20 h   05.05.2001 100km  Fraser, Gary USA  1948 143 M 103 M50 20
5904 15:14:23 h   07.05.2011 100km  Ong, Gregory (Gerry) USA  1970 248 M 193 M40 49
5905 15:14:34 h   04.05.2024 100km  Chen, Jia Yn USA  1974 189 M 141 M50 9
5906 15:14:35 h   05.05.2007 100km  Callan, Robert USA  1967 177 M 121 M40 24
5907 15:14:35 h   05.05.2001 100km  Johnson, Melanie USA  1954 144 F 40 W45 9
5908 15:14:35 h   04.05.2024 100km  Spranger, Sarah USA  1988 190 F 49 W35 7
5909 15:14:36 h   05.05.2012 100km  Johnson, Betsy USA  1976 177 F 40 W35 10
5910 15:14:36 h   04.05.2019 100km  Jensen, Chris USA  1964 234 M 173 M55 10
5911 15:14:51 h   05.05.2012 100km  Kernasovskiy, Sarah USA  1986 178 F 41 W20 6
5912 15:14:57 h   05.05.2018 100km  Noble, Greg USA  1970 259 M 198 M45 52
5913 15:15:00 h   07.05.2016 100km  Lucas, John USA  1969 253 M 207 M45 46
5914 15:15:00 h   02.05.2026 100km  Hansen, Jens USA  1969 279 M 196 M55 10
5915 15:15:01 h   03.05.2025 100km  Mick, Joshua USA  1976 236 M 168 M45 19
5916 15:15:06 h   07.05.2016 100km  Braninburg, Jody USA  1967 254 M 208 M45 47
5917 15:15:07 h   06.05.2017 100km  Dumonthier, Luke USA  1982 251 M 191 M35 42
5918 15:15:09 h   06.05.2017 100km  Gerschultz, Steve USA  1963 252 M 192 M50 32
5919 15:15:09 h   06.05.2017 100km  Poso, Maria Luisa USA  1972 253 F 61 W45 11
5920 15:15:11 h   07.05.2016 100km  Mansfield, Lisa USA  1968 255 F 47 W45 12
5921 15:15:16 h   07.05.2016 100km  Shoemaker, Randy USA  1964 256 M 209 M50 27
5922 15:15:20 h   07.05.2022 100km  Kortz, Kim USA  1964 209 F 60 W55 5
5923 15:15:27 h   03.05.2014 100km  Rel, Ron USA  1966 283 M 223 M45 58
5924 15:15:28 h   02.05.2026 100km  Frazier, Mark USA  1996 280 M 197 M30 31
5925 15:15:29 h   04.05.2024 100km  Schmidt, Sean USA  1984 191 M 142 M40 32
5926 15:15:30 h   05.05.2012 100km  Cacciapaglia, Edward USA  1954 179 M 138 M55 5
5927 15:15:32 h   07.05.2016 100km  Madsen, Andrew USA  1982 257 M 210 M30 29
5928 15:15:32 h   03.05.2025 100km  Pan, Dylan USA  1978 237 M 169 M45 20
5929 15:15:40 h   06.05.2006 100km  McCabe, Richard CAN  1968 205 M 143 M35 26
5930 15:15:41 h   06.05.2006 100km  Naylor, Kelly USA  1976 206 F 63 W30 9
5931 15:15:41 h   07.05.2016 100km  Yankovich, Dean USA  1983 258 M 211 M30 30
5932 15:15:43 h   04.05.2024 100km  Diaz, Anabela USA  1978 192 F 50 W45 7
5933 15:15:44 h   04.05.2019 100km  Sage, Rachael USA  1975 235 F 62 W40 23
5934 15:15:44 h   07.05.2022 100km  Law, Todd USA  1967 210 M 150 M55 10
5935 15:15:47 h   05.05.2012 100km  McCord, Rohanna USA  1979 180 F 42 W30 11
5936 15:15:47 h   04.05.2024 100km  Hepp-Buchanan, Maxwell USA  1981 193 M 143 M40 33
5937 15:15:48 h   07.05.2016 100km  Peterson, Brian USA  1976 259 M 212 M40 41
5938 15:15:48 h   04.05.2024 100km  Ramos, Benito USA  1982 194 M 144 M40 34
5939 15:15:50 h   04.05.2002 100km  Boyd, Andrew USA  1941 169 M 128 M60 12
5940 15:15:51 h   04.05.2019 100km  Barrios, Noe USA  1956 236 M 174 M60 3
5941 15:15:55 h   06.05.2017 100km  Blakemore, Ashley USA  1985 254 F 62 W30 7
5942 15:15:56 h   06.05.2017 100km  Blakemore, Conan USA  1983 255 M 193 M30 22
5943 15:16:00 h   02.05.2015 100km  Underwood, Tyson USA  1986 273 M 207 M20 11
5944 15:16:03 h   03.05.2008 100km  Gosney, Eldrith USA  1941 246 F 72 W65 1
5945 15:16:03 h   06.05.2006 100km  LaPlant, Carol USA  1947 207 F 64 W55 2
5946 15:16:07 h   03.05.2014 100km  Frizner, Tina USA  1978 284 F 61 W35 17
5947 15:16:07 h   03.05.2025 100km  Batty, Chase USA  1990 238 M 170 M35 33
5948 15:16:07 h   03.05.2025 100km  Dunne, Ian USA  1972 239 M 170 M50 17
5949 15:16:11 h   03.05.1997 100km  Elia, Barbara USA  1944 87 F 29 W50 7
5950 15:16:13 h   02.05.2026 100km  Brown, Andrew USA  1990 281 M 198 M35 41
5951 15:16:17 h   06.05.2006 100km  Dalbec, Tim USA  1973 208 M 144 M30 19
5952 15:16:17 h   04.05.2024 100km  Parsons, Keith USA  1973 195 M 145 M50 10
5953 15:16:24 h   07.05.2022 100km  Macias, Jose USA  1977 211 M 151 M45 28
5954 15:16:34 h   03.05.2014 100km  Rasch, Jay USA  1989 285 M 224 M20 13
5955 15:16:40 h   05.05.2001 100km  Freeman, Jay USA  1947 145 M 105 M50 21
5956 15:16:40 h   05.05.2001 100km  Zoglman, Kenneth USA  1947 146 M 105 M50 21
5957 15:16:40 h   03.05.2003 100km  Liebeskind, Jan USA  1961 166 F 45 W40 13
5958 15:16:41 h   03.05.2003 100km  Weber, Timothy USA  1965 167 M 122 M35 11
5959 15:16:43 h   03.05.2014 100km  Gustavsson, Peter USA  1966 286 M 225 M45 59
5960 15:16:54 h   07.05.2022 100km  Grade, Michael USA  1965 212 M 152 M55 11
5961 15:16:55 h   01.05.2010 100km  Finnesy, Megan USA  1968 236 F 76 W40 13
5962 15:16:56 h   01.05.2010 100km  Huang, Kai USA  1968 237 M 161 M40 30
5963 15:16:57 h   03.05.2025 100km  Platt, Daniel USA  1979 240 M 172 M45 21
5964 15:16:59 h   03.05.2014 100km  Sato, Isamu JPN  1971 287 M 226 M40 52
5965 15:17:00 h   02.05.2015 100km  Bryant, Patty USA  1959 274 F 67 W55 7
5966 15:17:00 h   02.05.2015 100km  Moore, Jay USA  1975 275 F 67 W40 11
5967 15:17:05 h   04.05.2002 100km  Miller, Toni USA  1952 170 F 42 W50 6
5968 15:17:13 h   03.05.2008 100km  Kratochvil, Charles USA  1953 247 M 175 M55 13
5969 15:17:16 h   03.05.2014 100km  Kercher, Kristen USA  1970 288 F 62 W40 15
5970 15:17:16 h   07.05.2022 100km  Bergeron, John USA  1972 213 M 153 M50 28
5971 15:17:21 h   05.05.2007 100km  Kohr, Aaron USA  1964 178 M 122 M40 25
5972 15:17:24 h   05.05.1996 100km  Thibeault, Suzi USA  1947 55 F 11 W45 1
5973 15:17:24 h   05.05.1996 100km  Young, Kathy USA  1947 56 F 11 W45 1
5974 15:17:34 h   30.04.2005 100km  Scannell, Joan USA  1946 204 F 60 W55 5
5975 15:17:34 h   05.05.2018 100km  Rittgers, Mary USA  1980 260 F 62 W35 14
5976 15:17:37 h   06.05.2017 100km  Miller, Shaun USA  1977 256 M 194 M40 41
5977 15:17:38 h   30.04.2005 100km  Nguyen, Mylinh USA  1958 205 F 61 W45 12
5978 15:17:38 h   30.04.2005 100km  Pham, Chau (Joe) USA  1953 206 M 145 M50 22
5979 15:17:38 h   05.05.2018 100km  Vaughan, Eric USA  1980 261 M 199 M35 38
5980 15:17:40 h   07.05.2022 100km  Davila, Kjell USA  1983 214 M 154 M35 29
5981 15:17:40 h   03.05.2025 100km  Trach, Dana USA  1990 241 F 69 W35 17
5982 15:17:41 h   05.05.2018 100km  Thompson, Mark USA  1964 262 M 200 M50 28
5983 15:17:43 h   04.05.2019 100km  Osteen, Marianne USA  1960 237 F 63 W55 2
5984 15:17:43 h   03.05.2025 100km  Olivares, Adrian USA  1985 242 M 173 M40 44
5985 15:17:48 h   02.05.2026 100km  Hall, Elijah USA  1973 282 M 199 M50 17
5986 15:17:51 h   07.05.2022 100km  Fiandaca, Benjamin USA  1977 215 M 155 M45 29
5987 15:17:57 h   07.05.2016 100km  Engquist, Scott USA  1964 260 M 213 M50 28
5988 15:17:58 h   02.05.1998 100km  Jebian, Wini USA  1944 98 F 27 W50 6
5989 15:17:58 h   02.05.1998 100km  Jebian, Lee USA  1941 98 M 72 M55 4
5990 15:17:58 h   03.05.2025 100km  Kato, Sara JPN  1994 243 F 70 W30 14
5991 15:17:59 h   03.05.2014 100km  Beard, Jon USA  1954 289 M 227 M60 5
5992 15:18:00 h   02.05.2015 100km  Fales, Jonathan USA  1970 276 M 208 M45 42
5993 15:18:00 h   02.05.2015 100km  Morton, Thomas USA  1977 277 M 208 M35 46
5994 15:18:13 h   07.05.2022 100km  Johnson, Jeremiah USA  1974 216 M 156 M45 30
5995 15:18:14 h   02.05.2009 100km  Apple, Rob USA  1961 225 M 165 M45 34
5996 15:18:14 h   02.05.2009 100km  Donnelly, Susan USA  1963 226 F 61 W45 17
5997 15:18:16 h   07.05.2022 100km  Feller, Marija USA  1996 217 F 61 W20 3
5998 15:18:17 h   05.05.2018 100km  Ptacek, Lubor USA  1966 263 M 201 M50 29
5999 15:18:19 h   07.05.2022 100km  Beckham, Tony USA  1980 218 M 157 M40 31
6000 15:18:24 h   03.05.2025 100km  Herczeg, Jonathan USA  1981 244 M 174 M40 45
6001 15:18:28 h   03.05.2025 100km  Schanz, Dustin USA  1985 245 M 175 M40 46
6002 15:18:30 h   04.05.2019 100km  Joens, Alexia USA  1972 238 F 64 W45 11
6003 15:18:31 h   03.05.2025 100km  Sage, Rachael USA  1975 246 F 71 W50 7
6004 15:18:33 h   07.05.2022 100km  Cunningham, Dave USA  1988 219 M 158 M30 17
6005 15:18:34 h   04.05.2019 100km  Rogers, Randy USA  1979 239 M 175 M40 42
6006 15:18:35 h   05.05.2001 100km  Wilson, Charles (Chuck) USA  1948 147 M 107 M50 23
6007 15:18:36 h   05.05.2018 100km  Totaan, Peter USA  1973 264 M 202 M45 53
6008 15:18:40 h   30.04.2005 100km  Lundell, Don Charles USA  1962 207 M 146 M40 27
6009 15:18:41 h   07.05.2022 100km  Thomsen, Amy USA  1980 220 F 62 W40 21
6010 15:18:41 h   07.05.2022 100km  Thomsen, Scott USA  1980 221 M 159 M40 32
6011 15:18:49 h   30.04.2005 100km  Layson, Carmela USA  1969 208 F 62 W35 13
6012 15:18:53 h   06.05.2017 100km  Cannon, Jim USA  1954 257 M 195 M60 4
6013 15:18:54 h   06.05.2017 100km  Lubliner, Keith USA  1961 258 M 196 M55 12
6014 15:18:55 h   06.05.2017 100km  Cheung, Luisa USA  1972 259 F 63 W45 12
6015 15:18:57 h   01.05.2010 100km  Pfost, James USA  1951 238 M 162 M55 12
6016 15:18:57 h   01.05.2010 100km  Stoute, Luis PAN  1960 239 M 162 M50 22
6017 15:18:57 h   03.05.2014 100km  Ankeney, Bobb USA  1953 290 M 228 M60 6
6018 15:18:58 h   05.05.2018 100km  Roy, Jack USA  1971 265 M 203 M45 54
6019 15:18:59 h   05.05.2001 100km  Capron, David USA  1945 148 M 108 M55 13
6020 15:18:59 h   05.05.2001 100km  Adolf, Don USA  1936 149 M 108 M65 2
6021 15:19:00 h   02.05.2015 100km  Anderozzi, Roy USA  1968 278 M 210 M45 43
6022 15:19:00 h   02.05.2015 100km  Brown, Anabella USA  1966 279 F 69 W45 13
6023 15:19:00 h   02.05.2015 100km  Ralyea, Paul Anthony USA  1967 280 M 210 M45 43
6024 15:19:00 h   02.05.2015 100km  Whall, Barry USA  1964 281 M 210 M50 23
6025 15:19:02 h   02.05.2026 100km  Staten, Alex USA  1990 283 F 84 W35 24
6026 15:19:03 h   04.05.2024 100km  Pauly, Dale USA  1985 196 M 146 M35 36
6027 15:19:04 h   06.05.2017 100km  Alexander, James USA  1961 260 M 197 M55 13
6028 15:19:04 h   06.05.2017 100km  Hawthorne, Chris USA  1965 261 M 197 M50 33
6029 15:19:05 h   06.05.2017 100km  Arledge, John USA  1970 262 M 199 M45 39
6030 15:19:06 h   06.05.2017 100km  Lee, Yurie USA  1980 263 F 64 W35 18
6031 15:19:07 h   01.05.1999 100km  Vertrees, Ronald USA  1937 116 M 80 M60 4
6032 15:19:07 h   06.05.2017 100km  Arnold, Jeanie USA  1972 264 F 65 W45 13
6033 15:19:07 h   06.05.2017 100km  Martinez, Julian USA  1962 265 M 200 M55 14
6034 15:19:11 h   04.05.2024 100km  Bhasin, Saurabh USA  1980 197 M 147 M40 35
6035 15:19:12 h   04.05.2024 100km  Kihara, Ngugi USA  1985 198 M 148 M35 37
6036 15:19:23 h   01.05.2004 100km  Moore, Ted USA  1949 183 M 135 M55 13
6037 15:19:26 h   04.05.2024 100km  Pellegrino, Emily USA  1987 199 F 51 W35 8
6038 15:19:28 h   03.05.2014 100km  Badaracco, Janeth USA  1970 291 F 63 W40 16
6039 15:19:29 h   04.05.2019 100km  Hoberman, Eric USA  1976 240 M 176 M40 43
6040 15:19:39 h   03.05.2025 100km  Tellwright, Sunny USA  1991 247 M 0 #NA  
6041 15:19:42 h   05.05.2001 100km  Jebian, Wini USA  1944 150 F 41 W55 1
6042 15:19:46 h   04.05.2002 100km  Lundell, Don Charles USA  1962 171 M 129 M40 23
6043 15:19:52 h   01.05.2010 100km  Wolf, David USA  1963 240 M 164 M45 29
6044 15:19:55 h   07.05.2016 100km  Black, Andy USA  1958 261 M 214 M55 14
6045 15:20:00 h   02.05.2015 100km  Ankeney, Bobb USA  1953 282 M 213 M60 7
6046 15:20:00 h   02.05.2015 100km  Kam, Erica CAN  1966 283 F 70 W45 14
6047 15:20:00 h   02.05.2015 100km  Keane, Mick USA  1967 284 M 213 M45 45
6048 15:20:00 h   07.05.2016 100km  Jackson, David USA  1958 262 M 215 M55 15
6049 15:20:04 h   03.05.2003 100km  Gardner, Susan USA  1964 168 F 46 W35 11
6050 15:20:06 h   07.05.2022 100km  Anderson, John USA  1971 222 M 160 M50 29
6051 15:20:12 h   07.05.2011 100km  Stover, Jennifer USA  1966 249 F 56 W45 11
6052 15:20:12 h   07.05.2016 100km  Hamburg, Jennifer USA  1971 263 F 48 W45 13
6053 15:20:13 h   02.05.2026 100km  Weathers, Bryan USA  1980 284 M 200 M45 31
6054 15:20:14 h   03.05.2003 100km  Dewey, John USA  1954 169 M 123 M45 29
6055 15:20:17 h   04.05.2024 100km  Fiandaca, Benjamin USA  1977 200 M 149 M45 29
6056 15:20:21 h   03.05.2008 100km  Negoro, Yukihiko JPN  1960 248 M 176 M45 31
6057 15:20:21 h   05.05.2018 100km  Das, Pritam USA  1981 266 M 204 M35 39
6058 15:20:23 h   03.05.2008 100km  Failla, Glen USA  1963 249 M 177 M45 32
6059 15:20:23 h   03.05.2008 100km  Gates, Jacklyn USA  1982 250 F 73 W20 5
6060 15:20:23 h   03.05.2008 100km  Lee, Baldwin CAN  1973 251 M 177 M35 37
6061 15:20:23 h   03.05.2008 100km  Relyea, Noel USA  1945 252 F 73 W60 1
6062 15:20:32 h   05.05.2007 100km  Loomis, Cheryl USA  1947 179 F 57 W60 2
6063 15:20:37 h   05.05.2018 100km  Keane, Mick USA  1967 267 M 205 M50 30
6064 15:20:39 h   07.05.2016 100km  Misaka, Kirk USA  1958 264 M 216 M55 16
6065 15:20:42 h   05.05.2012 100km  Vigliotti, Lauren USA  1977 181 F 43 W35 11
6066 15:20:42 h   02.05.2026 100km  Timm, Tyler USA  1994 285 M 201 M30 32
6067 15:20:43 h   02.05.2026 100km  Chen, Hongbing USA  1967 286 M 202 M55 11
6068 15:20:45 h   02.05.2026 100km  Ahluwalia, Gulmohar USA  1996 287 F 85 W30 19
6069 15:20:46 h   03.05.2014 100km  Murphy, Damien USA  1971 292 M 229 M40 53
6070 15:20:46 h   03.05.2014 100km  Billingslea, Everett USA  1961 293 M 229 M50 21
6071 15:20:46 h   02.05.2026 100km  Pryshchepa, Daniil USA  1999 288 M 203 M20 20
6072 15:20:48 h   30.04.2005 100km  Boyd, Andrew USA  1941 209 M 147 M60 9
6073 15:20:49 h   02.05.2026 100km  Weir, David USA  1990 289 M 204 M35 42
6074 15:20:54 h   05.05.2012 100km  Miller, Todd USA  1973 182 M 139 M35 24
6075 15:20:56 h   03.05.2014 100km  Donnelly, Susan USA  1963 294 F 64 W50 9
6076 15:20:56 h   04.05.2024 100km  Kuhn, Alex USA  1989 201 M 150 M35 38
6077 15:20:58 h   01.05.2010 100km  Lafferty, Tony USA  1961 241 M 165 M45 30
6078 15:21:00 h   02.05.2015 100km  Judson, Michael USA  1970 285 M 215 M45 46
6079 15:21:00 h   02.05.2015 100km  Lyons Kessler, Jenna USA  1992 286 F 71 W20 9
6080 15:21:10 h   05.05.2018 100km  Kehoe, Keather USA  1972 268 F 63 W45 8
6081 15:21:11 h   05.05.2012 100km  Donnelly, Susan USA  1963 183 F 44 W45 5
6082 15:21:11 h   07.05.2022 100km  Goh, Mark USA  1979 223 M 161 M40 33
6083 15:21:13 h   03.05.2025 100km  Chavez, Amy USA  1965 248 F 72 W60 2
6084 15:21:14 h   05.05.2018 100km  Tarima, Sergey USA  1974 269 M 206 M40 38
6085 15:21:15 h   05.05.2018 100km  Franklin, Leith USA  1975 270 M 207 M40 39
6086 15:21:16 h   07.05.2016 100km  Dehaye, Michael USA  1970 265 M 217 M45 48
6087 15:21:16 h   05.05.2018 100km  Giddings, Brenda USA  1974 271 F 64 W40 19
6088 15:21:19 h   05.05.2018 100km  Bloom, Ilene USA  1971 272 F 65 W45 9
6089 15:21:19 h   05.05.2018 100km  Edwards, Challen USA  1966 273 F 65 W50 11
6090 15:21:20 h   02.05.2009 100km  Jewell, Jack USA  1954 227 M 166 M55 15
6091 15:21:20 h   05.05.2018 100km  Cheung, Luisa USA  1972 274 F 67 W45 10
6092 15:21:39 h   04.05.2019 100km  Fiandaca, Sam USA  1972 241 M 177 M45 30
6093 15:21:42 h   07.05.2016 100km  Dunn, Nate USA  1979 266 M 218 M35 40
6094 15:21:49 h   07.05.2016 100km  Zakroff, Jennifer USA  1974 267 F 49 W40 10
6095 15:21:53 h   07.05.2016 100km  Miskel, Michael USA  1959 268 M 219 M55 17
6096 15:21:57 h   05.05.2018 100km  Brown, Thomas USA  1971 275 M 208 M45 55
6097 15:21:59 h   07.05.2016 100km  Ruppert, Jim USA  1962 269 M 220 M50 29
6098 15:21:59 h   03.05.2025 100km  Aurangzeb, Qazi USA  1979 249 M 176 M45 22
6099 15:22:00 h   02.05.2015 100km  Burgess, Bill USA  1979 287 M 216 M35 47
6100 15:22:00 h   02.05.2015 100km  Jackson, David USA  1958 288 M 216 M55 10
6101 15:22:03 h   04.05.2019 100km  Frazer, Paul USA  1976 242 M 178 M40 44
6102 15:22:05 h   03.05.2003 100km  Duplessis, Janine USA  1954 170 F 47 W45 10
6103 15:22:05 h   03.05.2003 100km  Wagner, John USA  1948 171 M 124 M55 11
6104 15:22:05 h   03.05.2003 100km  Sanders, Sharon USA  1958 172 F 47 W45 10
6105 15:22:11 h   07.05.2016 100km  Marrs, Cara USA  1970 270 F 50 W45 14
6106 15:22:18 h   05.05.2001 100km  Florio, Joseph USA  1960 151 M 110 M40 18
6107 15:22:19 h   04.05.2019 100km  Hofer, Brenda USA  1974 243 F 65 W45 12
6108 15:22:20 h   03.05.2003 100km  Bonaccorsi, Peter USA  1944 173 M 125 M55 12
6109 15:22:25 h   07.05.2016 100km  Sullivan, Shawn USA  1977 271 M 221 M35 41
6110 15:22:42 h   07.05.2011 100km  Higgins, Buzz USA  1944 250 M 194 M65 2
6111 15:22:46 h   02.05.2009 100km  Hargett, John USA  1957 228 M 167 M50 19
6112 15:22:46 h   07.05.2011 100km  Maldonado, Roberto USA  1983 251 M 195 M20 11
6113 15:22:51 h   04.05.2019 100km  Barger, Luke USA  1977 244 M 179 M40 45
6114 15:22:55 h   04.05.2019 100km  Weston, Michael USA  1960 245 M 180 M55 11
6115 15:23:00 h   02.05.2015 100km  de la Vega, Samantha USA  1965 289 F 72 W50 8
6116 15:23:00 h   02.05.2015 100km  Dino, Michael USA  1982 290 M 218 M30 29
6117 15:23:00 h   02.05.2015 100km  Ku, Keh-Chiang USA  1971 291 M 218 M40 44
6118 15:23:00 h   02.05.2015 100km  Laan, Katherina USA  1978 292 F 72 W35 13
6119 15:23:03 h   02.05.2009 100km  Cuypers, May-Li USA  1966 229 F 62 W40 14
6120 15:23:05 h   03.05.2025 100km  Livingstone, Peter USA  1964 250 M 177 M60 8
6121 15:23:06 h   03.05.2025 100km  Coughlin, Pamela USA  1965 251 F 73 W60 3
6122 15:23:09 h   04.05.2019 100km  Valero, Miguel USA  1963 246 M 181 M55 12
6123 15:23:10 h   06.05.2017 100km  Denison, David USA  1961 266 M 201 M55 15
6124 15:23:14 h   01.05.2010 100km  Morris, Paul USA  1956 242 M 166 M50 23
6125 15:23:14 h   30.04.2005 100km  Godtfredsen, Charles USA  1968 210 M 148 M35 21
6126 15:23:16 h   06.05.2000 100km  Jebian, Wini USA  1944 137 F 42 W55 2
6127 15:23:19 h   04.05.2019 100km  Schenkkan, Penelope USA  1983 247 F 66 W35 15
6128 15:23:22 h   04.05.2019 100km  Sugianto, Rini INA  1980 248 F 67 W35 16
6129 15:23:23 h   03.05.2003 100km  Mitchell, Joe USA  1960 174 M 126 M40 29
6130 15:23:28 h   05.05.2007 100km  Donnelly, William USA  1950 180 M 123 M55 15
6131 15:23:32 h   03.05.2014 100km  Aker, Clyde The Glide USA  1952 295 M 231 M60 7
6132 15:23:33 h   03.05.1997 100km  Newsom, Claudia USA  1950 88 F 30 W45 7
6133 15:23:33 h   02.05.2026 100km  Dugan, Sara USA  1991 290 F 86 W35 25
6134 15:23:33 h   02.05.2026 100km  Goodman, Audrey USA  2000 291 F 86 W20 8
6135 15:23:34 h   03.05.2014 100km  Dunnigan, Anthony USA  1972 296 M 232 M40 54
6136 15:23:34 h   07.05.2016 100km  Gras, Eric USA  1980 272 M 222 M35 42
6137 15:23:37 h   03.05.1997 100km  Veirs, Audrey USA  1940 89 F 31 W55 1
6138 15:23:40 h   03.05.2014 100km  Hockensmith, Todd USA  1982 297 M 233 M30 34
6139 15:23:43 h   07.05.2011 100km  Denison, David USA  1961 252 M 196 M50 27
6140 15:23:43 h   07.05.2011 100km  Venable, Jeff USA  1955 253 M 196 M55 16
6141 15:23:43 h   07.05.2016 100km  Montanez, Farin USA  1988 273 F 51 W20 5
6142 15:23:44 h   04.05.2024 100km  Cacciatore, Brad USA  1984 202 M 151 M40 36
6143 15:23:46 h   04.05.2024 100km  Yasaka, Emi USA  1977 203 F 52 W45 8
6144 15:23:48 h   07.05.2011 100km  Masterson, Tom CAN  1944 254 M 198 M65 3
6145 15:23:49 h   04.05.2024 100km  Pike, Adam USA  1976 204 M 152 M45 30
6146 15:23:49 h   03.05.2025 100km  Matsuda, Yoshiro USA  1978 252 M 178 M45 23
6147 15:23:50 h   07.05.2022 100km  Gilbert, Dana USA  1990 224 F 63 W30 8
6148 15:23:52 h   03.05.2025 100km  Mitchell, Jake USA  1987 253 M 179 M35 34
6149 15:24:00 h   02.05.2015 100km  Kelley, Susan USA  1979 293 F 74 W35 14
6150 15:24:00 h   02.05.2015 100km  Ladrillono, Brian USA  1975 294 M 220 M40 45
6151 15:24:00 h   02.05.2015 100km  Medley, Brian USA  1974 295 M 220 M40 45
6152 15:24:00 h   02.05.2015 100km  Michalek, Peter USA  1958 296 M 220 M55 11
6153 15:24:00 h   02.05.2015 100km  Wallace, Ann USA  1976 297 F 74 W35 14
6154 15:24:06 h   03.05.2014 100km  Moret, Kirt USA  1954 298 M 234 M60 8
6155 15:24:08 h   05.05.2018 100km  Ankeney, Bobb USA  1953 276 M 209 M65 1
6156 15:24:08 h   02.05.2026 100km  Morales, Cristian USA  1992 292 M 205 M30 33
6157 15:24:13 h   02.05.2026 100km  Oliver, Kate USA  1984 293 F 88 W40 14
6158 15:24:18 h   07.05.2022 100km  Coughlin, Pamela USA  1964 225 F 64 W55 6
6159 15:24:18 h   02.05.2026 100km  Broekman, Bjorn USA  1994 294 M 206 M30 34
6160 15:24:20 h   04.05.2019 100km  Keating, Pete USA  1971 249 M 182 M45 31
6161 15:24:23 h   03.05.2014 100km  Ruppert, Jim USA  1962 299 M 235 M50 22
6162 15:24:34 h   05.05.2012 100km  Kast, Adam USA  1960 184 M 140 M50 14
6163 15:24:37 h   07.05.2016 100km  Furlong, Martin USA  1964 274 M 223 M50 30
6164 15:24:46 h   07.05.2011 100km  Weston, Michael USA  1960 255 M 199 M50 28
6165 15:25:00 h   02.05.2015 100km  Decastro, Augusto USA  1970 298 M 223 M45 47
6166 15:25:00 h   02.05.2015 100km  Miller, Holly USA  1974 299 F 76 W40 12
6167 15:25:03 h   02.05.2026 100km  Duerksen, Carter USA  1995 295 M 207 M30 35
6168 15:25:05 h   03.05.2008 100km  Nguyen, Mylinh USA  1958 253 F 75 W50 8
6169 15:25:11 h   03.05.2014 100km  Vigliotti, Lauren USA  1977 300 F 65 W35 18
6170 15:25:16 h   05.05.2007 100km  Griste, Jennifer USA  1963 181 F 58 W40 19
6171 15:25:16 h   03.05.2003 100km  Hanke, Karen USA  1962 175 F 49 W40 14
6172 15:25:17 h   03.05.2003 100km  Gallagher, Thomas USA  1957 176 M 127 M45 30
6173 15:25:18 h   04.05.2019 100km  Martinez, Julian USA  1962 250 M 183 M55 13
6174 15:25:21 h   03.05.2014 100km  Giuntoli, Chris USA  1962 301 M 236 M50 23
6175 15:25:22 h   03.05.2014 100km  Feeney, John USA  1959 302 M 237 M55 10
6176 15:25:26 h   04.05.2002 100km  Johnson, Melanie USA  1954 172 F 43 W45 8
6177 15:25:32 h   04.05.2024 100km  Moebus, Rachel USA  1986 205 F 53 W35 9
6178 15:25:33 h   06.05.2017 100km  Hesseltine, Wally USA  1943 267 M 202 M70 1
6179 15:25:34 h   04.05.2002 100km  Easterbrook, Jon USA  1953 173 M 130 M45 35
6180 15:25:35 h   07.05.2011 100km  Echizenya, Daigo USA  1969 256 M 200 M40 50
6181 15:25:36 h   06.05.2017 100km  Reuveni, Galit USA  1970 268 F 66 W45 14
6182 15:25:36 h   06.05.2017 100km  Myers, Robert USA  1970 269 M 203 M45 40
6183 15:25:38 h   01.05.2010 100km  Donnelly, Susan USA  1963 243 F 77 W45 13
6184 15:25:38 h   01.05.2010 100km  Apple, Rob USA  1961 244 M 167 M45 31
6185 15:25:40 h   06.05.2017 100km  Kegan, Amelia USA  1983 270 F 67 W30 8
6186 15:25:43 h   06.05.2017 100km  Chalfant, Robert USA  1968 271 M 204 M45 41
6187 15:25:43 h   07.05.2022 100km  Lucas, John USA  1969 226 M 162 M50 30
6188 15:25:45 h   05.05.2001 100km  Cope, Suzi USA  1947 152 F 42 W50 7
6189 15:25:45 h   06.05.2017 100km  Dalal, Satpal USA  1974 272 M 205 M40 42
6190 15:25:47 h   05.05.2012 100km  Slagel, Craig CAN  1972 185 M 141 M40 31
6191 15:25:47 h   06.05.2017 100km  Russell, Jeff USA  1959 273 M 206 M55 16
6192 15:25:50 h   03.05.2003 100km  O'Neil, Jim USA  1948 177 M 128 M55 13
6193 15:25:55 h   02.05.2009 100km  Krivak-Tetley, Flora USA  1980 230 F 63 W20 6
6194 15:25:58 h   07.05.2022 100km  Pise, Pradeep USA  1978 227 M 163 M40 34
6195 15:26:00 h   03.05.2014 100km  Martinez, Julian USA  1962 303 M 238 M50 24
6196 15:26:00 h   02.05.2015 100km  Marrs, Cara USA  1970 300 F 77 W45 15
6197 15:26:00 h   02.05.2015 100km  Perez, Tammy USA  1968 301 F 77 W45 15
6198 15:26:00 h   02.05.2015 100km  Quarles, Georganna USA  1954 302 F 77 W60 1
6199 15:26:02 h   06.05.2017 100km  Gerritz, Peter USA  1981 274 M 207 M35 43
6200 15:26:03 h   01.05.2010 100km  Gilbert, Bob USA  1963 245 M 168 M45 32
6201 15:26:04 h   03.05.2025 100km  Jensen, Grant USA  2000 254 M 180 M20 11
6202 15:26:06 h   05.05.2007 100km  Sligar-Scannell, Joan USA  1946 182 F 59 W60 3
6203 15:26:08 h   04.05.2024 100km  Russo, Micaela USA  1991 206 F 54 W30 12
6204 15:26:19 h   05.05.2007 100km  Nicholson, Peter USA  1959 183 M 124 M45 22
6205 15:26:19 h   05.05.2007 100km  Strong-Barrett, Nicole USA  1965 184 F 60 W40 20
6206 15:26:22 h   04.05.2002 100km  Parker, Trina USA  1960 174 F 44 W40 13
6207 15:26:24 h   02.05.2026 100km  Dykstra, Justin USA  1994 296 M 208 M30 36
6208 15:26:25 h   07.05.2016 100km  Montoya, Joey USA  1978 275 M 224 M35 43
6209 15:26:25 h   06.05.2017 100km  MacCormack, Jennifer USA  1971 275 F 68 W45 15
6210 15:26:29 h   03.05.2003 100km  Cuminale, Carol USA  1952 178 F 50 W50 6
6211 15:26:31 h   06.05.2017 100km  Hong, Duke USA  1967 276 M 208 M50 34
6212 15:26:34 h   04.05.2002 100km  Ellis, Carol USA  1954 175 F 45 W45 9
6213 15:26:42 h   04.05.2024 100km  Prejean Maddison, Masharika USA  1982 207 F 55 W40 14
6214 15:26:44 h   05.05.2018 100km  Velasquez, Christine USA  1972 277 F 68 W45 11
6215 15:26:45 h   06.05.2006 100km  Willie, Dessa USA  1963 209 F 65 W40 20
6216 15:26:45 h   03.05.2014 100km  Goodman, Harris USA  1965 304 M 239 M45 60
6217 15:26:47 h   04.05.2024 100km  Young, Richard USA  1965 208 M 153 M55 10
6218 15:26:47 h   03.05.2025 100km  Ortiz, Neil USA  1970 255 M 181 M55 5
6219 15:26:51 h   03.05.2008 100km  Jones, Charley USA  1971 254 M 179 M35 38
6220 15:26:54 h   03.05.2008 100km  de Guzman, Domingo USA  1959 255 M 180 M45 33
6221 15:26:54 h   05.05.2018 100km  Ruppert, Jim USA  1962 278 M 210 M55 16
6222 15:26:55 h   02.05.2009 100km  San Gabriel, Joselito USA  1968 231 M 168 M40 47
6223 15:26:57 h   07.05.2016 100km  Hallstein, Trevor USA  1972 276 M 225 M40 42
6224 15:27:00 h   02.05.2015 100km  Weintz, Michael USA  1970 303 M 224 M45 48
6225 15:27:03 h   07.05.2016 100km  Tsai, Itao USA  1971 277 M 226 M45 49
6226 15:27:06 h   06.05.2017 100km  Sanders, Christa CAN  1969 277 F 69 W45 16
6227 15:27:06 h   02.05.2026 100km  Height, Joshua USA  1982 297 M 209 M40 49
6228 15:27:07 h   02.05.2026 100km  Wittmann, Kristal USA  1982 298 F 89 W40 15
6229 15:27:11 h   07.05.2011 100km  Liu, Wilson USA  1957 257 M 201 M50 29
6230 15:27:15 h   03.05.2008 100km  Pelsor, Thomas USA  1944 256 M 181 M60 7
6231 15:27:19 h   01.05.2010 100km  Acosta, Deborah USA  1975 246 F 78 W35 24
6232 15:27:25 h   03.05.2014 100km  Dudney, Gary USA  1952 305 M 240 M60 9
6233 15:27:26 h   07.05.2022 100km  Jang, Hyun-Suk USA  1976 228 F 65 W45 11
6234 15:27:27 h   04.05.2019 100km  Okoye, Hakeem Michael GBR  1975 251 M 184 M40 46
6235 15:27:30 h   30.04.2005 100km  Boyd, Marie USA  1948 211 F 63 W55 6
6236 15:27:30 h   03.05.2014 100km  Burton, Ian USA  1984 306 M 241 M30 35
6237 15:27:30 h   07.05.2016 100km  Stubbert, Sam USA  1972 278 M 227 M40 43
6238 15:27:32 h   01.05.2010 100km  Fernandez Mendaro, Adolfo MEX  1959 247 M 169 M50 24
6239 15:27:33 h   07.05.2022 100km  Fergot, Sarah USA  1975 229 F 66 W45 12
6240 15:27:35 h   04.05.2024 100km  Shin, Phil USA  1970 209 M 154 M50 11
6241 15:27:39 h   02.05.2009 100km  Bartelheim, Sharon USA  1959 232 F 64 W50 6
6242 15:27:40 h   04.05.2019 100km  Karr, Cam USA  1963 252 F 68 W55 3
6243 15:27:41 h   03.05.1997 100km  Elam, Linda USA  1945 90 F 32 W50 8
6244 15:27:41 h   03.05.1997 100km  Young, Kathy USA  1947 91 F 32 W50 8
6245 15:27:41 h   03.05.2003 100km  Golds, Jeffrey USA  1970 179 M 129 M30 12
6246 15:27:41 h   03.05.2014 100km  Blakemore, Ashley USA  1985 307 F 66 W20 4
6247 15:27:41 h   03.05.2014 100km  Blakemore, Conan USA  1983 308 M 242 M30 36
6248 15:27:41 h   03.05.2025 100km  Liao, Anna USA  1980 256 F 74 W45 11
6249 15:27:45 h   03.05.2025 100km  Cox, Leah USA  1972 257 F 75 W50 8
6250 15:27:45 h   02.05.2026 100km  Stofferahn, Karin USA  1994 299 F 90 W30 20
6251 15:27:45 h   02.05.2026 100km  Goertz, Maria USA  1987 300 F 90 W35 26
6252 15:27:50 h   05.05.1996 100km  Eldridge, Craig USA  1956 57 M 45 M40 4
6253 15:27:50 h   03.05.2003 100km  Lundell, Don Charles USA  1962 180 M 130 M40 30
6254 15:27:50 h   03.05.2003 100km  Robinson, Gillian USA  1966 181 F 51 W35 12
6255 15:27:51 h   07.05.2016 100km  Swanson, Gunhild USA  1944 279 F 52 W70 1
6256 15:27:55 h   04.05.2019 100km  Foley, Dan USA  1961 253 M 185 M55 14
6257 15:27:55 h   07.05.2022 100km  Paschke, Christopher USA  1971 230 M 164 M50 31
6258 15:28:00 h   02.05.2015 100km  Cole, Michael USA  1964 304 M 225 M50 24
6259 15:28:00 h   02.05.2015 100km  Oberhardt, Marilyn USA  1964 305 F 80 W50 9
6260 15:28:07 h   05.05.2012 100km  Cirrincione, Kyle USA  1983 186 M 142 M20 10
6261 15:28:12 h   07.05.2016 100km  Ballesteros, Alex USA  1975 280 M 228 M40 44
6262 15:28:14 h   07.05.2011 100km  Chan, Jason USA  1976 258 M 202 M35 39
6263 15:28:23 h   07.05.2016 100km  Hesseltine, Wally USA  1943 281 M 229 M70 1
6264 15:28:27 h   07.05.2011 100km  Verdon, Tony USA  1979 259 M 203 M30 13
6265 15:28:29 h   07.05.2016 100km  Bolen, Timothy USA  1966 282 M 230 M50 31
6266 15:28:29 h   03.05.2025 100km  Fiandaca, Benjamin USA  1977 258 M 182 M45 24
6267 15:28:30 h   05.05.2018 100km  Weigel, Sarah USA  1976 279 F 69 W40 20
6268 15:28:31 h   05.05.2018 100km  Kenkre, Baban USA  1976 280 M 211 M40 40
6269 15:28:35 h   05.05.2018 100km  McGahan, Perry USA  1959 281 M 212 M55 17
6270 15:28:36 h   02.05.2009 100km  Paquin, Deborah USA  1959 233 F 65 W50 7
6271 15:28:41 h   07.05.2016 100km  Paulson, Marianne USA  1964 283 F 53 W50 5
6272 15:28:46 h   04.05.2024 100km  Holland, Mariah USA  1981 210 F 56 W40 15
6273 15:28:48 h   05.05.2018 100km  Aversa, Chris USA  1982 282 M 213 M35 40
6274 15:28:49 h   05.05.2007 100km  Kearney, Brian USA  1957 185 M 125 M50 19
6275 15:28:51 h   05.05.2018 100km  Judson, Michael USA  1970 283 M 214 M45 56
6276 15:28:53 h   03.05.2003 100km  LaPlant, Carol USA  1947 182 F 52 W55 2
6277 15:28:55 h   05.05.2001 100km  Piper, Daniel USA  1956 153 M 111 M45 26
6278 15:29:00 h   02.05.2015 100km  Squires, Luke USA  1977 306 M 226 M35 48
6279 15:29:00 h   02.05.2015 100km  Wendling, Leigh-Ann USA  1967 307 F 81 W45 17
6280 15:29:02 h   04.05.2024 100km  Gasch, Mischa USA  1976 211 M 155 M45 31
6281 15:29:04 h   07.05.2011 100km  Curley, Dennis USA  1956 260 M 204 M55 17
6282 15:29:04 h   04.05.2024 100km  Kortz, Kim USA  1964 212 F 57 W60 1
6283 15:29:06 h   30.04.2005 100km  Rodgers, Jack USA  1956 212 M 149 M45 29
6284 15:29:08 h   07.05.2011 100km  Bartelheim, Sharon USA  1959 261 F 57 W50 7
6285 15:29:09 h   03.05.1997 100km  Tine, Rick USA  1947 92 M 59 M50 15
6286 15:29:15 h   07.05.2011 100km  Feeney, John USA  1959 262 M 205 M50 30
6287 15:29:15 h   06.05.2017 100km  Misaka, Kirk USA  1958 278 M 209 M55 17
6288 15:29:15 h   05.05.2018 100km  Brunsman, Turk USA  1979 284 F 70 W35 15
6289 15:29:18 h   07.05.2016 100km  Luther, Joey USA  1979 284 M 231 M35 44
6290 15:29:18 h   04.05.2024 100km  Carr, Derrick USA  1961 213 M 156 M60 2
6291 15:29:22 h   06.05.2006 100km  Ashdown, Dwight USA  1954 210 M 145 M50 19
6292 15:29:22 h   07.05.2016 100km  Wong, Victor USA  1989 285 M 232 M20 13
6293 15:29:23 h   05.05.2012 100km  Kirkwood-Watts, Dana USA  1974 187 F 45 W35 12
6294 15:29:23 h   04.05.2024 100km  Weber, Christopher USA  1972 214 M 157 M50 12
6295 15:29:24 h   04.05.2024 100km  Carr, Maddi USA  1994 215 F 58 W30 13
6296 15:29:26 h   04.05.2019 100km  Tang, Jianshan USA  1969 254 M 186 M50 22
6297 15:29:27 h   05.05.2018 100km  Nelson, Caroline USA  1955 285 F 71 W60 2
6298 15:29:29 h   05.05.2012 100km  Bodas, Bryan USA  1968 188 M 143 M40 32
6299 15:29:29 h   04.05.2024 100km  Murray, Kevin USA  1984 216 M 158 M40 37
6300 15:29:30 h   02.05.1998 100km  Salmonson, P.J. USA  1947 100 F 28 W50 7
6301 15:29:30 h   02.05.1998 100km  Shearer, Suzi USA  1948 100 F 28 W50 7
6302 15:29:30 h   04.05.2019 100km  Winkler, Simone Angela USA  1982 255 F 69 W35 17
6303 15:29:36 h   07.05.2016 100km  Foster, Sara USA  1975 286 F 54 W40 11
6304 15:29:37 h   03.05.2025 100km  Marlot, Julien USA  1978 259 M 183 M45 25
6305 15:29:38 h   03.05.2003 100km  Sullivan, Marty USA  1960 183 M 131 M40 31
6306 15:29:39 h   02.05.2026 100km  Grijalvo, Ana USA  1976 301 F 92 W50 5
6307 15:29:40 h   07.05.2016 100km  Johnson, Robert USA  1970 287 M 233 M45 50
6308 15:29:42 h   07.05.2022 100km  Trent, John USA  1963 231 M 165 M55 12
6309 15:29:52 h   03.05.2025 100km  Gersten, Cambria USA  1979 260 F 76 W45 12
6310 15:29:53 h   04.05.2024 100km  Armbrust, John USA  1981 217 M 159 M40 38
6311 15:29:54 h   06.05.2017 100km  Fiandaca, Benjamin USA  1977 279 M 210 M40 43
6312 15:29:59 h   07.05.2016 100km  Wong, Dale USA  1970 288 M 234 M45 51
6313 15:29:59 h   07.05.2016 100km  Gilcrest, Robert USA  1965 288 M 234 M50 32
6314 15:30:00 h   02.05.2015 100km  Wang, David USA  1991 308 M 227 M20 12
6315 15:30:03 h   03.05.2008 100km  Geantil, Thomas USA  1947 257 M 182 M60 8
6316 15:30:03 h   03.05.2003 100km  Gillis, Cheri USA  1952 184 F 53 W50 7
6317 15:30:10 h   06.05.2017 100km  Sahakian, Valerie USA  1991 280 F 70 W20 6
6318 15:30:10 h   06.05.2017 100km  Kernasovskiy, Dmitriy USA  1983 281 M 211 M30 23
6319 15:30:11 h   06.05.2017 100km  Kernasovskiy, Sarah USA  1986 282 F 71 W30 9
6320 15:30:12 h   07.05.2011 100km  Thaker, Darshan USA  1974 263 M 206 M35 40
6321 15:30:12 h   04.05.2019 100km  Goldstein, Joshua USA  1965 256 M 187 M50 23
6322 15:30:18 h   04.05.2024 100km  Dina, Matthew USA  1977 218 M 160 M45 32
6323 15:30:19 h   04.05.2024 100km  Chung, Cyndi USA  1989 219 F 59 W35 10
6324 15:30:19 h   02.05.2026 100km  Cross, Keagan USA  2001 302 F 93 W20 9
6325 15:30:20 h   04.05.2019 100km  Di Bella, Alessio ITA  1966 257 M 188 M50 24
6326 15:30:20 h   02.05.2026 100km  Heng, Narinda USA  1985 303 F 94 W40 16
6327 15:30:21 h   05.05.2018 100km  Fiandaca, Benjamin USA  1977 286 M 215 M40 41
6328 15:30:23 h   06.05.2017 100km  Nguyen, Bruce USA  1975 283 M 212 M40 44
6329 15:30:37 h   04.05.2024 100km  Schjelderup, Christina USA  1982 220 F 60 W40 16
6330 15:30:37 h   04.05.2024 100km  Verdi, Elisheva USA  1975 221 F 60 W45 9
6331 15:30:41 h   03.05.2014 100km  Shijo, Patty USA  1959 309 F 67 W55 2
6332 15:30:47 h   04.05.2024 100km  Wolfe, Chris USA  1982 222 M 161 M40 39
6333 15:30:48 h   06.05.2017 100km  Fu, Chihping TPE  1966 284 M 213 M50 35
6334 15:30:51 h   01.05.2004 100km  Pohl, Buddy USA  1971 184 M 136 M30 15
6335 15:30:55 h   01.05.2004 100km  Jensen, Roger USA  1959 185 M 137 M45 31
6336 15:30:56 h   05.05.2018 100km  Farries, Nancy CAN  1966 287 F 72 W50 12
6337 15:31:02 h   06.05.2017 100km  Walla, Claire USA  1984 285 F 72 W30 10
6338 15:31:29 h   04.05.2019 100km  Fiandaca, Benjamin USA  1977 258 M 189 M40 47
6339 15:31:29 h   04.05.2019 100km  Adami, Lynn USA  1966 259 F 70 W50 6
6340 15:31:32 h   04.05.2019 100km  Noble, Greg USA  1970 260 M 190 M45 32
6341 15:31:34 h   07.05.2022 100km  Evans-Orville, Keith USA  1968 232 M 166 M50 32
6342 15:31:36 h   07.05.2022 100km  Marsh, Jay USA  1963 233 M 167 M55 13
6343 15:31:37 h   07.05.2022 100km  Huang, David USA  1983 234 M 168 M35 30
6344 15:31:40 h   03.05.1997 100km  Lister, Danny USA  1960 93 M 60 M35 5
6345 15:31:41 h   07.05.2022 100km  Ha, Tommy USA  1985 235 M 169 M35 31
6346 15:31:42 h   07.05.2022 100km  Rodriguez, Jesus USA  1971 236 M 170 M50 33
6347 15:31:43 h   05.05.2012 100km  Bernhardt, Steven USA  1964 189 M 144 M45 27
6348 15:31:46 h   07.05.2022 100km  Korn, Peter USA  1965 237 M 171 M55 14
6349 15:31:46 h   07.05.2022 100km  Montenegro-Paredes, Jorge USA  1969 238 M 171 M50 34
6350 15:31:54 h   07.05.2022 100km  Petersen, John USA  1970 239 M 173 M50 35
6351 15:32:01 h   07.05.2022 100km  Dymmel, Kristen USA  1977 240 F 67 W45 13
6352 15:32:02 h   07.05.2022 100km  Monem, Mansour USA  1959 241 M 174 M60 6
6353 15:32:07 h   07.05.2022 100km  Hough, Joshua USA  1976 242 M 175 M45 31
6354 15:32:16 h   07.05.2022 100km  Song, Beatrice USA  1961 243 F 68 W60 2
6355 15:32:20 h   06.05.2006 100km  Scannell, Joan USA  1946 211 F 66 W60 3
6356 15:32:29 h   03.05.2014 100km  Feign, Cory USA  1977 310 M 243 M35 37
6357 15:32:30 h   03.05.2008 100km  Fukuda, Ricka JPN  1965 258 M 183 M40 47
6358 15:32:31 h   07.05.2022 100km  Wilson, Jeff USA  1971 244 M 176 M50 36
6359 15:32:45 h   04.05.2019 100km  Flowers, Richard USA  1971 261 M 191 M45 33
6360 15:32:46 h   01.05.2004 100km  Burnett, Joanne USA  1963 186 F 49 W40 18
6361 15:32:48 h   07.05.2022 100km  Jeung, Matthew USA  1984 245 M 177 M35 32
6362 15:32:55 h   04.05.2002 100km  Rice, Bill USA  1954 176 M 131 M45 36
6363 15:32:56 h   07.05.2022 100km  Fenty, Phillip USA  1990 246 M 178 M30 18
6364 15:32:59 h   03.05.2003 100km  Bouscaren, Michael USA  1947 185 M 132 M55 14
6365 15:33:00 h   04.05.2019 100km  MacKenzie, Suzanne USA  1965 262 F 71 W50 7
6366 15:33:15 h   01.05.1999 100km  Hodges, Elizabeth USA  1950 117 F 37 W45 10
6367 15:33:17 h   07.05.2022 100km  Droubi, Omar USA  1972 247 M 179 M50 37
6368 15:33:18 h   04.05.2002 100km  Claire-Zimmet, Karen USA  1969 177 F 46 W30 2
6369 15:33:30 h   06.05.2006 100km  Morrison, Larry USA  1948 212 M 146 M55 11
6370 15:33:31 h   05.05.2012 100km  Song, Beatrice USA  1961 190 F 46 W50 6
6371 15:33:35 h   01.05.2010 100km  Shigley, Paul USA  1964 248 M 170 M45 33
6372 15:33:45 h   05.05.2012 100km  Conwell, Chris USA  1976 191 M 145 M35 25
6373 15:33:57 h   03.05.2003 100km  Whitin, John USA  1951 186 M 133 M50 28
6374 15:34:09 h   30.04.2005 100km  Murphy, Bonnelle USA  1947 213 F 64 W55 7
6375 15:34:21 h   03.05.2008 100km  Crouse, Ken USA  1955 259 M 184 M50 21
6376 15:34:25 h   02.05.2009 100km  Gosney, Eldrith USA  1941 234 F 66 W65 1
6377 15:34:29 h   05.05.2012 100km  Brunt, Ken USA  1964 192 M 146 M45 28
6378 15:34:34 h   03.05.2003 100km  Savage, Charles USA  1947 187 M 134 M55 15
6379 15:34:50 h   05.05.2001 100km  Savage, Charles USA  1947 154 M 112 M50 24
6380 15:35:10 h   03.05.2014 100km  Kasiulis, Erick USA  1961 311 M 244 M50 25
6381 15:35:15 h   03.05.2008 100km  Lauritzen, Dennis USA  1956 260 M 185 M50 22
6382 15:35:17 h   03.05.2008 100km  Bartz, Matt USA  1975 261 M 186 M30 18
6383 15:35:20 h   06.05.2000 100km  Wright, David USA  1947 138 M 96 M50 18
6384 15:35:24 h   04.05.2019 100km  Carroll, Keely USA  1971 263 F 72 W45 13
6385 15:35:30 h   05.05.2012 100km  Wood, Lauren USA  1969 193 F 47 W40 5
6386 15:35:35 h   07.05.2022 100km  Barnhart, Nina USA  1985 248 F 69 W35 10
6387 15:35:40 h   05.05.2012 100km  Silverthorn, Jen CAN  1970 194 F 48 W40 6
6388 15:35:45 h   05.05.2012 100km  Wenceslao, Jael PHI  1981 195 M 147 M30 30
6389 15:35:50 h   07.05.2022 100km  Conner, Jeffrey USA  1981 249 M 180 M40 35
6390 15:36:58 h   02.05.1998 100km  Young, Kathy USA  1947 102 F 30 W50 9
6391 15:37:19 h   05.05.2012 100km  Pontillas, Mariano USA  1973 196 M 148 M35 26
6392 15:37:19 h   04.05.2019 100km  Krantz, Lisa USA  1974 264 F 73 W45 14
6393 15:37:25 h   06.05.2006 100km  Gillis, Cheri USA  1952 213 F 67 W50 4
6394 15:37:25 h   05.05.2001 100km  Hanke, Karen USA  1962 155 F 43 W35 13
6395 15:37:30 h   05.05.2001 100km  Dea, Duane USA  1949 156 M 113 M50 25
6396 15:37:34 h   04.05.2019 100km  Yang, Victor USA  1976 265 M 192 M40 48
6397 15:37:39 h   03.05.2014 100km  Leinfellner, Norbert USA  1966 312 M 245 M45 61
6398 15:37:40 h   03.05.2014 100km  Grimm, Rachel USA  1982 313 F 68 W30 11
6399 15:37:40 h   03.05.2014 100km  Grimm, Richard USA  1949 314 M 246 M65 1
6400 15:37:41 h   03.05.2014 100km  DeHesse, Margaret USA  1956 315 F 69 W55 3
6401 15:37:44 h   03.05.2014 100km  Cook, Edwin USA  1955 316 M 247 M55 11
6402 15:37:48 h   04.05.2002 100km  Rhodes, Theresa USA  1956 178 F 47 W45 10
6403 15:37:48 h   04.05.2002 100km  Rhodes, John USA  1947 179 M 132 M55 14
6404 15:38:08 h   03.05.2008 100km  Arnold, Brenda USA  1971 262 F 76 W35 13
6405 15:38:15 h   03.05.2014 100km  Elliott, Kim USA  1967 317 F 70 W45 8
6406 15:38:18 h   05.05.2001 100km  Piva, Ray USA  1925 157 M 114 M75 1
6407 15:38:21 h   04.05.2002 100km  Boeder, Robert USA  1942 180 M 133 M60 13
6408 15:38:25 h   03.05.2014 100km  Buckley, Suzy CAN  1975 318 F 71 W35 19
6409 15:38:34 h   06.05.2000 100km  Williams, Harold USA  1940 139 M 97 M60 5
6410 15:38:35 h   03.05.2014 100km  Bobrowski, K.C. USA  1978 319 F 72 W35 20
6411 15:38:38 h   03.05.2014 100km  Cabbat, Christopher USA  1982 320 M 248 M30 37
6412 15:38:40 h   06.05.2006 100km  Quivey, David USA  1963 214 M 147 M40 33
6413 15:38:42 h   03.05.2014 100km  Brown, Anabella USA  1966 321 F 73 W45 9
6414 15:38:45 h   03.05.2014 100km  Fiandaca, Benjamin USA  1977 322 M 249 M35 38
6415 15:39:13 h   30.04.2005 100km  Strudley, Trevor USA  1962 214 M 150 M40 28
6416 15:39:27 h   06.05.2006 100km  Loomis, Cheryl USA  1947 215 F 68 W55 3
6417 15:39:27 h   06.05.2006 100km  Tagaca, Kathleen USA  1973 216 F 68 W30 10
6418 15:39:27 h   06.05.2006 100km  Vlcek, Rex USA  1960 217 M 148 M45 28
6419 15:39:30 h   03.05.2008 100km  Dickinson, Robert USA  1955 263 M 187 M50 23
6420 15:39:51 h   07.05.2022 100km  Freeman, Molly USA  1976 250 F 70 W45 14
6421 15:39:55 h   01.05.2010 100km  Fosselman, Robert USA  1983 249 M 171 M20 12
6422 15:40:15 h   07.05.2011 100km  Gosney, Eldrith USA  1941 264 F 58 W70 1
6423 15:40:16 h   03.05.2003 100km  Mount, Ray USA  1946 188 M 135 M55 16
6424 15:40:27 h   05.05.2012 100km  Sweeney, Steven USA  1955 197 M 149 M55 6
6425 15:40:30 h   05.05.2012 100km  Rossi, Alan USA  1965 198 M 150 M45 29
6426 15:40:34 h   04.05.2019 100km  Sutter, Jami USA  1973 266 F 74 W45 15
6427 15:40:40 h   05.05.2012 100km  Schiltz, Anita USA  1964 199 F 49 W45 6
6428 15:40:55 h   04.05.2019 100km  Andrews, Mark USA  1979 267 M 193 M40 49
6429 15:41:00 h   01.05.2004 100km  Thomson, Kevin CAN  1964 187 M 138 M40 30
6430 15:41:03 h   04.05.2019 100km  Flowers, Tammy USA  1972 268 F 75 W45 16
6431 15:41:08 h   06.05.2006 100km  Farar-Griefer, Shannon USA  1961 218 F 70 W45 15
6432 15:41:08 h   03.05.2014 100km  Ralyea, Paul Anthony USA  1967 323 M 250 M45 62
6433 15:41:17 h   05.05.2012 100km  Wroblewski, Thomas GER  1958 200 M 151 M50 15
6434 15:41:18 h   03.05.2014 100km  Musy-Verdel, Thierry USA  1977 324 M 251 M35 39
6435 15:41:20 h   01.05.2010 100km  Jones, Charley USA  1971 250 M 172 M35 36
6436 15:41:31 h   30.04.2005 100km  Pelsor, Thomas USA  1944 215 M 151 M60 10
6437 15:41:32 h   02.05.1998 100km  Turon, Michael USA  1947 103 M 73 M50 14
6438 15:41:35 h   03.05.2003 100km  Blais, Amy USA  1977 189 F 54 W20 3
6439 15:41:42 h   03.05.2008 100km  Hudgens, Stephen USA  1955 264 M 188 M50 24
6440 15:41:42 h   03.05.2014 100km  Gallegos, Yvonne USA  1980 325 F 74 W30 12
6441 15:41:48 h   04.05.2019 100km  Verrilli, Gregory USA  1976 269 M 194 M40 50
6442 15:41:50 h   30.04.2005 100km  Martisko, Lester USA  1944 216 M 152 M60 11
6443 15:41:56 h   07.05.2011 100km  Apple, Rob USA  1961 265 M 207 M50 31
6444 15:41:56 h   07.05.2011 100km  Donnelly, Susan USA  1963 266 F 59 W45 12
6445 15:42:10 h   06.05.2006 100km  Patel, Rajeev USA  1960 219 M 149 M45 29
6446 15:42:21 h   01.05.2004 100km  Lynes, Robert USA  1938 188 M 139 M65 1
6447 15:42:21 h   01.05.2004 100km  Elia, Barbara USA  1944 189 F 50 W60 2
6448 15:42:44 h   01.05.2010 100km  Hennessey, Carolyn USA  1966 251 F 79 W40 14
6449 15:42:44 h   04.05.2019 100km  Ralyea, Paul Anthony USA  1967 270 M 195 M50 25
6450 15:42:48 h   03.05.2014 100km  Girvin, Alicia USA  1979 326 F 75 W35 21
6451 15:42:50 h   03.05.2014 100km  Strauss, Stephen USA  1954 327 M 252 M60 10
6452 15:43:07 h   05.05.2012 100km  Steinmetz, Joe USA  1964 201 M 152 M45 30
6453 15:43:08 h   30.04.2005 100km  Sanders, Mark USA  1952 217 M 153 M50 23
6454 15:43:17 h   07.05.2011 100km  Strach, Walter USA  1970 267 M 208 M40 51
6455 15:43:32 h   01.05.2004 100km  Baker, Allyson USA  1967 190 F 51 W35 4
6456 15:43:34 h   30.04.2005 100km  Aker, Clyde The Glide USA  1952 218 M 154 M50 24
6457 15:43:41 h   01.05.2010 100km  Domont, Noah USA  1973 252 M 173 M35 37
6458 15:43:43 h   01.05.2004 100km  Murphy, Bonnelle USA  1947 191 F 52 W55 4
6459 15:43:46 h   02.05.2009 100km  Weston, Michael USA  1960 235 M 169 M45 35
6460 15:44:16 h   04.05.2019 100km  Norris, Cory USA  1972 271 M 196 M45 34
6461 15:44:33 h   02.05.2009 100km  Terry, Daryle USA  1969 236 M 170 M40 48
6462 15:44:40 h   05.05.2012 100km  Blakemore, Conan USA  1983 202 M 153 M20 11
6463 15:44:42 h   30.04.2005 100km  Kaisersatt, Tom USA  1940 219 M 155 M65 2
6464 15:44:48 h   03.05.2014 100km  Dey, Brandon USA  1977 328 M 253 M35 40
6465 15:44:52 h   03.05.2014 100km  Hoberg, Rebecca USA  1976 329 F 76 W35 22
6466 15:45:21 h   03.05.2003 100km  Griffin, Kevin USA  1954 190 M 136 M45 31
6467 15:45:21 h   03.05.2003 100km  Griffin, Jennifer USA  1959 191 F 55 W40 15
6468 15:45:30 h   02.05.1998 100km  Hanif-Weddle, Famida USA  1953 104 F 31 W45 7
6469 15:45:36 h   01.05.2010 100km  Hunt, Shannon USA  1971 253 F 80 W35 25
6470 15:45:56 h   01.05.2010 100km  Williams, Kevin USA  1971 254 M 174 M35 38
6471 15:46:10 h   05.05.2012 100km  Gannon, Aaron USA  1970 203 M 154 M40 33
6472 15:46:10 h   05.05.2012 100km  Stone, Francesca USA  1962 204 F 50 W50 7
6473 15:46:12 h   03.05.2014 100km  Moore, Lisa CAN  1971 330 F 77 W40 17
6474 15:46:17 h   05.05.2001 100km  Syrett, Mark USA  1949 158 M 115 M50 26
6475 15:46:25 h   06.05.2000 100km  Felder, Lisa USA  1946 140 F 43 W50 8
6476 15:46:30 h   03.05.1997 100km  Davis, Robert USA  1950 94 M 61 M45 16
6477 15:46:37 h   06.05.2000 100km  McDevitt, Daniel USA  1960 141 M 98 M40 21
6478 15:46:44 h   05.05.2001 100km  Parker, Trina USA  1960 159 F 44 W40 9
6479 15:46:49 h   03.05.2014 100km  Casale, Eva USA  1965 331 F 78 W45 10
6480 15:46:53 h   07.05.2011 100km  Harrington, Elise USA  1955 268 F 60 W55 4
6481 15:47:06 h   05.05.2001 100km  Reagan, Stephen USA  1953 160 M 116 M45 27
6482 15:47:20 h   04.05.2002 100km  Siglin, Page USA  1965 181 M 134 M35 11
6483 15:47:21 h   04.05.2002 100km  Dea, Duane USA  1949 182 M 135 M50 20
6484 15:47:22 h   06.05.2006 100km  Jebian, Wini USA  1944 220 F 71 W60 4
6485 15:47:23 h   05.05.2012 100km  Dumitrescu, Bogie (Dee) USA  1974 205 M 155 M35 27
6486 15:48:04 h   03.05.2008 100km  Forrest, Diane USA  1961 265 F 77 W45 22
6487 15:48:18 h   03.05.1997 100km  Holmes, Fred USA  1937 95 M 62 M60 4
6488 15:48:18 h   05.05.2012 100km  Quarles, Georganna USA  1954 206 F 51 W55 3
6489 15:48:28 h   05.05.2012 100km  Chan, Hei USA  1980 207 M 156 M30 31
6490 15:48:46 h   01.05.2004 100km  Savage, Charles USA  1947 192 M 140 M55 14
6491 15:48:56 h   05.05.2012 100km  Jones, Charley USA  1971 208 M 157 M40 34
6492 15:49:08 h   03.05.2014 100km  Tilley, Matthew USA  1968 332 M 254 M45 63
6493 15:49:11 h   03.05.2014 100km  Wright, Lisa USA  1961 333 F 79 W50 10
6494 15:49:20 h   04.05.2002 100km  Demoney, Edwin USA  1934 183 M 136 M65 1
6495 15:50:08 h   02.05.2009 100km  Charbonneau, Vincent CAN  1970 237 M 171 M35 27
6496 15:50:25 h   03.05.2008 100km  Cuminale, Carol USA  1952 266 F 78 W55 2
6497 15:50:25 h   03.05.2008 100km  Schlenker, Anita USA  1965 267 F 78 W40 19
6498 15:50:39 h   03.05.2008 100km  Mohr, Karen USA  1961 268 F 80 W45 23
6499 15:50:41 h   05.05.2001 100km  Johnson, Cassandra USA  1946 161 F 45 W55 2
6500 15:50:42 h   05.05.2012 100km  Denson, Marco USA  1965 209 M 158 M45 31
6501 15:50:43 h   03.05.2003 100km  Parks, Kelly USA  1968 192 F 56 W35 13
6502 15:50:54 h   03.05.2014 100km  Frasier, Mary USA  1959 334 F 80 W55 4
6503 15:51:05 h   01.05.2010 100km  Gosney, Eldrith USA  1941 255 F 81 W65 1
6504 15:51:11 h   03.05.2014 100km  Le, Jeff USA  1982 335 M 255 M30 38
6505 15:51:16 h   02.05.2009 100km  Giuntoli, Chris USA  1962 238 M 172 M45 36
6506 15:51:26 h   05.05.1996 100km  Reed, Ken USA  1945 58 M 46 M50 12
6507 15:51:43 h   03.05.2003 100km  Strong-Barrett, Nicole USA  1965 193 F 57 W35 14
6508 15:51:44 h   03.05.2003 100km  Crull, Tom USA  1943 194 M 137 M60 3
6509 15:51:45 h   03.05.2008 100km  Ozaki, Donn USA  1958 269 M 189 M50 25
6510 15:51:45 h   03.05.2008 100km  Weiss, Xy (Chrissy) USA  1961 270 F 81 W45 24
6511 15:51:53 h   03.05.2003 100km  Morrison, Larry USA  1948 195 M 138 M55 17
6512 15:51:59 h   06.05.2000 100km  Mauldin, Tonya USA  1947 142 F 44 W50 9
6513 15:51:59 h   06.05.2000 100km  Mauldin, Bruce USA  1947 143 M 99 M50 19
6514 15:52:05 h   03.05.2008 100km  Amos, Daniel USA  1959 271 M 190 M45 34
6515 15:52:05 h   03.05.2008 100km  Gonzalez, Lilia USA  1973 272 F 82 W35 14
6516 15:52:23 h   03.05.2014 100km  Curtis, Roger USA  1961 336 M 256 M50 26
6517 15:52:25 h   05.05.2012 100km  Wilhelm, Tom USA  1960 210 M 159 M50 16
6518 15:52:27 h   03.05.2003 100km  Felder, Lisa USA  1946 196 F 58 W55 3
6519 15:52:40 h   03.05.2014 100km  Lent, David USA  1963 337 M 257 M50 27
6520 15:53:16 h   06.05.2006 100km  Brownson, Christina USA  1950 221 F 72 W55 4
6521 15:53:36 h   03.05.2014 100km  Underwood, Tyson USA  1986 338 M 258 M20 14
6522 15:53:49 h   03.05.2014 100km  Albert, Alissa USA  1984 339 F 81 W30 13
6523 15:54:04 h   03.05.2003 100km  Zisko, Peter USA  1949 197 M 139 M50 29
6524 15:54:06 h   05.05.2001 100km  Rhodes, John USA  1947 162 M 117 M50 27
6525 15:54:06 h   05.05.2001 100km  Rhodes, Theresa USA  1956 163 F 46 W45 10
6526 15:54:18 h   05.05.2007 100km  Moret, Kirt USA  1954 186 M 126 M50 20
6527 15:54:18 h   05.05.2007 100km  Richards, James USA  1957 187 M 126 M50 20
6528 15:54:18 h   03.05.1997 100km  Johnson, Cassandra USA  1946 96 F 34 W50 10
6529 15:54:24 h   03.05.2014 100km  McKiernan, John USA  1958 340 M 259 M55 12
6530 15:54:32 h   02.05.2009 100km  Weiss, Xy (Chrissy) USA  1961 239 F 67 W45 18
6531 15:54:44 h   01.05.2004 100km  Hopkins, Jim USA  1949 193 M 141 M55 15
6532 15:54:49 h   07.05.2011 100km  Harbaugh, Edith USA  1978 269 F 61 W30 9
6533 15:54:49 h   07.05.2011 100km  Sargisson, Edward CAN  1978 270 M 209 M30 14
6534 15:55:00 h   03.05.2008 100km  Pham, Chau (Joe) USA  1953 273 M 191 M55 14
6535 15:55:02 h   03.05.2003 100km  Rhodes, Theresa USA  1956 198 F 59 W45 12
6536 15:55:03 h   03.05.2003 100km  Rhodes, John USA  1947 199 M 140 M55 18
6537 15:55:28 h   07.05.2011 100km  White, Tammy USA  1962 271 F 62 W45 13
6538 15:55:32 h   05.05.2007 100km  Elia, Barbara USA  1944 188 F 61 W60 4
6539 15:55:32 h   05.05.2007 100km  Herrmann, Jakob USA  1971 189 M 128 M35 26
6540 15:56:05 h   03.05.2003 100km  Draxler, Leon USA  1942 200 M 141 M60 4
6541 15:56:24 h   05.05.2012 100km  Suter, Christine CAN  1969 211 F 52 W40 7
6542 15:56:41 h   05.05.2012 100km  Antonis, Leslie USA  1962 212 F 53 W50 8
6543 15:56:45 h   05.05.2012 100km  Henson, Lisa USA  1961 213 F 54 W50 9
6544 15:57:13 h   05.05.2012 100km  Martinez, Julian USA  1962 214 M 160 M50 17
6545 15:57:19 h   03.05.2014 100km  Turney, Judy USA  1967 341 F 82 W45 11
6546 15:57:28 h   06.05.2006 100km  Mireles, Peter USA  1939 222 M 150 M65 3
6547 15:57:36 h   30.04.2005 100km  Styer, John (Jack) USA  1951 220 M 156 M50 25
6548 15:57:36 h   30.04.2005 100km  Elia, Barbara USA  1944 221 F 65 W60 2
6549 15:57:52 h   07.05.2011 100km  Oberhardt, Marilyn USA  1964 272 F 63 W45 14
6550 15:58:12 h   05.05.2012 100km  Cherrigan, Alan USA  1952 215 M 161 M60 3
6551 15:58:25 h   03.05.2008 100km  Rose, Brandon USA  1973 274 M 192 M35 39
6552 15:58:27 h   06.05.2000 100km  Boyd, Marie USA  1948 144 F 45 W50 10
6553 15:58:28 h   07.05.2011 100km  Layson, Carmela USA  1969 273 F 64 W40 14
6554 15:58:29 h   07.05.2011 100km  Bennett, Irving PAN  1961 274 M 210 M50 32
6555 15:58:29 h   03.05.2014 100km  Long, Chad USA  1973 342 M 260 M40 55
6556 15:59:06 h   05.05.2012 100km  Tse, Tin USA  1968 216 M 162 M40 35
6557 15:59:07 h   05.05.2012 100km  Liu, Wilson USA  1957 217 M 163 M55 7
6558 15:59:08 h   01.05.1999 100km  Newsom, Claudia USA  1950 118 F 38 W45 11
6559 15:59:08 h   01.05.1999 100km  Campbell, Mike USA  1954 119 M 81 M45 16
6560 15:59:22 h   05.05.2001 100km  Wright, David USA  1947 164 M 118 M50 28
6561 15:59:33 h   04.05.2002 100km  Boyd, Marie USA  1948 184 F 48 W50 7
6562 15:59:51 h   03.05.2003 100km  Gaal, Soon USA  1948 201 F 60 W55 4
6563 15:59:51 h   03.05.2003 100km  Young, Jim USA  1941 202 M 142 M60 5
6564 15:59:58 h   04.05.2002 100km  Jebian, Wini USA  1944 185 F 49 W55 3
6565 16:00:45 h   05.05.2007 100km  Subbaraya, Padma USA  1974 190 F 62 W30 7
6566 16:00:54 h   03.05.2014 100km  Dino, Michael USA  1982 343 M 261 M30 39
6567 16:01:02 h   01.05.1999 100km  Hayes, Terri USA  1943 120 F 39 W55 2
6568 16:01:02 h   01.05.1999 100km  Matheson, Joanie USA  1946 121 F 39 W50 4
6569 16:01:03 h   05.05.2007 100km  Klaff, Harry USA  1965 191 M 129 M40 26
6570 16:01:03 h   01.05.2004 100km  Boyd, Marie USA  1948 194 F 53 W55 5
6571 16:01:08 h   01.05.2004 100km  Martin, Glen USA  1947 195 M 142 M55 16
6572 16:01:38 h   01.05.2004 100km  Adams, Amy USA  1966 196 F 54 W35 5
6573 16:01:38 h   01.05.2004 100km  Gutierrez-Portales, Mona USA  1961 197 F 54 W40 19
6574 16:01:38 h   03.05.2014 100km  Ohisa, Mika JPN  1973 344 F 83 W40 18
6575 16:01:58 h   07.05.2011 100km  Badaracco, Janeth USA  1970 275 F 65 W40 15
6576 16:02:20 h   07.05.2011 100km  Tseng, Greg USA  1979 276 M 211 M30 15
6577 16:02:22 h   01.05.1999 100km  Wallick, Rebecca USA  1957 122 F 41 W40 12
6578 16:02:22 h   01.05.1999 100km  Britt, Michael USA  1951 123 M 82 M45 17
6579 16:02:26 h   03.05.2008 100km  Elia, Barbara USA  1944 275 F 83 W60 2
6580 16:02:32 h   03.05.2014 100km  Russell, Jeff USA  1959 345 M 262 M55 13
6581 16:02:34 h   05.05.2012 100km  Soriano, Franco USA  1971 218 M 164 M40 36
6582 16:02:47 h   01.05.2010 100km  Rahl, Emmett USA  1971 256 M 175 M35 39
6583 16:03:00 h   01.05.1999 100km  Richardson, Judy USA  1945 124 F 42 W50 5
6584 16:03:08 h   03.05.2014 100km  Grooman, Cathleen USA  1965 346 F 84 W45 12
6585 16:03:12 h   05.05.2001 100km  Spelt, Sarah USA  1958 165 F 47 W40 10
6586 16:03:12 h   05.05.2001 100km  Bramer, Julia USA  1964 166 F 47 W35 14
6587 16:03:28 h   01.05.2010 100km  Curley, Dennis USA  1956 257 M 176 M50 25
6588 16:03:29 h   01.05.2010 100km  Estler, Toby USA  1965 258 M 177 M45 34
6589 16:03:32 h   01.05.2010 100km  Ozaki, Donn USA  1958 259 M 178 M50 26
6590 16:03:32 h   05.05.2012 100km  Holloway, Joyce USA  1962 219 F 55 W50 10
6591 16:03:46 h   05.05.2001 100km  Brownson, Christina USA  1950 167 F 49 W50 8
6592 16:04:10 h   06.05.2006 100km  Minter, Greg USA  1960 223 M 151 M45 30
6593 16:04:10 h   06.05.2006 100km  Young, Wendy USA  1956 224 F 73 W50 5
6594 16:04:36 h   03.05.2008 100km  Roberts, Kent USA  1957 276 M 193 M50 26
6595 16:04:39 h   03.05.2014 100km  Pollack, Hayley USA  1986 347 F 85 W20 5
6596 16:04:55 h   02.05.2009 100km  Hicks, Eric USA  1955 240 M 173 M50 20
6597 16:04:55 h   05.05.2001 100km  Leitch, William CAN  1944 168 M 119 M55 14
6598 16:05:20 h   02.05.2009 100km  Hixon, Tracy USA  1964 241 F 68 W45 19
6599 16:05:32 h   02.05.2009 100km  Longan, Lynn USA  1973 242 F 69 W35 8
6600 16:05:32 h   02.05.2009 100km  Martinez, Marisol USA  1972 243 F 69 W35 8
6601 16:05:34 h   05.05.2012 100km  Gifford, Katherine USA  1975 220 F 56 W35 13
6602 16:05:46 h   06.05.2006 100km  Krivak-Tetley, Flora USA  1980 225 F 74 W20 4
6603 16:05:57 h   01.05.2004 100km  Bogardus, Laura USA  1959 198 F 56 W45 13
6604 16:05:58 h   05.05.2007 100km  Devlin, Vincent USA  1938 192 M 130 M65 1
6605 16:06:03 h   01.05.2010 100km  Nguyen, Mylinh USA  1958 260 F 82 W50 10
6606 16:06:40 h   05.05.2007 100km  Carter, Greg USA  1959 193 M 131 M45 23
6607 16:06:44 h   01.05.1999 100km  Johnson, Cassandra USA  1946 125 F 43 W50 6
6608 16:06:53 h   03.05.2003 100km  Jebian, Wini USA  1944 203 F 61 W55 5
6609 16:06:59 h   02.05.2009 100km  Medley, Brian USA  1974 244 M 174 M35 28
6610 16:06:59 h   02.05.2009 100km  O'Dwyer, Sean USA  1977 245 M 174 M30 17
6611 16:07:04 h   01.05.2010 100km  Mujica, Hugo USA  1957 261 M 179 M50 27
6612 16:07:06 h   05.05.2012 100km  Spain, Laura USA  1967 221 F 57 W45 7
6613 16:07:08 h   05.05.2012 100km  Chan, Jason USA  1976 222 M 165 M35 28
6614 16:07:15 h   05.05.2007 100km  Straub, Debbee USA  1969 194 F 63 W35 5
6615 16:07:43 h   01.05.2010 100km  Forrest, Diane USA  1961 262 F 83 W45 14
6616 16:08:05 h   06.05.2000 100km  Carpenter, Bob USA  1937 145 M 100 M60 6
6617 16:08:06 h   06.05.2000 100km  Fisher, Lucinda USA  1941 146 F 46 W55 3
6618 16:08:07 h   06.05.2000 100km  Volkenand, Robert USA  1930 147 M 101 M70 1
6619 16:08:16 h   03.05.2014 100km  Nestel, John AUS  1966 348 M 263 M45 64
6620 16:08:52 h   03.05.1997 100km  Jebian, Wini USA  1944 97 F 35 W50 11
6621 16:09:08 h   05.05.2007 100km  Kogutek, Michael USA  1949 195 M 132 M55 16
6622 16:09:11 h   01.05.2004 100km  Sanders, Mark USA  1952 199 M 143 M50 25
6623 16:09:28 h   07.05.2011 100km  McGriff, Jan USA  1963 277 F 66 W45 15
6624 16:09:38 h   05.05.2001 100km  Draxler, Leon USA  1942 169 M 120 M55 15
6625 16:09:48 h   03.05.2003 100km  Pohl, Buddy USA  1971 204 M 143 M30 13
6626 16:09:52 h   03.05.2014 100km  Adair, Stacy USA  1977 349 F 86 W35 23
6627 16:10:10 h   05.05.2012 100km  Dicus, Jennifer USA  1976 223 F 58 W35 14
6628 16:10:20 h   05.05.2012 100km  Gustavsson Lidman, Peter SWE  1965 224 M 166 M45 32
6629 16:10:56 h   03.05.2003 100km  Alexander, Gary USA  1953 205 M 144 M50 30
6630 16:11:01 h   02.05.2009 100km  de Guzman, Domingo USA  1959 246 M 176 M50 21
6631 16:11:09 h   07.05.2011 100km  Harvey, Geraline CAN  1966 278 F 67 W45 16
6632 16:11:11 h   01.05.2010 100km  Cruthirds, Letha USA  1953 263 F 84 W55 3
6633 16:11:30 h   07.05.2011 100km  Lo-Aoyama, Maria USA  1960 279 F 68 W50 8
6634 16:11:32 h   05.05.2012 100km  Tuller, Robert USA  1964 225 M 167 M45 33
6635 16:12:07 h   03.05.2003 100km  Joseph, Mark USA  1946 206 M 145 M55 19
6636 16:12:10 h   06.05.2006 100km  Berry, Jeanne USA  1950 226 F 75 W55 5
6637 16:12:10 h   06.05.2006 100km  Yee, James USA  1949 227 M 152 M55 12
6638 16:12:21 h   03.05.2008 100km  Gabriel, Joselito USA  1969 277 M 194 M35 40
6639 16:12:55 h   02.05.2009 100km  Blais, Vicki USA  1956 247 F 71 W50 8
6640 16:12:55 h   02.05.2009 100km  Copelas, Peter USA  1960 248 M 177 M45 37
6641 16:12:55 h   02.05.2009 100km  Gilford, James USA  1957 249 M 177 M50 22
6642 16:12:55 h   02.05.2009 100km  Gilford, Martha USA  1959 250 F 71 W50 8
6643 16:12:58 h   05.05.2007 100km  Weiss, Lisa USA  1957 196 F 64 W50 5
6644 16:12:58 h   03.05.2008 100km  Wright, David USA  1947 278 M 195 M60 9
6645 16:13:25 h   06.05.2006 100km  Pham, Chau (Joe) USA  1953 228 M 153 M50 20
6646 16:13:47 h   01.05.2010 100km  Mohr, Karen USA  1961 264 F 85 W45 15
6647 16:13:52 h   30.04.2005 100km  Johnson, Cassandra USA  1946 222 F 66 W55 8
6648 16:13:57 h   02.05.2009 100km  Rahl, Emmett USA  1971 251 M 179 M35 29
6649 16:14:10 h   01.05.2010 100km  Reymont, Harlan USA  1960 265 M 180 M50 28
6650 16:15:05 h   03.05.2014 100km  Parsons, Dennis USA  1959 350 M 264 M55 14
6651 16:15:12 h   05.05.2001 100km  Curtis, Margaret USA  1940 170 F 50 W60 1
6652 16:15:54 h   03.05.2003 100km  Brettler, Kim USA  1964 207 F 62 W35 15
6653 16:15:54 h   03.05.2003 100km  Brettler, Jeff USA  1961 208 M 146 M40 32
6654 16:16:26 h   30.04.2005 100km  Remington, David USA  1941 223 M 157 M60 12
6655 16:16:41 h   03.05.2014 100km  McFadden, Linda USA  1962 351 F 87 W50 11
6656 16:16:47 h   03.05.2003 100km  Wright, David USA  1947 209 M 147 M55 20
6657 16:16:48 h   06.05.2006 100km  Boyd, Marie USA  1948 229 F 76 W55 6
6658 16:17:15 h   02.05.2009 100km  Mohr, Karen USA  1961 252 F 73 W45 20
6659 16:17:28 h   03.05.2008 100km  Adney, Brett USA  1979 279 M 196 M20 7
6660 16:17:30 h   05.05.2007 100km  Boyd, Marie USA  1948 197 F 65 W55 3
6661 16:17:42 h   05.05.2012 100km  Stoute, Luis PAN  1960 226 M 168 M50 18
6662 16:17:50 h   05.05.2007 100km  Thomas, Jack USA  1950 198 M 133 M55 17
6663 16:18:16 h   05.05.2012 100km  Asquith, Rose USA  1959 227 F 59 W50 11
6664 16:18:30 h   05.05.2012 100km  Marsh, Jay USA  1963 228 M 169 M45 34
6665 16:18:40 h   03.05.2003 100km  Pelsor, Thomas USA  1944 210 M 148 M55 21
6666 16:18:46 h   05.05.2001 100km  Rossmann, Antonio USA  1941 171 M 121 M60 4
6667 16:18:50 h   05.05.2012 100km  Hennessey, Carolyn USA  1966 229 F 60 W45 8
6668 16:19:00 h   01.05.2004 100km  Brownson, Christina USA  1950 200 F 57 W50 6
6669 16:19:19 h   05.05.2007 100km  Markoe, Sarah USA  1964 199 F 66 W40 21
6670 16:19:26 h   05.05.2012 100km  Richwine, Gary USA  1949 230 M 170 M60 4
6671 16:19:28 h   05.05.2012 100km  Holman, Steven USA  1957 231 M 171 M55 8
6672 16:19:31 h   07.05.2011 100km  Nguyen, Mylinh USA  1958 280 F 69 W50 9
6673 16:20:19 h   03.05.2008 100km  Okamoto, Sheri USA  1959 280 F 84 W45 25
6674 16:20:39 h   01.05.2010 100km  Barney, Andrew USA  1972 266 M 181 M35 40
6675 16:20:40 h   01.05.2004 100km  Taylor, Greg USA  1946 201 M 144 M55 17
6676 16:20:51 h   01.05.2004 100km  Petersen, Steven USA  1954 202 M 145 M50 26
6677 16:20:56 h   06.05.2000 100km  Reagan, Stephen USA  1953 148 M 102 M45 21
6678 16:21:18 h   03.05.2008 100km  McCulloch, Leanne USA  1967 281 F 85 W40 20
6679 16:21:22 h   05.05.2012 100km  Mumford, Jay USA  1964 232 M 172 M45 35
6680 16:22:27 h   02.05.2009 100km  Nguyen, Mylinh USA  1958 253 F 74 W50 10
6681 16:22:27 h   02.05.2009 100km  Pham, Chau (Joe) USA  1953 254 M 180 M55 16
6682 16:22:45 h   05.05.2012 100km  Kasiulis, Erick USA  1961 233 M 173 M50 19
6683 16:22:59 h   05.05.2012 100km  de Castilho, Andre USA  1966 234 M 174 M45 36
6684 16:23:04 h   03.05.2014 100km  Brunsman, Andrea USA  1979 352 F 88 W35 24
6685 16:23:16 h   05.05.1996 100km  Weiss, Jeffrey USA  1949 59 M 47 M45 14
6686 16:23:41 h   05.05.2012 100km  Ankeney, Bobb USA  1953 235 M 175 M55 9
6687 16:24:10 h   05.05.2001 100km  Claire-Zimmet, Karen USA  1969 172 F 51 W30 6
6688 16:24:22 h   07.05.2011 100km  Zheng, Beiyi USA  1964 281 F 70 W45 17
6689 16:24:26 h   07.05.2011 100km  Wilson, Daniel USA  1958 282 M 212 M50 33
6690 16:25:18 h   02.05.2009 100km  Vera, Nico USA  1967 255 M 181 M40 49
6691 16:25:31 h   01.05.2010 100km  Wong, Joi USA  1965 267 F 86 W45 16
6692 16:25:33 h   03.05.2008 100km  Andrade, Hwa Ja USA  1940 282 F 86 W65 2
6693 16:25:36 h   03.05.1997 100km  Beinhorn, George USA  1942 98 M 63 M55 4
6694 16:25:36 h   03.05.1997 100km  Littlehales, David USA  1949 99 M 63 M45 17
6695 16:26:14 h   05.05.2012 100km  Goldman, Donald USA  1951 236 M 176 M60 5
6696 16:26:26 h   01.05.2004 100km  Morgan, Paul USA  1941 203 M 146 M60 11
6697 16:26:34 h   01.05.2004 100km  Draxler, Leon USA  1942 204 M 147 M60 12
6698 16:26:37 h   06.05.2000 100km  Riemer, Frederick USA  1947 149 M 103 M50 20
6699 16:26:40 h   07.05.2011 100km  Spence, Michael USA  1951 283 M 213 M60 7
6700 16:26:51 h   05.05.2012 100km  Nye, Julie USA  1962 237 F 61 W50 12
6701 16:26:54 h   05.05.2012 100km  Kososki, Stan USA  1979 238 M 177 M30 32
6702 16:27:11 h   05.05.2007 100km  Hopkins, Jim USA  1949 200 M 134 M55 18
6703 16:28:10 h   07.05.2011 100km  Caluza, Ron USA  1980 284 M 214 M30 16
6704 16:28:35 h   05.05.2001 100km  McMahon, Elaina USA  1957 173 F 52 W40 11
6705 16:28:45 h   05.05.2001 100km  Kajiwara, Josephine USA  1946 174 F 53 W55 3
6706 16:28:47 h   05.05.2001 100km  Kajiwara, Eric USA  1947 175 M 122 M50 29
6707 16:29:22 h   03.05.2014 100km  Jones, Leslie USA  1965 353 M 265 M45 65
6708 16:29:42 h   05.05.2012 100km  Stypula, Elaine USA  1965 239 F 62 W45 9
6709 16:30:03 h   05.05.2012 100km  Ashby, Deanna USA  1971 240 F 63 W40 8
6710 16:30:12 h   03.05.2014 100km  Wendling, Leigh-Ann USA  1967 354 F 89 W45 13
6711 16:30:24 h   01.05.2004 100km  Andrade, Hwa Ja USA  1940 205 F 58 W60 3
6712 16:30:30 h   03.05.2014 100km  Thaxton, Alina USA  1978 355 F 90 W35 25
6713 16:32:50 h   03.05.2014 100km  Collins, Jeff USA  1953 356 M 266 M60 11
6714 16:33:29 h   03.05.2014 100km  Smith, Pip USA  1956 357 M 267 M55 15
6715 16:33:57 h   05.05.2012 100km  Tenwick, Annie USA  1976 241 F 64 W35 15
6716 16:34:01 h   01.05.2010 100km  Pham, Chau (Joe) USA  1953 268 M 182 M55 13
6717 16:34:12 h   03.05.2014 100km  Sharp, Gregory USA  1952 358 M 268 M60 12
6718 16:34:30 h   02.05.2009 100km  Luther, Joey USA  1979 256 M 182 M30 18
6719 16:37:15 h   05.05.2012 100km  Hargreaves, Peter USA  1957 242 M 178 M55 10
6720 16:37:43 h   05.05.2012 100km  Reynoso Jimenez, Mario Daniel MEX  1974 243 M 179 M35 29
6721 16:37:47 h   02.05.2009 100km  Mayer, Alex USA  1979 257 M 183 M30 19
6722 16:38:42 h   02.05.2009 100km  Barry, Jim USA  1944 258 M 184 M65 2
6723 16:38:48 h   05.05.2012 100km  Childers, Jill USA  1964 244 F 65 W45 10
6724 16:39:32 h   06.05.2000 100km  Fallis, Donald USA  1942 150 M 104 M55 8
6725 16:39:32 h   06.05.2000 100km  Naugle, Pamela USA  1952 151 F 47 W45 8
6726 16:39:45 h   06.05.2000 100km  Elia, Barbara USA  1944 152 F 48 W55 4
6727 16:39:45 h   06.05.2000 100km  Buchan Varden, Kathryn USA  1972 153 F 48 W20 4
6728 16:39:45 h   06.05.2000 100km  Boyd, Andrew USA  1941 154 M 105 M55 9
6729 16:40:20 h   05.05.2012 100km  Carr, Bill USA  1974 245 M 180 M35 30
6730 16:42:13 h   05.05.2012 100km  Thaker, Darshan USA  1974 246 M 181 M35 31
6731 16:42:16 h   05.05.2012 100km  Wolf, David USA  1963 247 M 182 M45 37
6732 16:42:16 h   05.05.2012 100km  Orillac, Jose PAN  1972 248 M 182 M40 37
6733 16:43:12 h   02.05.2009 100km  Adney, Brett USA  1979 259 M 185 M30 20
6734 16:43:51 h   05.05.2012 100km  Exarchos, Konstantinos (Gus) USA  1968 249 M 184 M40 38
6735 16:44:25 h   07.05.2011 100km  Regalado, Iris USA  1968 285 F 71 W40 16
6736 16:44:26 h   07.05.2011 100km  von Saenger, Margaret USA  1968 286 F 72 W40 17
6737 16:44:40 h   06.05.2000 100km  Cretelli, Ken CAN  1938 155 M 106 M60 7
6738 16:46:10 h   07.05.2011 100km  Dicus, Jennifer USA  1976 287 F 73 W35 12
6739 16:48:30 h   04.05.2002 100km  Pham, Chau (Joe) USA  1953 186 M 137 M45 37
6740 16:48:30 h   04.05.2002 100km  Nguyen, Mylinh USA  1958 187 F 50 W40 14
6741 16:48:40 h   05.05.2012 100km  Birkholz, Kathleen USA  1967 250 F 66 W45 11
6742 16:49:22 h   05.05.2012 100km  Koester, John USA  1949 251 M 185 M60 6
6743 16:49:39 h   05.05.1996 100km  Nickel, John USA  1954 60 M 48 M40 5
6744 16:49:46 h   04.05.2002 100km  Gomez, Susan USA  1954 188 F 51 W45 11
6745 16:50:00 h   02.05.1998 100km  Kusner, Kathy USA  1940 105 F 32 W55 3
6746 16:50:03 h   02.05.2009 100km  Mulvey, Edward USA  1958 260 M 186 M50 23
6747 16:51:00 h   04.05.2002 100km  Mast, Sara USA  1968 189 F 52 W30 3
6748 16:51:43 h   05.05.2012 100km  Burrell, David USA  1967 252 M 186 M45 38
6749 16:51:51 h   05.05.2012 100km  Bruckmann-Harmon, Loree USA  1963 253 F 67 W45 12
6750 16:56:48 h   04.05.2002 100km  Wright, Gary USA  1951 190 M 138 M50 21
6751 16:56:48 h   04.05.2002 100km  Engelke, Ellen USA  1957 191 F 53 W45 12
6752 16:56:54 h   05.05.2012 100km  Kent, Karla CZE  1963 254 F 68 W45 13
6753 17:04:35 h   05.05.2012 100km  Dickinson, Robert USA  1955 255 M 187 M55 11
6754 17:05:07 h   05.05.2012 100km  Laurie, Nicolette USA  1973 256 F 69 W35 16
6755 17:08:30 h   05.05.2012 100km  Cheung, Luisa USA  1972 257 F 70 W40 9
6756 17:14:20 h   05.05.2012 100km  Koldewey, Martina GER  1963 258 F 71 W45 14
6757 17:16:27 h   05.05.2012 100km  Aberg, Michael USA  1965 259 M 188 M45 39
6758 17:16:44 h   05.05.2012 100km  Wiggins, Karen USA  1959 260 F 72 W50 13
6759 17:18:58 h   05.05.2012 100km  Barney, Andrew USA  1972 261 M 189 M40 39
6760 17:20:05 h   05.05.2012 100km  Gosney, Eldrith USA  1941 262 F 73 W70 1
6761 17:35:55 h   05.05.2012 100km  Higgins, Buzz USA  1944 263 M 190 M65 2
6762 17:39:28 h   05.05.2012 100km  Somnhot, Panya USA  1981 264 M 191 M30 33
6763 18:02:34 h   05.05.1996 100km  Cantini-Norkin, Mary USA  1944 61 F 13 W50 4
6764 18:06:45 h   05.05.1996 100km  Dorey, Ron USA  1960 62 M 49 M35 6